GEFSCGP_prec_meanprecacc_072.txt.gz
Total_Precipitation_Accumulation
0.00 0.00 0.00 0.00 0.00 0.00 0.00 0.00 0.00 0.00 0.00 0.00 0.01 0.03 0.03 0.04 0.04 0.09 0.14 0.12 0.13 0.20 0.35 0.53 0.75 1.04 1.29 1.08 0.88 0.80 0.73 0.71 0.75 0.86 0.90 0.96 1.16 1.33 1.47 1.63 1.67 1.65 1.56 1.52
0.00 0.00 0.00 0.00 0.00 0.00 0.00 0.00 0.01 0.01 0.01 0.01 0.01 0.02 0.04 0.06 0.05 0.09 0.13 0.16 0.18 0.24 0.46 0.71 0.97 1.34 1.56 1.51 1.38 1.30 1.19 1.17 1.28 1.41 1.62 1.91 2.16 2.40 2.59 2.60 2.39 2.21 2.11 2.04
0.00 0.00 0.00 0.00 0.00 0.00 0.00 0.00 0.01 0.04 0.03 0.02 0.02 0.06 0.08 0.09 0.08 0.11 0.18 0.27 0.44 0.50 0.75 0.99 1.20 1.50 1.71 1.71 1.59 1.49 1.52 1.60 1.83 2.10 2.38 2.72 2.97 3.15 3.16 3.04 2.88 2.75 2.65 2.54
0.00 0.00 0.00 0.00 0.00 0.00 0.00 0.00 0.00 0.01 0.02 0.02 0.02 0.09 0.20 0.14 0.11 0.19 0.27 0.26 0.39 0.57 0.84 1.09 1.32 1.53 1.71 1.73 1.66 1.69 1.82 2.12 2.34 2.67 3.05 3.45 3.72 3.77 3.71 3.52 3.32 3.12 2.85 2.55
0.00 0.00 0.00 0.00 0.00 0.00 0.00 0.00 0.00 0.01 0.01 0.01 0.01 0.07 0.27 0.26 0.20 0.25 0.38 0.32 0.33 0.38 0.61 0.90 1.13 1.31 1.53 1.58 1.65 1.85 2.08 2.47 2.89 3.37 3.88 4.14 4.13 4.01 3.84 3.49 3.16 2.85 2.55 2.28
0.00 0.00 0.00 0.00 0.00 0.00 0.00 0.00 0.00 0.00 0.00 0.00 0.01 0.06 0.30 0.45 0.41 0.37 0.34 0.32 0.32 0.34 0.40 0.53 0.69 0.92 1.12 1.36 1.60 1.89 2.30 2.74 3.10 3.46 3.82 3.86 3.74 3.66 3.39 2.96 2.54 2.33 2.15 1.87
0.01 0.01 0.00 0.00 0.00 0.00 0.00 0.00 0.00 0.00 0.00 0.01 0.02 0.11 0.36 0.57 0.62 0.44 0.33 0.28 0.25 0.29 0.32 0.38 0.47 0.71 0.96 1.17 1.43 1.77 2.07 2.39 2.59 2.79 3.00 3.08 3.01 2.89 2.74 2.43 2.12 1.84 1.52 1.22
0.08 0.04 0.01 0.00 0.00 0.00 0.00 0.00 0.00 0.00 0.00 0.02 0.07 0.21 0.39 0.44 0.44 0.32 0.25 0.21 0.21 0.26 0.31 0.38 0.49 0.63 0.86 1.07 1.27 1.42 1.62 1.86 1.90 1.85 1.95 2.04 1.98 1.93 1.83 1.65 1.48 1.28 1.04 0.80
0.15 0.08 0.02 0.00 0.00 0.00 0.00 0.00 0.00 0.00 0.01 0.06 0.21 0.36 0.47 0.41 0.29 0.24 0.22 0.20 0.23 0.28 0.33 0.40 0.48 0.57 0.67 0.80 0.90 0.96 1.03 1.16 1.18 1.17 1.16 1.19 1.18 1.17 1.10 0.96 0.81 0.68 0.55 0.43
0.12 0.09 0.03 0.00 0.00 0.00 0.00 0.01 0.01 0.01 0.03 0.11 0.27 0.43 0.54 0.60 0.42 0.28 0.23 0.22 0.26 0.31 0.34 0.39 0.45 0.49 0.54 0.56 0.60 0.65 0.65 0.71 0.76 0.79 0.77 0.75 0.73 0.68 0.59 0.51 0.47 0.41 0.36 0.31
0.09 0.09 0.05 0.02 0.02 0.02 0.01 0.01 0.02 0.03 0.03 0.12 0.32 0.64 0.80 0.95 0.82 0.52 0.35 0.28 0.29 0.33 0.37 0.42 0.44 0.40 0.38 0.38 0.40 0.43 0.46 0.48 0.48 0.46 0.45 0.44 0.41 0.37 0.35 0.32 0.29 0.25 0.22 0.20
0.12 0.16 0.14 0.09 0.04 0.02 0.02 0.03 0.06 0.11 0.12 0.11 0.31 0.93 1.30 1.34 1.12 0.78 0.54 0.45 0.45 0.43 0.45 0.47 0.44 0.37 0.34 0.34 0.35 0.35 0.33 0.33 0.33 0.29 0.25 0.23 0.21 0.19 0.19 0.18 0.16 0.14 0.13 0.12
0.08 0.15 0.27 0.20 0.11 0.05 0.03 0.05 0.06 0.08 0.08 0.12 0.36 1.03 1.50 1.40 1.17 0.93 0.73 0.68 0.68 0.66 0.64 0.57 0.47 0.41 0.38 0.34 0.31 0.29 0.25 0.23 0.22 0.20 0.18 0.17 0.16 0.15 0.14 0.13 0.13 0.12 0.12 0.12
0.05 0.17 0.40 0.50 0.31 0.18 0.11 0.07 0.05 0.05 0.12 0.22 0.42 0.83 1.24 1.21 1.06 0.97 0.93 1.00 0.99 0.83 0.66 0.54 0.47 0.43 0.38 0.34 0.31 0.26 0.23 0.19 0.16 0.15 0.14 0.14 0.14 0.13 0.13 0.12 0.12 0.11 0.11 0.11
0.11 0.31 0.37 0.33 0.27 0.23 0.17 0.14 0.11 0.11 0.16 0.33 0.59 0.84 1.14 1.24 1.21 1.24 1.34 1.28 1.07 0.83 0.65 0.57 0.52 0.50 0.46 0.41 0.35 0.29 0.25 0.21 0.18 0.16 0.17 0.17 0.16 0.16 0.15 0.14 0.13 0.12 0.11 0.09
0.10 0.23 0.27 0.27 0.24 0.25 0.23 0.26 0.26 0.24 0.30 0.49 0.70 1.04 1.40 1.49 1.51 1.44 1.38 1.33 1.21 1.02 0.85 0.72 0.64 0.57 0.53 0.50 0.46 0.43 0.40 0.36 0.30 0.27 0.25 0.24 0.21 0.19 0.16 0.14 0.12 0.09 0.06 0.04
0.08 0.14 0.26 0.30 0.23 0.30 0.41 0.40 0.32 0.33 0.43 0.59 0.70 0.89 1.14 1.23 1.29 1.36 1.40 1.38 1.31 1.15 1.00 0.91 0.88 0.82 0.76 0.70 0.64 0.59 0.52 0.42 0.35 0.30 0.26 0.22 0.18 0.14 0.11 0.08 0.06 0.05 0.04 0.04
0.07 0.10 0.18 0.21 0.28 0.47 0.43 0.34 0.30 0.34 0.43 0.47 0.51 0.61 0.80 0.93 1.04 1.16 1.28 1.35 1.31 1.19 1.13 1.10 1.01 0.94 0.88 0.77 0.63 0.48 0.37 0.30 0.25 0.21 0.17 0.13 0.10 0.07 0.05 0.04 0.04 0.04 0.05 0.05
0.04 0.07 0.13 0.18 0.32 0.45 0.43 0.28 0.24 0.35 0.45 0.41 0.40 0.43 0.50 0.57 0.65 0.84 0.93 0.99 1.08 1.08 1.02 0.99 0.95 0.90 0.80 0.64 0.46 0.33 0.25 0.20 0.16 0.14 0.11 0.07 0.05 0.04 0.04 0.04 0.04 0.05 0.06 0.06
0.03 0.05 0.10 0.18 0.33 0.46 0.48 0.20 0.12 0.25 0.54 0.51 0.45 0.43 0.47 0.57 0.63 0.60 0.58 0.59 0.64 0.70 0.75 0.77 0.73 0.64 0.54 0.41 0.29 0.23 0.19 0.16 0.13 0.10 0.07 0.05 0.04 0.04 0.04 0.05 0.05 0.05 0.06 0.07
0.11 0.10 0.14 0.23 0.37 0.44 0.22 0.14 0.21 0.47 0.61 0.54 0.45 0.47 0.57 0.62 0.54 0.38 0.34 0.39 0.44 0.50 0.55 0.55 0.50 0.46 0.37 0.27 0.21 0.20 0.17 0.14 0.10 0.08 0.07 0.06 0.04 0.04 0.04 0.06 0.07 0.06 0.06 0.07
0.15 0.20 0.27 0.32 0.42 0.45 0.18 0.19 0.35 0.41 0.35 0.32 0.32 0.34 0.34 0.30 0.25 0.22 0.21 0.25 0.31 0.38 0.42 0.40 0.37 0.31 0.23 0.19 0.18 0.17 0.15 0.10 0.08 0.09 0.09 0.07 0.05 0.03 0.03 0.07 0.09 0.07 0.07 0.09
0.05 0.10 0.20 0.29 0.38 0.31 0.14 0.15 0.18 0.20 0.22 0.20 0.23 0.24 0.18 0.17 0.19 0.17 0.15 0.19 0.24 0.25 0.25 0.22 0.19 0.17 0.16 0.15 0.15 0.15 0.10 0.07 0.07 0.09 0.10 0.08 0.05 0.04 0.03 0.05 0.07 0.07 0.08 0.07
0.04 0.01 0.05 0.12 0.20 0.18 0.15 0.14 0.13 0.14 0.16 0.17 0.18 0.20 0.17 0.11 0.08 0.09 0.14 0.19 0.21 0.18 0.15 0.13 0.13 0.14 0.15 0.13 0.13 0.13 0.09 0.09 0.11 0.13 0.11 0.08 0.07 0.06 0.04 0.03 0.03 0.03 0.04 0.04
0.04 0.01 0.03 0.10 0.16 0.18 0.21 0.18 0.15 0.15 0.15 0.15 0.18 0.20 0.16 0.10 0.08 0.10 0.13 0.15 0.15 0.14 0.13 0.14 0.17 0.15 0.12 0.10 0.10 0.08 0.07 0.09 0.13 0.13 0.08 0.07 0.07 0.06 0.06 0.05 0.03 0.02 0.02 0.01
0.01 0.01 0.06 0.15 0.18 0.21 0.27 0.19 0.14 0.20 0.25 0.27 0.26 0.20 0.14 0.12 0.11 0.11 0.11 0.12 0.12 0.13 0.14 0.16 0.14 0.11 0.08 0.06 0.05 0.03 0.03 0.04 0.07 0.08 0.06 0.05 0.05 0.05 0.04 0.06 0.07 0.02 0.01 0.01

GEFSCGP_prec_meanprecacc_078.txt.gz
Total_Precipitation_Accumulation
0.00 0.00 0.00 0.00 0.00 0.00 0.00 0.00 0.00 0.00 0.00 0.01 0.01 0.03 0.04 0.05 0.04 0.09 0.15 0.13 0.15 0.23 0.39 0.60 0.85 1.18 1.55 1.40 1.19 1.22 1.28 1.23 1.26 1.39 1.39 1.42 1.59 1.76 1.89 2.00 2.00 1.95 1.84 1.80
0.00 0.00 0.00 0.00 0.00 0.00 0.00 0.00 0.01 0.02 0.01 0.02 0.03 0.04 0.05 0.08 0.06 0.10 0.14 0.17 0.20 0.26 0.50 0.78 1.07 1.51 1.83 1.84 1.80 1.73 1.82 1.91 2.01 2.11 2.26 2.47 2.68 2.88 3.03 3.01 2.77 2.60 2.49 2.37
0.00 0.00 0.00 0.00 0.00 0.00 0.00 0.00 0.01 0.04 0.03 0.04 0.05 0.10 0.12 0.12 0.11 0.14 0.20 0.30 0.47 0.53 0.79 1.05 1.28 1.64 1.93 1.99 1.96 1.96 2.08 2.38 2.76 3.01 3.19 3.40 3.57 3.67 3.58 3.38 3.23 3.12 3.01 2.88
0.00 0.00 0.00 0.00 0.00 0.00 0.00 0.00 0.00 0.02 0.03 0.04 0.05 0.15 0.26 0.18 0.15 0.23 0.31 0.31 0.45 0.63 0.90 1.17 1.41 1.65 1.91 2.04 2.03 2.19 2.58 3.06 3.43 3.75 4.07 4.42 4.54 4.43 4.21 3.91 3.63 3.43 3.17 2.84
0.00 0.00 0.00 0.00 0.00 0.00 0.00 0.00 0.00 0.01 0.01 0.03 0.04 0.10 0.34 0.32 0.23 0.30 0.43 0.37 0.40 0.48 0.70 1.00 1.24 1.43 1.70 1.84 2.00 2.29 2.73 3.27 3.84 4.44 4.94 5.14 5.04 4.77 4.47 3.96 3.49 3.10 2.78 2.49
0.00 0.00 0.00 0.00 0.00 0.00 0.00 0.00 0.00 0.00 0.00 0.01 0.02 0.08 0.35 0.54 0.47 0.41 0.39 0.39 0.39 0.42 0.49 0.62 0.79 1.02 1.24 1.56 1.89 2.22 2.68 3.27 3.77 4.25 4.66 4.71 4.56 4.36 3.97 3.42 2.89 2.56 2.31 2.01
0.01 0.01 0.01 0.00 0.00 0.00 0.00 0.00 0.00 0.00 0.00 0.02 0.03 0.13 0.40 0.64 0.67 0.48 0.38 0.35 0.32 0.35 0.38 0.45 0.55 0.78 1.05 1.29 1.60 1.99 2.33 2.77 3.10 3.38 3.64 3.67 3.60 3.42 3.19 2.80 2.42 2.07 1.67 1.34
0.09 0.04 0.01 0.00 0.00 0.00 0.00 0.00 0.00 0.00 0.01 0.04 0.10 0.26 0.43 0.49 0.49 0.37 0.30 0.27 0.26 0.31 0.35 0.44 0.56 0.69 0.94 1.15 1.38 1.56 1.78 2.07 2.16 2.17 2.30 2.38 2.30 2.22 2.09 1.90 1.69 1.43 1.14 0.87
0.16 0.08 0.02 0.01 0.00 0.00 0.00 0.00 0.01 0.01 0.01 0.07 0.25 0.39 0.51 0.46 0.33 0.28 0.26 0.24 0.26 0.31 0.37 0.44 0.52 0.60 0.72 0.87 0.97 1.04 1.12 1.27 1.30 1.33 1.33 1.36 1.35 1.32 1.22 1.07 0.90 0.74 0.59 0.46
0.12 0.10 0.03 0.01 0.01 0.01 0.01 0.01 0.02 0.01 0.03 0.12 0.30 0.47 0.58 0.66 0.48 0.32 0.26 0.26 0.29 0.33 0.37 0.41 0.47 0.52 0.57 0.61 0.66 0.71 0.73 0.80 0.86 0.89 0.87 0.87 0.85 0.79 0.69 0.60 0.52 0.44 0.38 0.33
0.10 0.10 0.05 0.02 0.02 0.03 0.02 0.02 0.03 0.03 0.04 0.12 0.33 0.66 0.82 0.99 0.91 0.60 0.42 0.34 0.33 0.36 0.39 0.44 0.46 0.42 0.41 0.42 0.44 0.49 0.53 0.55 0.55 0.54 0.54 0.53 0.48 0.43 0.40 0.37 0.33 0.28 0.24 0.21
0.12 0.16 0.14 0.10 0.04 0.04 0.03 0.04 0.06 0.12 0.13 0.11 0.32 0.94 1.32 1.39 1.21 0.90 0.66 0.56 0.55 0.50 0.49 0.50 0.47 0.40 0.37 0.38 0.38 0.39 0.38 0.40 0.40 0.34 0.30 0.30 0.27 0.24 0.22 0.21 0.19 0.16 0.15 0.13
0.08 0.16 0.28 0.21 0.12 0.06 0.05 0.06 0.07 0.08 0.09 0.13 0.38 1.05 1.53 1.46 1.29 1.07 0.86 0.81 0.82 0.78 0.72 0.63 0.52 0.46 0.41 0.37 0.33 0.32 0.28 0.26 0.27 0.24 0.21 0.19 0.19 0.17 0.15 0.14 0.13 0.13 0.13 0.13
0.06 0.18 0.41 0.50 0.31 0.19 0.12 0.08 0.05 0.06 0.13 0.23 0.44 0.86 1.27 1.28 1.17 1.09 1.05 1.15 1.16 0.99 0.78 0.63 0.54 0.48 0.42 0.37 0.32 0.27 0.24 0.20 0.18 0.18 0.16 0.15 0.15 0.14 0.13 0.13 0.12 0.12 0.11 0.11
0.11 0.32 0.38 0.34 0.28 0.24 0.18 0.15 0.12 0.11 0.16 0.33 0.60 0.85 1.16 1.27 1.28 1.33 1.43 1.38 1.18 0.95 0.75 0.64 0.58 0.54 0.50 0.43 0.37 0.31 0.26 0.22 0.18 0.17 0.17 0.17 0.17 0.16 0.15 0.14 0.13 0.12 0.11 0.09
0.11 0.24 0.28 0.29 0.25 0.27 0.25 0.27 0.27 0.25 0.31 0.49 0.71 1.05 1.42 1.52 1.56 1.51 1.48 1.45 1.33 1.11 0.91 0.75 0.66 0.60 0.56 0.52 0.47 0.44 0.41 0.36 0.31 0.27 0.26 0.24 0.21 0.19 0.16 0.14 0.12 0.09 0.06 0.04
0.09 0.14 0.29 0.33 0.25 0.32 0.43 0.42 0.33 0.34 0.44 0.60 0.71 0.91 1.16 1.26 1.34 1.42 1.47 1.47 1.42 1.26 1.07 0.94 0.90 0.84 0.79 0.71 0.65 0.59 0.52 0.43 0.35 0.30 0.26 0.22 0.18 0.14 0.11 0.08 0.06 0.05 0.04 0.04
0.07 0.11 0.19 0.23 0.30 0.49 0.44 0.35 0.32 0.35 0.45 0.48 0.53 0.62 0.82 0.96 1.08 1.23 1.34 1.41 1.40 1.28 1.21 1.14 1.04 0.96 0.89 0.79 0.64 0.48 0.37 0.30 0.25 0.21 0.17 0.13 0.10 0.07 0.05 0.04 0.04 0.04 0.05 0.05
0.05 0.08 0.15 0.19 0.33 0.46 0.44 0.29 0.25 0.36 0.46 0.42 0.41 0.44 0.52 0.59 0.68 0.92 1.02 1.07 1.16 1.15 1.09 1.05 0.98 0.93 0.83 0.67 0.48 0.33 0.25 0.20 0.16 0.14 0.11 0.07 0.05 0.04 0.04 0.04 0.04 0.05 0.06 0.06
0.04 0.06 0.11 0.19 0.34 0.48 0.49 0.21 0.13 0.26 0.54 0.52 0.46 0.44 0.48 0.60 0.67 0.66 0.65 0.66 0.72 0.78 0.82 0.83 0.76 0.68 0.57 0.43 0.30 0.24 0.20 0.16 0.13 0.10 0.07 0.05 0.04 0.04 0.04 0.05 0.05 0.05 0.06 0.07
0.11 0.11 0.15 0.23 0.37 0.45 0.24 0.15 0.22 0.48 0.61 0.54 0.46 0.49 0.59 0.65 0.56 0.42 0.38 0.44 0.50 0.57 0.61 0.59 0.54 0.49 0.38 0.27 0.22 0.21 0.18 0.14 0.11 0.08 0.07 0.06 0.04 0.04 0.04 0.06 0.07 0.06 0.06 0.07
0.15 0.20 0.27 0.32 0.42 0.45 0.19 0.20 0.36 0.42 0.35 0.33 0.33 0.35 0.36 0.32 0.28 0.24 0.23 0.28 0.35 0.43 0.47 0.43 0.40 0.34 0.26 0.21 0.19 0.18 0.16 0.11 0.08 0.09 0.09 0.07 0.05 0.03 0.03 0.07 0.09 0.07 0.07 0.09
0.05 0.10 0.20 0.30 0.38 0.31 0.15 0.16 0.18 0.20 0.23 0.21 0.24 0.25 0.19 0.19 0.21 0.19 0.17 0.21 0.27 0.29 0.28 0.24 0.21 0.20 0.19 0.16 0.16 0.16 0.11 0.07 0.07 0.09 0.10 0.08 0.05 0.04 0.03 0.05 0.07 0.07 0.08 0.07
0.04 0.02 0.05 0.13 0.20 0.19 0.15 0.14 0.13 0.14 0.16 0.18 0.19 0.20 0.18 0.13 0.10 0.10 0.15 0.22 0.23 0.20 0.16 0.15 0.14 0.15 0.16 0.14 0.14 0.14 0.10 0.09 0.12 0.13 0.11 0.08 0.07 0.06 0.04 0.03 0.03 0.03 0.04 0.04
0.04 0.01 0.04 0.11 0.17 0.18 0.21 0.18 0.15 0.15 0.15 0.16 0.18 0.21 0.17 0.11 0.09 0.10 0.13 0.16 0.16 0.15 0.14 0.16 0.18 0.17 0.14 0.12 0.12 0.10 0.08 0.09 0.14 0.14 0.10 0.09 0.08 0.06 0.06 0.05 0.03 0.02 0.02 0.01
0.01 0.01 0.06 0.15 0.18 0.21 0.27 0.19 0.14 0.20 0.25 0.27 0.26 0.20 0.15 0.12 0.11 0.11 0.11 0.12 0.12 0.14 0.15 0.17 0.16 0.12 0.09 0.07 0.07 0.04 0.03 0.05 0.08 0.10 0.09 0.07 0.06 0.05 0.04 0.06 0.07 0.02 0.01 0.01

GEFSCGP_prec_meanprecacc_084.txt.gz
Total_Precipitation_Accumulation
0.00 0.00 0.00 0.00 0.00 0.00 0.00 0.00 0.00 0.00 0.00 0.01 0.01 0.04 0.05 0.05 0.04 0.10 0.15 0.14 0.15 0.24 0.40 0.61 0.86 1.20 1.59 1.46 1.28 1.34 1.44 1.42 1.51 1.73 1.77 1.76 1.92 2.06 2.19 2.32 2.28 2.23 2.10 2.06
0.00 0.00 0.00 0.00 0.00 0.00 0.00 0.00 0.01 0.02 0.01 0.02 0.03 0.05 0.06 0.08 0.08 0.11 0.15 0.18 0.20 0.27 0.51 0.80 1.09 1.54 1.87 1.89 1.87 1.82 1.94 2.08 2.22 2.39 2.63 2.86 3.05 3.22 3.41 3.43 3.11 2.91 2.77 2.62
0.00 0.00 0.00 0.00 0.00 0.00 0.00 0.00 0.01 0.04 0.04 0.04 0.07 0.12 0.14 0.14 0.13 0.16 0.22 0.31 0.48 0.54 0.81 1.07 1.30 1.67 1.97 2.04 2.03 2.05 2.19 2.55 2.97 3.29 3.55 3.84 4.00 4.09 3.97 3.74 3.56 3.41 3.28 3.13
0.00 0.00 0.00 0.00 0.00 0.00 0.00 0.00 0.00 0.02 0.03 0.05 0.06 0.18 0.30 0.23 0.20 0.26 0.34 0.33 0.47 0.65 0.92 1.19 1.44 1.68 1.94 2.08 2.09 2.27 2.68 3.23 3.68 4.03 4.38 4.78 4.95 4.84 4.59 4.23 3.91 3.68 3.40 3.06
0.00 0.00 0.00 0.00 0.00 0.00 0.00 0.00 0.00 0.01 0.01 0.03 0.04 0.12 0.38 0.38 0.30 0.33 0.45 0.40 0.43 0.50 0.72 1.02 1.27 1.46 1.73 1.88 2.06 2.38 2.84 3.42 4.02 4.68 5.18 5.43 5.37 5.15 4.84 4.29 3.80 3.39 3.03 2.72
0.00 0.00 0.00 0.00 0.00 0.00 0.00 0.00 0.00 0.00 0.01 0.02 0.03 0.10 0.40 0.62 0.54 0.46 0.42 0.41 0.42 0.45 0.52 0.64 0.81 1.04 1.27 1.60 1.95 2.29 2.78 3.41 3.92 4.43 4.87 4.94 4.83 4.68 4.31 3.75 3.22 2.88 2.60 2.28
0.01 0.01 0.01 0.00 0.00 0.00 0.00 0.00 0.01 0.01 0.01 0.02 0.04 0.16 0.45 0.70 0.73 0.53 0.43 0.39 0.34 0.38 0.42 0.48 0.57 0.81 1.09 1.33 1.66 2.05 2.42 2.89 3.27 3.57 3.87 3.95 3.90 3.76 3.56 3.18 2.76 2.40 1.98 1.63
0.09 0.04 0.01 0.00 0.00 0.00 0.00 0.00 0.01 0.02 0.01 0.05 0.13 0.30 0.47 0.53 0.53 0.41 0.34 0.31 0.30 0.34 0.39 0.47 0.59 0.74 0.99 1.21 1.45 1.63 1.87 2.17 2.28 2.31 2.45 2.57 2.53 2.48 2.39 2.20 1.99 1.75 1.44 1.11
0.16 0.08 0.02 0.01 0.00 0.00 0.01 0.01 0.01 0.01 0.01 0.09 0.28 0.42 0.54 0.49 0.36 0.32 0.30 0.28 0.30 0.35 0.40 0.47 0.55 0.64 0.77 0.93 1.03 1.09 1.18 1.34 1.39 1.44 1.44 1.48 1.50 1.48 1.39 1.23 1.07 0.92 0.76 0.60
0.13 0.10 0.03 0.01 0.01 0.01 0.01 0.02 0.03 0.02 0.05 0.15 0.34 0.51 0.62 0.70 0.52 0.37 0.30 0.29 0.32 0.37 0.41 0.44 0.50 0.54 0.60 0.66 0.72 0.77 0.78 0.85 0.91 0.97 0.98 0.97 0.96 0.90 0.80 0.71 0.63 0.55 0.47 0.40
0.10 0.10 0.05 0.02 0.03 0.03 0.03 0.04 0.05 0.05 0.05 0.15 0.36 0.70 0.86 1.03 0.95 0.66 0.47 0.38 0.37 0.40 0.42 0.47 0.49 0.44 0.43 0.44 0.48 0.53 0.57 0.59 0.61 0.62 0.64 0.63 0.59 0.54 0.51 0.47 0.43 0.38 0.31 0.26
0.12 0.17 0.15 0.10 0.05 0.04 0.04 0.06 0.09 0.15 0.15 0.14 0.35 0.98 1.34 1.43 1.26 0.96 0.71 0.61 0.60 0.54 0.52 0.54 0.51 0.43 0.40 0.42 0.42 0.42 0.43 0.45 0.47 0.41 0.39 0.39 0.35 0.32 0.29 0.27 0.25 0.22 0.20 0.17
0.08 0.17 0.30 0.23 0.13 0.07 0.05 0.07 0.09 0.10 0.12 0.18 0.42 1.09 1.56 1.50 1.36 1.17 0.95 0.88 0.91 0.86 0.78 0.67 0.57 0.50 0.47 0.44 0.40 0.37 0.33 0.32 0.34 0.31 0.27 0.27 0.26 0.25 0.22 0.19 0.17 0.16 0.15 0.14
0.06 0.19 0.43 0.52 0.33 0.20 0.13 0.09 0.07 0.09 0.18 0.27 0.48 0.89 1.30 1.33 1.26 1.21 1.18 1.24 1.24 1.06 0.85 0.71 0.61 0.55 0.50 0.46 0.40 0.34 0.30 0.25 0.24 0.25 0.23 0.20 0.18 0.18 0.17 0.16 0.14 0.13 0.12 0.11
0.12 0.34 0.38 0.34 0.29 0.24 0.18 0.16 0.13 0.14 0.19 0.37 0.63 0.88 1.18 1.30 1.32 1.41 1.54 1.48 1.27 1.05 0.87 0.76 0.68 0.64 0.59 0.52 0.46 0.38 0.32 0.27 0.22 0.22 0.23 0.22 0.19 0.17 0.16 0.16 0.14 0.13 0.11 0.09
0.12 0.26 0.30 0.30 0.25 0.27 0.26 0.28 0.28 0.27 0.32 0.52 0.74 1.08 1.44 1.55 1.59 1.56 1.58 1.56 1.44 1.22 1.05 0.90 0.79 0.71 0.67 0.61 0.56 0.52 0.46 0.41 0.34 0.29 0.29 0.28 0.24 0.20 0.17 0.14 0.12 0.09 0.06 0.04
0.10 0.17 0.33 0.37 0.26 0.34 0.46 0.44 0.35 0.36 0.45 0.62 0.74 0.93 1.19 1.30 1.38 1.47 1.57 1.60 1.55 1.38 1.20 1.06 1.01 0.94 0.88 0.79 0.71 0.64 0.55 0.44 0.36 0.31 0.27 0.23 0.19 0.15 0.11 0.08 0.06 0.05 0.05 0.04
0.08 0.14 0.23 0.28 0.34 0.53 0.47 0.36 0.33 0.37 0.47 0.50 0.54 0.63 0.85 1.01 1.16 1.32 1.46 1.57 1.57 1.42 1.32 1.24 1.14 1.02 0.95 0.84 0.69 0.51 0.39 0.31 0.26 0.22 0.18 0.14 0.10 0.07 0.05 0.04 0.04 0.05 0.05 0.05
0.05 0.10 0.18 0.24 0.37 0.49 0.46 0.30 0.27 0.39 0.48 0.44 0.43 0.45 0.54 0.63 0.77 1.07 1.17 1.21 1.30 1.28 1.19 1.13 1.05 0.97 0.86 0.69 0.50 0.35 0.26 0.21 0.17 0.16 0.13 0.09 0.06 0.05 0.04 0.04 0.05 0.05 0.07 0.07
0.04 0.08 0.14 0.22 0.37 0.51 0.51 0.22 0.13 0.27 0.57 0.53 0.47 0.45 0.49 0.62 0.71 0.74 0.76 0.77 0.82 0.88 0.90 0.90 0.81 0.71 0.60 0.45 0.32 0.25 0.21 0.18 0.15 0.12 0.09 0.06 0.05 0.05 0.05 0.05 0.06 0.06 0.07 0.08
0.13 0.12 0.17 0.26 0.40 0.46 0.25 0.16 0.23 0.51 0.63 0.55 0.47 0.50 0.62 0.70 0.61 0.46 0.43 0.53 0.59 0.64 0.68 0.65 0.58 0.51 0.41 0.30 0.24 0.23 0.20 0.17 0.13 0.09 0.08 0.06 0.04 0.04 0.05 0.06 0.08 0.07 0.07 0.08
0.16 0.22 0.29 0.33 0.43 0.46 0.19 0.21 0.38 0.45 0.36 0.33 0.34 0.36 0.38 0.36 0.33 0.29 0.27 0.35 0.42 0.49 0.52 0.48 0.43 0.36 0.28 0.23 0.21 0.20 0.18 0.14 0.11 0.10 0.09 0.08 0.06 0.03 0.04 0.08 0.10 0.08 0.08 0.10
0.06 0.10 0.21 0.30 0.39 0.31 0.15 0.16 0.19 0.20 0.23 0.21 0.26 0.27 0.22 0.23 0.26 0.23 0.22 0.27 0.32 0.33 0.33 0.29 0.25 0.24 0.22 0.19 0.18 0.19 0.14 0.10 0.08 0.10 0.11 0.09 0.06 0.05 0.04 0.06 0.09 0.08 0.09 0.08
0.04 0.02 0.05 0.13 0.21 0.19 0.15 0.14 0.14 0.14 0.17 0.18 0.21 0.24 0.21 0.17 0.14 0.16 0.22 0.26 0.27 0.24 0.21 0.20 0.19 0.20 0.20 0.18 0.17 0.17 0.13 0.11 0.13 0.14 0.12 0.09 0.08 0.07 0.04 0.03 0.03 0.03 0.04 0.04
0.04 0.01 0.04 0.11 0.18 0.18 0.22 0.19 0.15 0.15 0.16 0.17 0.20 0.24 0.21 0.14 0.12 0.14 0.19 0.21 0.21 0.19 0.18 0.20 0.24 0.24 0.18 0.15 0.15 0.13 0.10 0.11 0.15 0.16 0.12 0.11 0.10 0.07 0.06 0.05 0.03 0.02 0.02 0.01
0.01 0.01 0.06 0.15 0.18 0.21 0.28 0.19 0.15 0.21 0.27 0.29 0.28 0.23 0.17 0.15 0.13 0.12 0.13 0.14 0.15 0.16 0.18 0.21 0.21 0.16 0.12 0.10 0.10 0.07 0.05 0.06 0.10 0.12 0.10 0.09 0.07 0.06 0.05 0.07 0.07 0.02 0.01 0.01

GEFSCGP_prec_meanprecacc_090.txt.gz
Total_Precipitation_Accumulation
0.00 0.00 0.00 0.00 0.00 0.00 0.00 0.00 0.00 0.00 0.00 0.01 0.01 0.04 0.05 0.06 0.05 0.11 0.16 0.15 0.16 0.27 0.43 0.65 0.92 1.27 1.69 1.57 1.41 1.52 1.70 1.68 1.72 1.93 1.96 2.01 2.27 2.46 2.59 2.69 2.66 2.66 2.52 2.46
0.00 0.00 0.00 0.00 0.00 0.00 0.00 0.00 0.01 0.02 0.02 0.02 0.03 0.05 0.07 0.10 0.09 0.12 0.17 0.20 0.22 0.29 0.54 0.82 1.12 1.60 2.00 2.05 2.01 2.00 2.16 2.32 2.44 2.57 2.80 3.08 3.33 3.55 3.73 3.75 3.42 3.21 3.06 2.93
0.00 0.00 0.00 0.00 0.00 0.00 0.00 0.00 0.02 0.05 0.04 0.04 0.07 0.13 0.16 0.17 0.17 0.20 0.25 0.34 0.50 0.56 0.83 1.09 1.33 1.71 2.05 2.15 2.16 2.22 2.41 2.78 3.20 3.50 3.75 4.07 4.25 4.36 4.25 4.02 3.84 3.66 3.50 3.35
0.00 0.00 0.00 0.00 0.00 0.00 0.00 0.00 0.00 0.02 0.03 0.05 0.07 0.20 0.36 0.32 0.31 0.37 0.42 0.39 0.50 0.68 0.96 1.23 1.48 1.73 2.01 2.15 2.20 2.42 2.88 3.47 3.96 4.32 4.69 5.05 5.18 5.06 4.81 4.47 4.14 3.88 3.59 3.25
0.00 0.00 0.00 0.00 0.00 0.00 0.00 0.00 0.00 0.01 0.01 0.04 0.06 0.17 0.47 0.49 0.50 0.58 0.66 0.51 0.49 0.54 0.75 1.05 1.30 1.50 1.78 1.94 2.16 2.51 3.03 3.64 4.28 5.01 5.56 5.84 5.71 5.41 5.06 4.49 3.99 3.56 3.20 2.88
0.00 0.00 0.00 0.00 0.00 0.00 0.00 0.00 0.00 0.00 0.01 0.03 0.04 0.15 0.52 0.77 0.82 0.74 0.60 0.54 0.48 0.48 0.54 0.67 0.83 1.06 1.29 1.64 2.00 2.38 2.94 3.62 4.15 4.70 5.15 5.22 5.10 4.92 4.53 3.94 3.38 3.04 2.76 2.45
0.02 0.01 0.01 0.00 0.00 0.00 0.00 0.00 0.03 0.05 0.05 0.06 0.07 0.21 0.57 0.84 0.96 0.75 0.55 0.46 0.38 0.40 0.45 0.51 0.61 0.84 1.12 1.37 1.70 2.12 2.52 3.04 3.45 3.77 4.08 4.13 4.10 3.94 3.74 3.38 2.98 2.60 2.16 1.81
0.09 0.05 0.02 0.01 0.00 0.00 0.00 0.01 0.05 0.09 0.08 0.12 0.19 0.39 0.63 0.68 0.70 0.53 0.42 0.36 0.33 0.36 0.42 0.51 0.63 0.78 1.02 1.26 1.49 1.69 1.95 2.26 2.39 2.43 2.57 2.71 2.70 2.65 2.53 2.34 2.16 1.92 1.61 1.28
0.16 0.09 0.03 0.01 0.00 0.01 0.01 0.01 0.02 0.03 0.04 0.14 0.37 0.58 0.74 0.63 0.51 0.41 0.35 0.31 0.34 0.39 0.45 0.52 0.59 0.68 0.81 0.96 1.07 1.14 1.24 1.40 1.45 1.50 1.51 1.57 1.62 1.60 1.50 1.34 1.19 1.07 0.93 0.75
0.13 0.10 0.03 0.01 0.01 0.01 0.01 0.02 0.04 0.05 0.10 0.21 0.41 0.66 0.85 0.92 0.71 0.49 0.36 0.32 0.34 0.39 0.44 0.48 0.53 0.58 0.64 0.69 0.76 0.80 0.83 0.90 0.97 1.03 1.03 1.03 1.03 0.99 0.89 0.79 0.72 0.62 0.55 0.50
0.10 0.10 0.05 0.03 0.03 0.03 0.03 0.04 0.07 0.09 0.09 0.22 0.47 0.88 1.07 1.27 1.15 0.79 0.56 0.43 0.40 0.41 0.44 0.49 0.52 0.47 0.46 0.48 0.53 0.59 0.63 0.65 0.67 0.68 0.70 0.69 0.65 0.61 0.58 0.55 0.50 0.44 0.36 0.31
0.12 0.17 0.17 0.11 0.05 0.04 0.04 0.06 0.11 0.22 0.21 0.20 0.46 1.16 1.48 1.59 1.43 1.07 0.80 0.67 0.63 0.55 0.53 0.56 0.54 0.46 0.43 0.46 0.47 0.49 0.50 0.52 0.55 0.49 0.45 0.44 0.40 0.36 0.34 0.32 0.30 0.27 0.25 0.21
0.08 0.18 0.38 0.34 0.22 0.12 0.06 0.07 0.09 0.12 0.19 0.27 0.54 1.25 1.70 1.65 1.51 1.26 1.01 0.92 0.92 0.89 0.80 0.71 0.63 0.55 0.51 0.48 0.44 0.41 0.39 0.38 0.41 0.38 0.32 0.31 0.30 0.29 0.26 0.22 0.19 0.18 0.17 0.17
0.06 0.19 0.50 0.68 0.46 0.25 0.15 0.09 0.07 0.10 0.25 0.36 0.57 1.02 1.45 1.54 1.42 1.34 1.28 1.32 1.29 1.11 0.89 0.76 0.68 0.61 0.56 0.51 0.45 0.39 0.35 0.32 0.30 0.31 0.29 0.25 0.23 0.22 0.21 0.19 0.17 0.15 0.13 0.12
0.13 0.36 0.41 0.36 0.30 0.24 0.19 0.16 0.13 0.14 0.21 0.41 0.70 0.98 1.32 1.45 1.42 1.50 1.63 1.55 1.32 1.09 0.90 0.81 0.76 0.71 0.66 0.59 0.52 0.45 0.39 0.33 0.29 0.30 0.31 0.29 0.24 0.21 0.19 0.18 0.17 0.16 0.13 0.10
0.15 0.30 0.33 0.33 0.26 0.27 0.26 0.29 0.28 0.27 0.33 0.54 0.79 1.18 1.54 1.65 1.68 1.62 1.61 1.59 1.49 1.29 1.11 0.97 0.87 0.79 0.74 0.69 0.64 0.60 0.54 0.49 0.40 0.36 0.36 0.35 0.30 0.24 0.20 0.16 0.13 0.11 0.08 0.05
0.14 0.26 0.46 0.45 0.27 0.37 0.52 0.45 0.36 0.37 0.46 0.64 0.80 1.01 1.27 1.37 1.44 1.53 1.61 1.64 1.60 1.46 1.29 1.14 1.09 1.03 0.97 0.88 0.81 0.74 0.64 0.52 0.42 0.36 0.32 0.28 0.24 0.21 0.16 0.11 0.08 0.07 0.06 0.05
0.11 0.21 0.34 0.37 0.42 0.65 0.53 0.36 0.33 0.37 0.48 0.52 0.59 0.70 0.91 1.06 1.20 1.39 1.54 1.65 1.66 1.52 1.42 1.33 1.23 1.12 1.04 0.92 0.77 0.59 0.46 0.39 0.32 0.28 0.23 0.18 0.14 0.11 0.09 0.07 0.07 0.07 0.08 0.07
0.06 0.15 0.27 0.35 0.51 0.61 0.53 0.32 0.28 0.41 0.52 0.47 0.47 0.49 0.56 0.66 0.81 1.15 1.27 1.31 1.41 1.39 1.31 1.24 1.15 1.06 0.94 0.77 0.57 0.42 0.33 0.29 0.25 0.22 0.18 0.13 0.09 0.08 0.08 0.08 0.08 0.08 0.10 0.09
0.04 0.10 0.22 0.33 0.53 0.68 0.63 0.25 0.14 0.30 0.65 0.57 0.50 0.47 0.51 0.65 0.76 0.80 0.83 0.84 0.90 0.98 1.00 0.99 0.91 0.80 0.68 0.51 0.37 0.30 0.26 0.23 0.20 0.16 0.13 0.09 0.08 0.09 0.09 0.09 0.09 0.09 0.10 0.10
0.15 0.16 0.25 0.36 0.52 0.60 0.32 0.17 0.25 0.58 0.75 0.60 0.50 0.54 0.67 0.80 0.70 0.50 0.46 0.59 0.67 0.72 0.76 0.73 0.66 0.59 0.48 0.35 0.28 0.28 0.24 0.21 0.16 0.11 0.09 0.08 0.07 0.07 0.07 0.10 0.12 0.11 0.10 0.10
0.20 0.26 0.34 0.39 0.54 0.59 0.22 0.22 0.41 0.50 0.38 0.34 0.36 0.40 0.43 0.41 0.37 0.32 0.31 0.39 0.48 0.56 0.59 0.55 0.48 0.41 0.33 0.27 0.26 0.25 0.23 0.17 0.13 0.12 0.11 0.10 0.08 0.05 0.05 0.11 0.14 0.11 0.11 0.12
0.09 0.16 0.25 0.35 0.47 0.37 0.16 0.17 0.20 0.21 0.24 0.23 0.27 0.29 0.24 0.24 0.27 0.26 0.27 0.32 0.38 0.39 0.39 0.35 0.30 0.28 0.27 0.25 0.25 0.24 0.18 0.12 0.10 0.12 0.13 0.11 0.07 0.06 0.05 0.08 0.11 0.09 0.10 0.10
0.08 0.05 0.08 0.15 0.22 0.19 0.15 0.15 0.15 0.16 0.19 0.20 0.22 0.25 0.21 0.17 0.15 0.18 0.26 0.33 0.34 0.32 0.27 0.25 0.24 0.25 0.25 0.24 0.23 0.22 0.15 0.13 0.15 0.17 0.15 0.12 0.10 0.08 0.06 0.04 0.03 0.04 0.05 0.05
0.09 0.04 0.05 0.13 0.18 0.19 0.22 0.20 0.17 0.17 0.17 0.18 0.21 0.25 0.21 0.15 0.13 0.16 0.23 0.26 0.28 0.27 0.26 0.27 0.31 0.30 0.23 0.19 0.18 0.16 0.14 0.14 0.19 0.20 0.16 0.13 0.11 0.08 0.08 0.06 0.03 0.02 0.02 0.01
0.04 0.04 0.08 0.16 0.18 0.22 0.28 0.20 0.16 0.22 0.27 0.30 0.29 0.24 0.19 0.16 0.14 0.15 0.18 0.20 0.21 0.23 0.25 0.28 0.27 0.22 0.16 0.13 0.12 0.09 0.08 0.09 0.14 0.15 0.13 0.10 0.08 0.07 0.05 0.07 0.07 0.02 0.01 0.01

GEFSCGP_prec_meanprecacc_096.txt.gz
Total_Precipitation_Accumulation
0.00 0.00 0.00 0.00 0.00 0.00 0.00 0.00 0.00 0.00 0.00 0.01 0.03 0.05 0.06 0.07 0.07 0.14 0.19 0.17 0.20 0.31 0.47 0.70 1.01 1.41 1.91 1.85 1.70 1.78 1.94 1.93 1.93 2.16 2.22 2.31 2.61 2.88 3.07 3.15 3.08 3.04 2.94 2.94
0.00 0.00 0.00 0.00 0.00 0.00 0.00 0.00 0.01 0.02 0.02 0.02 0.05 0.07 0.08 0.11 0.11 0.18 0.24 0.30 0.33 0.39 0.60 0.87 1.20 1.72 2.15 2.29 2.29 2.23 2.38 2.55 2.67 2.83 3.13 3.46 3.73 3.97 4.19 4.22 3.82 3.58 3.44 3.33
0.00 0.00 0.00 0.00 0.00 0.00 0.00 0.00 0.02 0.05 0.04 0.04 0.08 0.15 0.18 0.20 0.21 0.28 0.41 0.53 0.68 0.68 0.89 1.15 1.40 1.81 2.17 2.31 2.42 2.49 2.65 3.00 3.44 3.77 4.08 4.46 4.70 4.83 4.67 4.43 4.26 4.05 3.86 3.70
0.00 0.00 0.00 0.00 0.00 0.00 0.00 0.00 0.00 0.02 0.03 0.06 0.08 0.22 0.39 0.38 0.37 0.46 0.59 0.56 0.64 0.81 1.05 1.30 1.57 1.85 2.14 2.31 2.40 2.66 3.13 3.72 4.23 4.61 5.00 5.46 5.64 5.48 5.19 4.81 4.44 4.15 3.83 3.47
0.00 0.00 0.00 0.00 0.01 0.01 0.00 0.00 0.01 0.01 0.01 0.05 0.06 0.18 0.51 0.57 0.57 0.65 0.79 0.66 0.61 0.64 0.85 1.12 1.36 1.59 1.91 2.08 2.31 2.65 3.21 3.89 4.59 5.31 5.86 6.17 6.09 5.79 5.42 4.80 4.27 3.79 3.40 3.07
0.00 0.00 0.01 0.01 0.01 0.00 0.00 0.00 0.00 0.01 0.01 0.03 0.05 0.17 0.55 0.82 0.89 0.84 0.71 0.63 0.57 0.55 0.61 0.73 0.88 1.10 1.36 1.71 2.07 2.46 3.05 3.76 4.40 5.01 5.44 5.49 5.37 5.17 4.76 4.14 3.57 3.22 2.91 2.58
0.02 0.02 0.02 0.01 0.01 0.01 0.01 0.01 0.04 0.05 0.06 0.07 0.09 0.24 0.62 0.90 1.05 0.86 0.67 0.56 0.45 0.44 0.47 0.53 0.63 0.86 1.14 1.39 1.74 2.17 2.61 3.17 3.61 3.97 4.33 4.39 4.34 4.15 3.91 3.51 3.09 2.70 2.26 1.92
0.09 0.06 0.03 0.01 0.01 0.01 0.01 0.01 0.06 0.10 0.10 0.14 0.22 0.44 0.75 0.80 0.85 0.70 0.58 0.50 0.44 0.43 0.45 0.52 0.64 0.79 1.04 1.28 1.52 1.73 2.01 2.35 2.51 2.57 2.75 2.91 2.88 2.85 2.73 2.48 2.26 2.01 1.68 1.35
0.16 0.09 0.03 0.01 0.01 0.01 0.01 0.01 0.02 0.04 0.05 0.17 0.41 0.66 0.91 0.79 0.69 0.62 0.61 0.52 0.46 0.46 0.48 0.53 0.61 0.69 0.82 0.97 1.08 1.17 1.29 1.46 1.53 1.60 1.61 1.67 1.72 1.73 1.65 1.48 1.30 1.14 0.98 0.81
0.13 0.10 0.04 0.02 0.02 0.02 0.03 0.03 0.04 0.08 0.14 0.26 0.47 0.75 1.02 1.06 0.93 0.75 0.60 0.48 0.40 0.43 0.46 0.49 0.54 0.59 0.65 0.70 0.77 0.82 0.85 0.94 1.04 1.09 1.09 1.09 1.08 1.04 0.95 0.85 0.76 0.66 0.58 0.52
0.11 0.11 0.06 0.03 0.04 0.04 0.05 0.05 0.08 0.12 0.12 0.28 0.54 0.98 1.18 1.37 1.33 0.96 0.68 0.53 0.45 0.44 0.45 0.51 0.53 0.48 0.47 0.49 0.55 0.61 0.65 0.69 0.72 0.74 0.77 0.76 0.71 0.66 0.62 0.58 0.53 0.46 0.38 0.32
0.14 0.18 0.18 0.12 0.07 0.06 0.05 0.07 0.13 0.26 0.26 0.25 0.53 1.24 1.55 1.67 1.57 1.22 0.90 0.73 0.67 0.57 0.55 0.57 0.55 0.48 0.45 0.48 0.49 0.51 0.52 0.55 0.60 0.54 0.50 0.51 0.46 0.42 0.39 0.36 0.32 0.28 0.25 0.21
0.10 0.19 0.40 0.36 0.25 0.14 0.08 0.09 0.11 0.15 0.23 0.33 0.62 1.33 1.76 1.73 1.65 1.38 1.10 0.99 0.97 0.90 0.82 0.73 0.64 0.57 0.54 0.51 0.47 0.44 0.41 0.41 0.45 0.43 0.37 0.36 0.35 0.33 0.30 0.25 0.21 0.19 0.18 0.18
0.09 0.22 0.54 0.72 0.49 0.29 0.19 0.12 0.09 0.13 0.29 0.40 0.63 1.09 1.51 1.62 1.57 1.46 1.39 1.41 1.34 1.14 0.91 0.77 0.70 0.64 0.60 0.56 0.50 0.44 0.40 0.36 0.35 0.36 0.34 0.29 0.26 0.25 0.23 0.21 0.19 0.16 0.14 0.13
0.16 0.39 0.44 0.39 0.32 0.27 0.22 0.20 0.16 0.16 0.23 0.43 0.73 1.03 1.37 1.54 1.53 1.56 1.67 1.61 1.36 1.11 0.92 0.82 0.78 0.74 0.70 0.64 0.58 0.49 0.42 0.37 0.34 0.35 0.36 0.32 0.26 0.22 0.20 0.19 0.19 0.17 0.14 0.10
0.21 0.36 0.37 0.35 0.28 0.29 0.28 0.31 0.31 0.29 0.35 0.56 0.82 1.23 1.58 1.70 1.73 1.65 1.63 1.61 1.50 1.30 1.12 0.98 0.89 0.82 0.78 0.72 0.67 0.63 0.58 0.53 0.44 0.40 0.41 0.38 0.32 0.26 0.21 0.17 0.14 0.11 0.08 0.05
0.20 0.33 0.53 0.50 0.29 0.40 0.56 0.48 0.40 0.41 0.49 0.66 0.83 1.04 1.29 1.40 1.47 1.54 1.62 1.65 1.61 1.47 1.30 1.16 1.11 1.05 1.00 0.91 0.84 0.77 0.66 0.56 0.47 0.39 0.34 0.31 0.27 0.23 0.18 0.13 0.10 0.08 0.07 0.06
0.14 0.28 0.42 0.43 0.47 0.73 0.60 0.41 0.37 0.41 0.50 0.53 0.61 0.72 0.95 1.09 1.22 1.41 1.55 1.66 1.68 1.54 1.45 1.36 1.25 1.14 1.07 0.95 0.80 0.61 0.48 0.40 0.35 0.30 0.26 0.21 0.17 0.14 0.11 0.09 0.08 0.09 0.09 0.08
0.07 0.19 0.34 0.42 0.59 0.69 0.61 0.36 0.32 0.45 0.56 0.48 0.49 0.51 0.59 0.69 0.83 1.17 1.29 1.32 1.42 1.42 1.35 1.27 1.17 1.09 0.97 0.79 0.60 0.45 0.36 0.31 0.27 0.24 0.21 0.15 0.11 0.10 0.10 0.09 0.08 0.09 0.10 0.10
0.06 0.14 0.30 0.43 0.66 0.79 0.72 0.29 0.18 0.33 0.69 0.60 0.53 0.53 0.57 0.68 0.77 0.82 0.85 0.85 0.92 1.01 1.04 1.04 0.94 0.83 0.71 0.54 0.40 0.33 0.28 0.25 0.22 0.18 0.14 0.11 0.09 0.10 0.10 0.10 0.10 0.10 0.11 0.11
0.20 0.22 0.36 0.49 0.66 0.73 0.39 0.21 0.27 0.61 0.78 0.63 0.53 0.58 0.71 0.82 0.72 0.51 0.47 0.59 0.68 0.75 0.80 0.77 0.70 0.63 0.51 0.38 0.31 0.30 0.26 0.23 0.18 0.12 0.11 0.09 0.08 0.08 0.08 0.10 0.12 0.11 0.11 0.11
0.30 0.37 0.46 0.50 0.66 0.70 0.26 0.24 0.45 0.53 0.40 0.35 0.38 0.42 0.44 0.42 0.37 0.32 0.32 0.40 0.50 0.59 0.63 0.59 0.51 0.44 0.36 0.30 0.28 0.27 0.24 0.18 0.14 0.12 0.12 0.11 0.09 0.05 0.06 0.12 0.14 0.11 0.12 0.13
0.26 0.32 0.37 0.45 0.56 0.41 0.18 0.19 0.21 0.21 0.25 0.24 0.29 0.30 0.24 0.24 0.27 0.27 0.28 0.34 0.41 0.43 0.43 0.39 0.33 0.30 0.29 0.26 0.26 0.25 0.19 0.12 0.10 0.12 0.14 0.12 0.08 0.06 0.05 0.08 0.11 0.10 0.11 0.10
0.28 0.18 0.19 0.24 0.29 0.22 0.17 0.16 0.15 0.17 0.20 0.21 0.23 0.26 0.22 0.17 0.15 0.19 0.27 0.35 0.38 0.35 0.30 0.28 0.27 0.27 0.27 0.26 0.25 0.23 0.16 0.14 0.15 0.18 0.16 0.12 0.10 0.08 0.06 0.05 0.04 0.04 0.05 0.06
0.32 0.17 0.18 0.23 0.25 0.22 0.24 0.21 0.17 0.18 0.18 0.19 0.22 0.26 0.22 0.15 0.13 0.17 0.25 0.28 0.30 0.30 0.29 0.30 0.34 0.32 0.26 0.21 0.20 0.17 0.15 0.15 0.20 0.21 0.16 0.13 0.11 0.08 0.08 0.06 0.03 0.02 0.02 0.01
0.22 0.21 0.20 0.25 0.24 0.26 0.30 0.21 0.17 0.22 0.28 0.31 0.30 0.25 0.19 0.16 0.15 0.17 0.20 0.21 0.23 0.26 0.28 0.32 0.30 0.25 0.18 0.14 0.14 0.11 0.09 0.09 0.14 0.16 0.13 0.10 0.08 0.07 0.05 0.07 0.07 0.02 0.01 0.01

GEFSCGP_prec_meanprecacc_102.txt.gz
Total_Precipitation_Accumulation
0.00 0.00 0.00 0.00 0.00 0.00 0.00 0.00 0.00 0.01 0.00 0.01 0.04 0.06 0.07 0.08 0.08 0.15 0.20 0.18 0.20 0.32 0.48 0.71 1.04 1.45 1.96 1.92 1.80 1.93 2.14 2.17 2.22 2.46 2.54 2.61 2.91 3.15 3.32 3.41 3.35 3.32 3.22 3.24
0.00 0.00 0.00 0.00 0.00 0.00 0.00 0.00 0.01 0.03 0.02 0.02 0.06 0.08 0.10 0.12 0.13 0.19 0.25 0.31 0.34 0.40 0.62 0.90 1.23 1.76 2.21 2.37 2.39 2.39 2.59 2.80 2.95 3.13 3.45 3.78 4.07 4.29 4.45 4.49 4.07 3.86 3.75 3.68
0.00 0.00 0.00 0.00 0.00 0.00 0.00 0.00 0.02 0.05 0.04 0.04 0.08 0.16 0.19 0.22 0.22 0.29 0.42 0.55 0.71 0.70 0.92 1.17 1.43 1.85 2.21 2.37 2.50 2.60 2.82 3.22 3.66 4.01 4.37 4.77 4.99 5.09 4.89 4.64 4.51 4.36 4.23 4.12
0.00 0.00 0.00 0.00 0.00 0.00 0.00 0.00 0.00 0.02 0.04 0.06 0.09 0.22 0.40 0.39 0.39 0.48 0.61 0.59 0.67 0.83 1.08 1.33 1.61 1.90 2.18 2.35 2.45 2.73 3.23 3.86 4.40 4.82 5.25 5.72 5.87 5.71 5.40 5.00 4.66 4.43 4.16 3.83
0.00 0.00 0.00 0.00 0.01 0.01 0.01 0.00 0.01 0.01 0.01 0.05 0.07 0.18 0.52 0.58 0.58 0.67 0.80 0.68 0.64 0.67 0.88 1.18 1.43 1.66 1.96 2.12 2.35 2.71 3.28 3.99 4.71 5.47 6.06 6.41 6.33 6.01 5.62 4.99 4.44 3.97 3.61 3.31
0.00 0.00 0.01 0.01 0.01 0.00 0.00 0.00 0.01 0.01 0.01 0.03 0.05 0.17 0.55 0.83 0.89 0.84 0.72 0.65 0.59 0.59 0.66 0.79 0.94 1.15 1.39 1.74 2.10 2.51 3.10 3.82 4.50 5.15 5.64 5.72 5.61 5.41 4.97 4.32 3.73 3.38 3.08 2.77
0.02 0.02 0.02 0.01 0.01 0.01 0.01 0.01 0.04 0.05 0.06 0.07 0.09 0.24 0.62 0.90 1.05 0.87 0.68 0.58 0.48 0.49 0.52 0.57 0.66 0.89 1.17 1.42 1.77 2.20 2.65 3.22 3.68 4.05 4.45 4.55 4.51 4.35 4.09 3.66 3.24 2.86 2.40 2.07
0.09 0.06 0.03 0.01 0.01 0.01 0.01 0.01 0.06 0.10 0.10 0.14 0.22 0.44 0.75 0.80 0.85 0.71 0.59 0.52 0.47 0.47 0.50 0.56 0.66 0.81 1.06 1.30 1.54 1.75 2.03 2.38 2.55 2.61 2.81 2.99 2.98 2.99 2.90 2.64 2.41 2.15 1.81 1.49
0.16 0.10 0.04 0.02 0.01 0.02 0.02 0.02 0.03 0.05 0.05 0.17 0.41 0.67 0.91 0.79 0.69 0.63 0.63 0.54 0.49 0.49 0.51 0.55 0.62 0.69 0.83 0.99 1.10 1.19 1.32 1.49 1.56 1.64 1.66 1.72 1.78 1.80 1.74 1.63 1.45 1.27 1.11 0.92
0.13 0.11 0.04 0.02 0.02 0.03 0.03 0.04 0.05 0.08 0.14 0.26 0.47 0.75 1.02 1.06 0.93 0.76 0.63 0.50 0.43 0.44 0.47 0.50 0.55 0.60 0.65 0.71 0.78 0.83 0.87 0.97 1.07 1.13 1.14 1.14 1.13 1.09 1.00 0.93 0.87 0.76 0.66 0.59
0.11 0.11 0.06 0.04 0.04 0.05 0.05 0.06 0.09 0.12 0.13 0.28 0.54 0.98 1.18 1.37 1.33 0.96 0.69 0.54 0.46 0.45 0.46 0.51 0.53 0.48 0.47 0.50 0.56 0.62 0.66 0.70 0.75 0.78 0.81 0.81 0.77 0.72 0.67 0.63 0.59 0.52 0.42 0.35
0.14 0.19 0.18 0.12 0.08 0.06 0.06 0.08 0.13 0.26 0.27 0.26 0.53 1.24 1.55 1.68 1.58 1.23 0.91 0.74 0.68 0.58 0.55 0.58 0.55 0.48 0.45 0.49 0.50 0.52 0.54 0.57 0.62 0.58 0.56 0.58 0.54 0.48 0.45 0.42 0.37 0.33 0.30 0.24
0.11 0.21 0.41 0.36 0.25 0.15 0.09 0.10 0.12 0.16 0.23 0.33 0.62 1.33 1.77 1.73 1.65 1.39 1.10 1.00 0.97 0.91 0.82 0.73 0.64 0.58 0.54 0.52 0.48 0.45 0.43 0.43 0.47 0.47 0.44 0.45 0.44 0.41 0.36 0.31 0.26 0.22 0.21 0.20
0.10 0.24 0.55 0.73 0.50 0.30 0.20 0.13 0.11 0.14 0.30 0.40 0.63 1.09 1.51 1.63 1.57 1.47 1.40 1.42 1.36 1.15 0.92 0.78 0.70 0.64 0.61 0.57 0.51 0.46 0.42 0.38 0.38 0.40 0.39 0.36 0.34 0.33 0.31 0.27 0.24 0.21 0.16 0.14
0.19 0.43 0.46 0.40 0.33 0.29 0.23 0.21 0.17 0.18 0.24 0.44 0.74 1.04 1.38 1.55 1.53 1.56 1.68 1.62 1.38 1.13 0.94 0.83 0.79 0.74 0.71 0.65 0.59 0.51 0.44 0.39 0.36 0.38 0.41 0.38 0.32 0.28 0.26 0.23 0.21 0.19 0.16 0.12
0.23 0.38 0.39 0.36 0.29 0.30 0.29 0.32 0.32 0.31 0.37 0.58 0.83 1.23 1.59 1.70 1.73 1.66 1.64 1.62 1.51 1.31 1.13 0.99 0.89 0.82 0.79 0.73 0.69 0.65 0.60 0.55 0.47 0.44 0.46 0.43 0.37 0.31 0.26 0.21 0.16 0.13 0.10 0.06
0.21 0.34 0.54 0.51 0.30 0.41 0.56 0.49 0.41 0.42 0.51 0.68 0.84 1.05 1.29 1.40 1.48 1.55 1.63 1.66 1.62 1.48 1.31 1.17 1.11 1.06 1.01 0.93 0.86 0.79 0.68 0.58 0.49 0.43 0.40 0.38 0.32 0.27 0.22 0.16 0.12 0.10 0.09 0.07
0.15 0.29 0.43 0.43 0.47 0.74 0.61 0.42 0.38 0.42 0.51 0.54 0.62 0.73 0.95 1.10 1.23 1.41 1.56 1.67 1.69 1.56 1.47 1.38 1.26 1.15 1.08 0.96 0.81 0.63 0.50 0.43 0.38 0.34 0.30 0.26 0.21 0.18 0.14 0.11 0.10 0.10 0.10 0.09
0.07 0.19 0.35 0.43 0.59 0.69 0.61 0.37 0.33 0.46 0.56 0.49 0.49 0.52 0.60 0.69 0.84 1.19 1.30 1.33 1.44 1.44 1.37 1.29 1.19 1.10 0.98 0.80 0.61 0.46 0.38 0.33 0.29 0.27 0.24 0.18 0.13 0.12 0.12 0.10 0.09 0.09 0.11 0.11
0.06 0.14 0.31 0.44 0.66 0.80 0.72 0.30 0.19 0.34 0.69 0.60 0.53 0.53 0.57 0.69 0.78 0.83 0.86 0.86 0.93 1.02 1.06 1.06 0.96 0.85 0.73 0.56 0.41 0.35 0.31 0.28 0.25 0.21 0.17 0.13 0.11 0.11 0.11 0.11 0.10 0.10 0.11 0.12
0.20 0.23 0.38 0.50 0.67 0.74 0.40 0.22 0.28 0.62 0.79 0.63 0.53 0.58 0.71 0.82 0.72 0.51 0.48 0.60 0.70 0.76 0.81 0.80 0.73 0.66 0.54 0.40 0.34 0.33 0.30 0.26 0.20 0.14 0.13 0.12 0.10 0.09 0.09 0.11 0.13 0.12 0.11 0.12
0.31 0.38 0.47 0.51 0.67 0.71 0.26 0.25 0.47 0.54 0.40 0.35 0.38 0.42 0.44 0.42 0.37 0.33 0.32 0.40 0.51 0.62 0.66 0.63 0.56 0.50 0.42 0.34 0.32 0.30 0.27 0.21 0.16 0.15 0.15 0.13 0.10 0.06 0.06 0.12 0.15 0.12 0.12 0.13
0.28 0.34 0.40 0.47 0.57 0.42 0.19 0.21 0.22 0.22 0.25 0.24 0.29 0.30 0.24 0.24 0.28 0.28 0.29 0.36 0.43 0.46 0.46 0.44 0.38 0.34 0.34 0.31 0.30 0.28 0.21 0.15 0.12 0.14 0.16 0.13 0.09 0.07 0.06 0.08 0.11 0.11 0.12 0.11
0.29 0.20 0.21 0.25 0.30 0.24 0.18 0.17 0.16 0.17 0.20 0.21 0.23 0.26 0.22 0.18 0.15 0.19 0.28 0.37 0.40 0.38 0.33 0.32 0.31 0.31 0.31 0.28 0.26 0.24 0.18 0.16 0.17 0.19 0.18 0.13 0.11 0.09 0.06 0.05 0.04 0.05 0.06 0.06
0.34 0.18 0.19 0.25 0.26 0.23 0.25 0.22 0.18 0.18 0.18 0.19 0.22 0.26 0.22 0.15 0.14 0.17 0.25 0.29 0.32 0.32 0.30 0.32 0.37 0.36 0.29 0.24 0.21 0.19 0.17 0.16 0.21 0.22 0.17 0.14 0.11 0.09 0.08 0.06 0.03 0.03 0.03 0.02
0.24 0.23 0.22 0.27 0.26 0.27 0.31 0.22 0.18 0.23 0.28 0.31 0.30 0.25 0.19 0.16 0.15 0.17 0.20 0.22 0.24 0.27 0.30 0.34 0.33 0.28 0.20 0.17 0.16 0.12 0.10 0.10 0.15 0.16 0.13 0.10 0.08 0.07 0.05 0.07 0.07 0.03 0.01 0.01

GEFSCGP_prec_meanprecacc_108.txt.gz
Total_Precipitation_Accumulation
0.00 0.00 0.00 0.00 0.00 0.00 0.00 0.00 0.00 0.01 0.01 0.01 0.04 0.07 0.08 0.09 0.08 0.15 0.20 0.19 0.21 0.32 0.48 0.72 1.05 1.46 1.99 1.95 1.83 1.95 2.17 2.21 2.26 2.50 2.59 2.68 3.01 3.30 3.49 3.59 3.55 3.52 3.39 3.38
0.00 0.00 0.00 0.00 0.00 0.00 0.00 0.00 0.01 0.03 0.02 0.02 0.06 0.09 0.11 0.13 0.13 0.19 0.25 0.32 0.35 0.41 0.62 0.91 1.24 1.78 2.23 2.40 2.42 2.42 2.62 2.85 3.00 3.17 3.51 3.86 4.16 4.42 4.60 4.64 4.20 3.99 3.87 3.79
0.00 0.00 0.00 0.00 0.00 0.00 0.00 0.00 0.02 0.05 0.04 0.05 0.09 0.17 0.20 0.22 0.23 0.30 0.43 0.56 0.71 0.71 0.93 1.18 1.44 1.87 2.24 2.41 2.54 2.64 2.86 3.27 3.72 4.06 4.43 4.84 5.07 5.16 4.97 4.72 4.60 4.46 4.33 4.22
0.00 0.00 0.00 0.00 0.00 0.00 0.01 0.00 0.00 0.02 0.04 0.06 0.09 0.23 0.41 0.40 0.39 0.48 0.61 0.59 0.67 0.84 1.09 1.34 1.62 1.91 2.22 2.41 2.53 2.81 3.30 3.92 4.45 4.86 5.30 5.79 5.95 5.79 5.49 5.08 4.72 4.49 4.24 3.93
0.00 0.00 0.00 0.00 0.01 0.01 0.01 0.00 0.01 0.01 0.01 0.05 0.07 0.18 0.52 0.58 0.59 0.67 0.80 0.68 0.64 0.67 0.89 1.18 1.44 1.67 1.98 2.15 2.39 2.75 3.34 4.04 4.75 5.50 6.11 6.48 6.41 6.11 5.72 5.08 4.51 4.03 3.67 3.38
0.00 0.00 0.01 0.01 0.01 0.00 0.00 0.00 0.01 0.01 0.01 0.03 0.05 0.17 0.56 0.83 0.90 0.85 0.72 0.65 0.60 0.59 0.66 0.80 0.94 1.15 1.40 1.76 2.13 2.54 3.13 3.85 4.53 5.18 5.67 5.76 5.69 5.53 5.08 4.42 3.81 3.44 3.12 2.82
0.02 0.02 0.02 0.01 0.01 0.01 0.01 0.01 0.04 0.05 0.06 0.08 0.09 0.24 0.63 0.90 1.05 0.88 0.69 0.58 0.48 0.49 0.52 0.58 0.66 0.89 1.17 1.44 1.79 2.22 2.66 3.23 3.69 4.06 4.46 4.57 4.55 4.41 4.16 3.74 3.33 2.93 2.45 2.11
0.09 0.06 0.03 0.01 0.01 0.01 0.01 0.01 0.06 0.11 0.11 0.14 0.22 0.45 0.76 0.80 0.85 0.71 0.60 0.53 0.47 0.47 0.51 0.57 0.67 0.81 1.06 1.31 1.55 1.76 2.04 2.39 2.56 2.62 2.82 3.00 3.01 3.02 2.96 2.71 2.48 2.21 1.86 1.53
0.16 0.10 0.04 0.02 0.01 0.02 0.02 0.02 0.03 0.05 0.06 0.17 0.42 0.67 0.91 0.80 0.70 0.63 0.63 0.55 0.50 0.50 0.51 0.56 0.62 0.70 0.83 0.99 1.10 1.19 1.33 1.50 1.57 1.65 1.68 1.74 1.80 1.83 1.78 1.68 1.51 1.34 1.17 0.98
0.14 0.11 0.04 0.02 0.02 0.03 0.04 0.04 0.05 0.09 0.15 0.27 0.48 0.76 1.02 1.07 0.94 0.76 0.63 0.51 0.43 0.45 0.48 0.50 0.55 0.60 0.66 0.72 0.79 0.84 0.88 0.98 1.08 1.15 1.15 1.15 1.15 1.11 1.03 0.97 0.93 0.83 0.72 0.65
0.12 0.12 0.07 0.04 0.04 0.05 0.05 0.06 0.09 0.13 0.13 0.29 0.55 0.98 1.18 1.37 1.33 0.96 0.69 0.55 0.47 0.46 0.46 0.51 0.54 0.48 0.48 0.51 0.56 0.63 0.67 0.72 0.76 0.80 0.82 0.82 0.79 0.74 0.70 0.66 0.64 0.59 0.49 0.41
0.16 0.20 0.19 0.12 0.08 0.06 0.06 0.08 0.14 0.28 0.28 0.27 0.54 1.25 1.55 1.68 1.58 1.23 0.91 0.75 0.69 0.59 0.56 0.59 0.56 0.48 0.46 0.49 0.51 0.53 0.55 0.58 0.63 0.59 0.58 0.60 0.55 0.50 0.48 0.45 0.40 0.37 0.34 0.29
0.13 0.23 0.43 0.38 0.26 0.15 0.09 0.10 0.12 0.16 0.25 0.35 0.64 1.34 1.77 1.73 1.65 1.39 1.11 1.01 0.98 0.92 0.83 0.74 0.66 0.58 0.55 0.52 0.49 0.46 0.44 0.44 0.48 0.48 0.45 0.46 0.46 0.44 0.40 0.35 0.29 0.25 0.25 0.25
0.11 0.26 0.58 0.76 0.52 0.30 0.20 0.13 0.11 0.14 0.32 0.42 0.64 1.11 1.53 1.63 1.57 1.48 1.41 1.45 1.38 1.16 0.93 0.79 0.71 0.65 0.61 0.58 0.52 0.47 0.43 0.39 0.39 0.41 0.40 0.38 0.36 0.35 0.34 0.30 0.29 0.26 0.21 0.17
0.20 0.45 0.48 0.41 0.34 0.29 0.24 0.21 0.17 0.18 0.25 0.46 0.76 1.05 1.39 1.55 1.53 1.57 1.69 1.64 1.41 1.16 0.96 0.85 0.81 0.76 0.71 0.66 0.60 0.52 0.45 0.40 0.37 0.40 0.43 0.40 0.35 0.30 0.28 0.27 0.26 0.24 0.21 0.16
0.24 0.40 0.40 0.37 0.29 0.31 0.29 0.32 0.32 0.31 0.38 0.60 0.84 1.25 1.59 1.70 1.73 1.66 1.65 1.65 1.56 1.34 1.16 1.02 0.92 0.85 0.80 0.74 0.70 0.66 0.61 0.56 0.48 0.45 0.48 0.45 0.39 0.33 0.28 0.24 0.19 0.17 0.14 0.11
0.21 0.35 0.56 0.52 0.30 0.42 0.58 0.50 0.42 0.44 0.53 0.69 0.86 1.08 1.30 1.40 1.48 1.56 1.64 1.69 1.67 1.52 1.34 1.20 1.13 1.08 1.02 0.94 0.87 0.80 0.69 0.59 0.51 0.44 0.41 0.39 0.33 0.29 0.24 0.19 0.15 0.13 0.12 0.10
0.15 0.30 0.45 0.45 0.48 0.76 0.63 0.42 0.38 0.43 0.52 0.55 0.63 0.74 0.95 1.10 1.24 1.43 1.60 1.71 1.73 1.60 1.51 1.41 1.29 1.17 1.09 0.97 0.82 0.64 0.52 0.45 0.39 0.35 0.32 0.27 0.23 0.20 0.16 0.13 0.12 0.12 0.12 0.11
0.07 0.20 0.37 0.45 0.61 0.70 0.62 0.38 0.34 0.50 0.61 0.50 0.50 0.53 0.60 0.69 0.84 1.21 1.32 1.36 1.46 1.47 1.40 1.33 1.22 1.12 0.99 0.82 0.62 0.48 0.39 0.35 0.31 0.29 0.26 0.21 0.15 0.14 0.14 0.13 0.11 0.11 0.13 0.13
0.06 0.15 0.33 0.47 0.68 0.82 0.74 0.31 0.20 0.37 0.75 0.62 0.54 0.55 0.58 0.70 0.79 0.84 0.87 0.88 0.95 1.04 1.08 1.09 0.99 0.87 0.75 0.57 0.43 0.37 0.33 0.30 0.27 0.23 0.20 0.15 0.14 0.14 0.13 0.13 0.12 0.12 0.13 0.13
0.22 0.24 0.40 0.53 0.69 0.76 0.41 0.22 0.30 0.67 0.84 0.65 0.55 0.59 0.72 0.84 0.73 0.52 0.48 0.61 0.71 0.78 0.83 0.82 0.76 0.69 0.57 0.42 0.36 0.35 0.32 0.29 0.23 0.17 0.16 0.15 0.13 0.12 0.11 0.13 0.14 0.14 0.13 0.14
0.34 0.41 0.51 0.55 0.71 0.75 0.28 0.27 0.51 0.58 0.41 0.36 0.39 0.43 0.45 0.43 0.37 0.33 0.32 0.41 0.53 0.63 0.68 0.65 0.59 0.54 0.46 0.38 0.35 0.34 0.32 0.25 0.19 0.18 0.18 0.17 0.13 0.08 0.08 0.15 0.17 0.14 0.14 0.16
0.31 0.37 0.43 0.50 0.61 0.46 0.22 0.23 0.24 0.23 0.26 0.25 0.30 0.31 0.24 0.24 0.28 0.28 0.30 0.37 0.45 0.48 0.49 0.47 0.42 0.38 0.38 0.35 0.34 0.32 0.25 0.19 0.16 0.18 0.20 0.17 0.11 0.09 0.08 0.11 0.14 0.13 0.13 0.12
0.31 0.21 0.23 0.28 0.32 0.25 0.20 0.19 0.18 0.19 0.21 0.22 0.24 0.26 0.22 0.18 0.16 0.19 0.29 0.38 0.42 0.40 0.35 0.35 0.34 0.34 0.35 0.33 0.32 0.29 0.21 0.19 0.20 0.23 0.21 0.16 0.13 0.11 0.08 0.07 0.06 0.07 0.08 0.08
0.34 0.19 0.21 0.28 0.28 0.25 0.27 0.23 0.20 0.19 0.19 0.20 0.22 0.26 0.22 0.15 0.14 0.18 0.26 0.30 0.33 0.34 0.33 0.35 0.40 0.39 0.32 0.28 0.26 0.22 0.19 0.19 0.23 0.24 0.19 0.16 0.13 0.10 0.09 0.07 0.04 0.04 0.04 0.03
0.24 0.24 0.24 0.30 0.29 0.30 0.34 0.24 0.19 0.24 0.29 0.31 0.30 0.25 0.19 0.16 0.16 0.17 0.21 0.23 0.26 0.30 0.32 0.37 0.37 0.31 0.23 0.20 0.21 0.15 0.13 0.13 0.17 0.18 0.15 0.11 0.09 0.08 0.06 0.08 0.08 0.03 0.01 0.01

GEFSCGP_prec_meanprecacc_114.txt.gz
Total_Precipitation_Accumulation
0.00 0.00 0.00 0.00 0.00 0.00 0.00 0.00 0.00 0.01 0.01 0.01 0.04 0.07 0.10 0.11 0.09 0.16 0.22 0.21 0.22 0.33 0.49 0.73 1.06 1.48 2.01 1.97 1.85 1.98 2.21 2.24 2.29 2.55 2.65 2.74 3.06 3.34 3.54 3.65 3.62 3.60 3.48 3.49
0.00 0.00 0.00 0.00 0.00 0.00 0.00 0.00 0.01 0.03 0.02 0.02 0.06 0.10 0.12 0.14 0.14 0.20 0.29 0.34 0.36 0.41 0.63 0.91 1.25 1.78 2.24 2.41 2.44 2.45 2.66 2.89 3.04 3.22 3.56 3.91 4.21 4.45 4.64 4.69 4.27 4.06 3.95 3.88
0.00 0.00 0.00 0.00 0.00 0.00 0.00 0.00 0.02 0.05 0.04 0.05 0.09 0.19 0.23 0.23 0.26 0.32 0.44 0.57 0.71 0.71 0.93 1.19 1.45 1.87 2.25 2.42 2.55 2.65 2.88 3.30 3.75 4.09 4.48 4.89 5.11 5.21 5.02 4.76 4.64 4.50 4.38 4.26
0.00 0.00 0.00 0.00 0.00 0.00 0.01 0.01 0.01 0.02 0.04 0.07 0.10 0.25 0.45 0.43 0.44 0.51 0.62 0.60 0.67 0.84 1.09 1.34 1.62 1.91 2.22 2.42 2.53 2.81 3.31 3.94 4.48 4.89 5.35 5.84 5.99 5.83 5.53 5.12 4.76 4.53 4.27 3.96
0.00 0.00 0.00 0.00 0.01 0.01 0.01 0.01 0.01 0.01 0.01 0.05 0.08 0.21 0.60 0.67 0.66 0.71 0.82 0.70 0.65 0.68 0.89 1.18 1.44 1.67 1.98 2.15 2.39 2.76 3.35 4.05 4.77 5.53 6.14 6.52 6.46 6.16 5.77 5.14 4.56 4.07 3.71 3.41
0.00 0.00 0.01 0.01 0.01 0.00 0.00 0.00 0.01 0.01 0.01 0.04 0.06 0.19 0.62 0.94 1.02 0.98 0.78 0.68 0.61 0.59 0.66 0.80 0.94 1.15 1.40 1.76 2.13 2.55 3.14 3.86 4.54 5.20 5.70 5.80 5.72 5.57 5.12 4.46 3.86 3.49 3.17 2.86
0.02 0.02 0.02 0.01 0.01 0.01 0.01 0.02 0.07 0.10 0.13 0.11 0.10 0.26 0.68 1.00 1.15 1.00 0.76 0.62 0.50 0.49 0.53 0.58 0.67 0.89 1.17 1.45 1.79 2.23 2.67 3.24 3.70 4.07 4.47 4.58 4.58 4.45 4.20 3.79 3.39 2.99 2.51 2.17
0.10 0.07 0.03 0.01 0.01 0.02 0.01 0.02 0.10 0.19 0.17 0.21 0.27 0.51 0.87 0.91 0.91 0.76 0.64 0.57 0.49 0.48 0.51 0.57 0.67 0.81 1.06 1.31 1.55 1.77 2.05 2.40 2.56 2.63 2.83 3.01 3.02 3.05 2.98 2.74 2.51 2.25 1.91 1.59
0.17 0.11 0.04 0.02 0.01 0.02 0.02 0.02 0.04 0.07 0.08 0.22 0.48 0.74 1.03 0.86 0.73 0.66 0.65 0.57 0.51 0.51 0.51 0.56 0.62 0.70 0.83 0.99 1.11 1.20 1.33 1.50 1.58 1.66 1.68 1.75 1.82 1.84 1.80 1.70 1.53 1.35 1.19 1.00
0.16 0.12 0.05 0.02 0.02 0.03 0.04 0.04 0.06 0.10 0.20 0.36 0.56 0.86 1.18 1.17 0.98 0.78 0.64 0.52 0.44 0.45 0.48 0.50 0.55 0.60 0.66 0.72 0.79 0.84 0.88 0.99 1.09 1.15 1.16 1.16 1.16 1.12 1.04 0.98 0.94 0.85 0.75 0.68
0.15 0.15 0.08 0.04 0.04 0.06 0.06 0.06 0.09 0.14 0.16 0.34 0.64 1.11 1.30 1.50 1.41 0.99 0.70 0.55 0.47 0.46 0.47 0.51 0.54 0.48 0.48 0.51 0.57 0.63 0.68 0.72 0.77 0.81 0.84 0.84 0.80 0.75 0.70 0.67 0.65 0.60 0.51 0.44
0.18 0.23 0.21 0.13 0.08 0.07 0.06 0.08 0.14 0.31 0.32 0.30 0.62 1.37 1.61 1.78 1.67 1.27 0.94 0.76 0.69 0.59 0.56 0.59 0.56 0.49 0.46 0.49 0.51 0.54 0.56 0.59 0.64 0.60 0.60 0.64 0.58 0.52 0.49 0.46 0.41 0.38 0.36 0.32
0.16 0.28 0.50 0.46 0.33 0.17 0.10 0.11 0.13 0.17 0.27 0.38 0.73 1.49 1.83 1.80 1.72 1.44 1.15 1.02 0.99 0.92 0.83 0.74 0.66 0.59 0.56 0.53 0.50 0.47 0.44 0.45 0.49 0.48 0.46 0.48 0.47 0.45 0.41 0.36 0.31 0.27 0.27 0.27
0.13 0.31 0.66 0.89 0.65 0.37 0.24 0.15 0.12 0.15 0.36 0.47 0.71 1.22 1.62 1.71 1.66 1.55 1.45 1.46 1.39 1.17 0.94 0.80 0.72 0.65 0.61 0.58 0.53 0.48 0.44 0.40 0.39 0.41 0.40 0.38 0.37 0.36 0.35 0.31 0.30 0.28 0.23 0.19
0.21 0.50 0.52 0.44 0.37 0.32 0.26 0.24 0.19 0.19 0.26 0.48 0.79 1.11 1.47 1.64 1.63 1.64 1.76 1.67 1.42 1.17 0.96 0.86 0.81 0.77 0.72 0.67 0.61 0.53 0.46 0.41 0.37 0.40 0.43 0.41 0.36 0.31 0.29 0.28 0.26 0.25 0.22 0.18
0.26 0.45 0.43 0.39 0.30 0.31 0.30 0.32 0.33 0.31 0.38 0.61 0.87 1.31 1.65 1.76 1.77 1.70 1.72 1.70 1.57 1.35 1.17 1.03 0.93 0.86 0.81 0.75 0.71 0.67 0.62 0.57 0.48 0.45 0.48 0.46 0.41 0.35 0.30 0.25 0.20 0.18 0.16 0.13
0.24 0.39 0.60 0.55 0.31 0.44 0.62 0.52 0.43 0.44 0.53 0.70 0.92 1.17 1.38 1.45 1.53 1.61 1.68 1.72 1.69 1.54 1.36 1.22 1.15 1.09 1.03 0.95 0.88 0.81 0.70 0.60 0.51 0.45 0.42 0.41 0.35 0.31 0.26 0.21 0.17 0.15 0.15 0.14
0.17 0.34 0.50 0.49 0.53 0.84 0.68 0.43 0.39 0.44 0.54 0.57 0.68 0.79 1.00 1.13 1.28 1.48 1.63 1.73 1.75 1.61 1.52 1.43 1.31 1.19 1.11 0.99 0.84 0.66 0.53 0.46 0.40 0.36 0.33 0.28 0.25 0.23 0.19 0.16 0.15 0.15 0.15 0.15
0.08 0.22 0.41 0.51 0.71 0.80 0.71 0.41 0.35 0.54 0.68 0.52 0.54 0.57 0.63 0.71 0.86 1.23 1.36 1.40 1.49 1.48 1.41 1.34 1.24 1.15 1.01 0.84 0.64 0.49 0.41 0.36 0.32 0.30 0.29 0.23 0.18 0.18 0.18 0.16 0.15 0.16 0.18 0.18
0.07 0.16 0.38 0.54 0.79 0.95 0.87 0.35 0.20 0.40 0.87 0.66 0.58 0.58 0.61 0.74 0.85 0.88 0.91 0.91 0.97 1.07 1.10 1.11 1.02 0.91 0.78 0.61 0.46 0.40 0.36 0.33 0.30 0.25 0.22 0.18 0.17 0.17 0.16 0.16 0.16 0.16 0.18 0.18
0.26 0.30 0.47 0.62 0.80 0.88 0.47 0.23 0.32 0.77 0.98 0.73 0.59 0.63 0.76 0.90 0.79 0.56 0.52 0.64 0.74 0.80 0.85 0.84 0.79 0.73 0.61 0.46 0.41 0.41 0.37 0.33 0.25 0.18 0.18 0.17 0.17 0.15 0.14 0.17 0.19 0.18 0.17 0.17
0.42 0.52 0.62 0.67 0.84 0.90 0.35 0.31 0.57 0.66 0.49 0.42 0.43 0.46 0.49 0.46 0.39 0.34 0.36 0.44 0.55 0.64 0.69 0.67 0.62 0.58 0.51 0.43 0.42 0.42 0.38 0.28 0.22 0.21 0.21 0.20 0.17 0.11 0.11 0.19 0.22 0.18 0.18 0.19
0.37 0.47 0.55 0.63 0.76 0.57 0.28 0.28 0.28 0.27 0.32 0.31 0.33 0.34 0.27 0.25 0.29 0.29 0.32 0.39 0.47 0.49 0.50 0.49 0.45 0.42 0.43 0.41 0.42 0.40 0.31 0.22 0.19 0.22 0.24 0.21 0.15 0.13 0.13 0.16 0.19 0.17 0.17 0.16
0.36 0.24 0.31 0.39 0.43 0.31 0.23 0.22 0.22 0.24 0.25 0.24 0.25 0.27 0.24 0.19 0.16 0.20 0.30 0.40 0.43 0.41 0.37 0.38 0.38 0.38 0.40 0.39 0.38 0.35 0.26 0.23 0.24 0.27 0.24 0.20 0.18 0.16 0.14 0.13 0.11 0.11 0.12 0.11
0.37 0.21 0.27 0.37 0.37 0.31 0.32 0.27 0.24 0.23 0.21 0.21 0.23 0.27 0.23 0.16 0.15 0.18 0.27 0.32 0.35 0.36 0.36 0.39 0.45 0.43 0.36 0.32 0.30 0.25 0.23 0.25 0.29 0.28 0.23 0.20 0.17 0.14 0.13 0.10 0.07 0.07 0.06 0.04
0.26 0.27 0.30 0.38 0.35 0.35 0.38 0.26 0.21 0.25 0.31 0.33 0.32 0.26 0.20 0.18 0.17 0.18 0.22 0.25 0.28 0.32 0.36 0.41 0.42 0.35 0.26 0.23 0.24 0.18 0.16 0.19 0.24 0.23 0.19 0.14 0.11 0.10 0.08 0.09 0.08 0.03 0.01 0.01

GEFSCGP_prec_meanprecacc_120.txt.gz
Total_Precipitation_Accumulation
0.00 0.00 0.00 0.00 0.00 0.00 0.00 0.00 0.01 0.01 0.01 0.01 0.04 0.08 0.13 0.16 0.18 0.26 0.33 0.31 0.28 0.39 0.53 0.75 1.09 1.58 2.11 2.09 1.98 2.10 2.33 2.34 2.38 2.63 2.73 2.82 3.12 3.40 3.61 3.72 3.70 3.66 3.52 3.52
0.00 0.00 0.00 0.00 0.00 0.00 0.00 0.00 0.01 0.03 0.02 0.03 0.07 0.12 0.16 0.21 0.23 0.30 0.38 0.41 0.39 0.43 0.64 0.92 1.27 1.81 2.28 2.46 2.50 2.51 2.71 2.94 3.09 3.28 3.62 3.95 4.26 4.51 4.69 4.74 4.32 4.11 3.99 3.91
0.00 0.00 0.00 0.00 0.00 0.00 0.01 0.01 0.02 0.06 0.05 0.06 0.11 0.23 0.29 0.32 0.34 0.44 0.60 0.68 0.75 0.73 0.95 1.20 1.46 1.88 2.26 2.44 2.58 2.67 2.91 3.32 3.78 4.12 4.51 4.93 5.17 5.26 5.06 4.80 4.68 4.54 4.41 4.29
0.00 0.00 0.00 0.00 0.00 0.01 0.01 0.01 0.01 0.02 0.04 0.08 0.12 0.29 0.52 0.53 0.53 0.63 0.77 0.71 0.73 0.87 1.11 1.36 1.63 1.92 2.23 2.43 2.54 2.82 3.32 3.95 4.49 4.90 5.37 5.87 6.03 5.87 5.57 5.17 4.81 4.57 4.33 4.00
0.00 0.00 0.00 0.00 0.01 0.01 0.01 0.01 0.01 0.01 0.02 0.06 0.10 0.25 0.67 0.78 0.78 0.86 0.99 0.85 0.78 0.75 0.92 1.20 1.45 1.68 1.99 2.16 2.40 2.77 3.35 4.06 4.77 5.53 6.15 6.53 6.48 6.18 5.81 5.18 4.61 4.12 3.75 3.45
0.00 0.00 0.01 0.01 0.01 0.00 0.01 0.01 0.01 0.02 0.02 0.06 0.09 0.25 0.71 1.05 1.16 1.20 1.03 0.88 0.77 0.69 0.71 0.81 0.95 1.16 1.41 1.77 2.14 2.55 3.14 3.86 4.54 5.20 5.70 5.80 5.73 5.59 5.14 4.49 3.90 3.52 3.20 2.88
0.02 0.02 0.02 0.01 0.01 0.01 0.01 0.02 0.08 0.12 0.15 0.14 0.12 0.29 0.73 1.09 1.27 1.14 0.93 0.80 0.65 0.57 0.56 0.59 0.67 0.89 1.18 1.45 1.79 2.23 2.67 3.24 3.70 4.08 4.48 4.58 4.58 4.45 4.22 3.80 3.40 3.01 2.53 2.19
0.10 0.07 0.03 0.02 0.01 0.02 0.01 0.02 0.12 0.22 0.21 0.24 0.30 0.55 0.98 1.06 1.06 0.92 0.79 0.69 0.58 0.51 0.52 0.58 0.67 0.82 1.07 1.31 1.56 1.77 2.05 2.40 2.57 2.64 2.84 3.02 3.02 3.05 2.99 2.75 2.52 2.26 1.92 1.60
0.18 0.11 0.05 0.02 0.01 0.02 0.02 0.03 0.06 0.10 0.11 0.27 0.56 0.84 1.22 1.09 0.93 0.85 0.81 0.67 0.57 0.53 0.52 0.56 0.63 0.70 0.84 1.00 1.11 1.20 1.33 1.50 1.58 1.66 1.68 1.75 1.82 1.85 1.80 1.71 1.54 1.36 1.19 1.00
0.17 0.14 0.06 0.03 0.02 0.03 0.04 0.05 0.07 0.12 0.25 0.43 0.65 0.99 1.43 1.53 1.24 0.96 0.75 0.58 0.47 0.48 0.49 0.51 0.55 0.60 0.66 0.72 0.80 0.84 0.88 0.99 1.09 1.15 1.16 1.16 1.16 1.12 1.04 0.98 0.95 0.85 0.75 0.68
0.16 0.16 0.09 0.05 0.06 0.07 0.07 0.08 0.11 0.16 0.19 0.41 0.73 1.26 1.51 1.77 1.72 1.25 0.85 0.64 0.53 0.49 0.48 0.52 0.54 0.49 0.48 0.51 0.57 0.63 0.68 0.72 0.77 0.81 0.84 0.85 0.82 0.77 0.73 0.69 0.65 0.61 0.52 0.44
0.19 0.24 0.23 0.15 0.11 0.09 0.08 0.11 0.17 0.35 0.36 0.35 0.70 1.49 1.71 1.94 1.96 1.60 1.21 0.96 0.80 0.63 0.57 0.59 0.56 0.49 0.46 0.49 0.51 0.54 0.56 0.59 0.64 0.60 0.60 0.64 0.60 0.53 0.51 0.48 0.42 0.39 0.37 0.32
0.17 0.30 0.53 0.49 0.36 0.20 0.13 0.13 0.15 0.20 0.31 0.44 0.81 1.61 1.95 1.92 1.91 1.70 1.40 1.20 1.10 0.97 0.85 0.75 0.67 0.60 0.56 0.53 0.50 0.47 0.44 0.45 0.49 0.49 0.46 0.48 0.47 0.45 0.41 0.37 0.32 0.27 0.27 0.28
0.13 0.32 0.70 0.94 0.69 0.40 0.27 0.18 0.15 0.18 0.39 0.52 0.77 1.30 1.73 1.83 1.83 1.77 1.71 1.64 1.50 1.22 0.96 0.81 0.72 0.66 0.62 0.58 0.53 0.48 0.44 0.40 0.39 0.41 0.41 0.39 0.38 0.36 0.35 0.31 0.30 0.28 0.23 0.20
0.22 0.52 0.56 0.47 0.40 0.36 0.29 0.26 0.22 0.21 0.28 0.52 0.84 1.18 1.56 1.73 1.75 1.84 1.96 1.87 1.54 1.22 0.98 0.87 0.82 0.77 0.72 0.67 0.61 0.53 0.46 0.41 0.37 0.40 0.43 0.41 0.36 0.32 0.30 0.28 0.27 0.25 0.22 0.18
0.27 0.47 0.47 0.42 0.32 0.35 0.35 0.35 0.36 0.34 0.40 0.63 0.92 1.39 1.74 1.88 1.90 1.87 1.85 1.83 1.68 1.41 1.19 1.05 0.95 0.86 0.81 0.75 0.71 0.68 0.62 0.57 0.48 0.46 0.49 0.47 0.41 0.35 0.30 0.25 0.21 0.18 0.16 0.13
0.25 0.41 0.63 0.59 0.34 0.47 0.68 0.57 0.48 0.49 0.57 0.74 0.97 1.24 1.44 1.54 1.66 1.76 1.83 1.80 1.74 1.57 1.38 1.23 1.17 1.11 1.04 0.95 0.88 0.81 0.70 0.60 0.51 0.45 0.42 0.41 0.35 0.31 0.27 0.21 0.18 0.16 0.15 0.14
0.18 0.35 0.53 0.53 0.58 0.92 0.77 0.50 0.44 0.51 0.61 0.63 0.75 0.86 1.07 1.22 1.35 1.56 1.72 1.79 1.79 1.65 1.55 1.45 1.33 1.21 1.12 0.99 0.84 0.66 0.53 0.46 0.40 0.37 0.34 0.29 0.25 0.23 0.20 0.16 0.16 0.16 0.16 0.16
0.09 0.24 0.45 0.56 0.78 0.90 0.82 0.48 0.40 0.60 0.78 0.60 0.61 0.64 0.69 0.76 0.92 1.30 1.42 1.46 1.54 1.53 1.46 1.36 1.26 1.17 1.04 0.85 0.65 0.49 0.41 0.37 0.33 0.31 0.29 0.24 0.19 0.18 0.18 0.17 0.15 0.16 0.19 0.19
0.09 0.19 0.42 0.60 0.88 1.06 0.99 0.43 0.24 0.46 0.98 0.76 0.65 0.65 0.66 0.78 0.90 0.93 0.96 0.96 1.02 1.12 1.15 1.13 1.03 0.92 0.80 0.62 0.47 0.41 0.37 0.34 0.30 0.25 0.22 0.19 0.17 0.18 0.17 0.17 0.16 0.16 0.18 0.19
0.28 0.33 0.52 0.68 0.89 0.97 0.55 0.29 0.35 0.83 1.06 0.80 0.64 0.68 0.81 0.94 0.82 0.60 0.57 0.70 0.79 0.83 0.87 0.86 0.81 0.75 0.63 0.47 0.42 0.43 0.39 0.34 0.26 0.19 0.18 0.18 0.17 0.16 0.15 0.17 0.19 0.19 0.17 0.18
0.45 0.57 0.70 0.75 0.93 1.00 0.43 0.35 0.60 0.71 0.54 0.47 0.46 0.50 0.52 0.49 0.42 0.37 0.38 0.48 0.56 0.65 0.70 0.68 0.64 0.59 0.52 0.45 0.44 0.44 0.40 0.29 0.23 0.21 0.22 0.21 0.18 0.12 0.12 0.19 0.22 0.19 0.19 0.20
0.39 0.51 0.60 0.71 0.86 0.68 0.35 0.33 0.32 0.30 0.35 0.34 0.38 0.40 0.30 0.28 0.31 0.31 0.33 0.40 0.48 0.50 0.50 0.50 0.46 0.43 0.44 0.43 0.45 0.43 0.33 0.23 0.21 0.23 0.25 0.22 0.16 0.14 0.14 0.17 0.20 0.18 0.18 0.17
0.39 0.27 0.35 0.48 0.54 0.40 0.30 0.25 0.24 0.26 0.29 0.28 0.32 0.33 0.30 0.22 0.18 0.22 0.31 0.40 0.44 0.42 0.37 0.39 0.39 0.39 0.41 0.41 0.41 0.38 0.28 0.24 0.26 0.29 0.25 0.21 0.18 0.17 0.15 0.13 0.12 0.12 0.12 0.12
0.40 0.24 0.32 0.45 0.48 0.38 0.36 0.29 0.25 0.27 0.28 0.26 0.28 0.33 0.28 0.19 0.16 0.19 0.27 0.32 0.35 0.37 0.36 0.40 0.46 0.44 0.37 0.33 0.32 0.27 0.25 0.26 0.31 0.30 0.24 0.21 0.18 0.14 0.14 0.10 0.07 0.07 0.07 0.04
0.30 0.31 0.33 0.41 0.38 0.38 0.40 0.27 0.22 0.27 0.34 0.37 0.35 0.29 0.23 0.19 0.17 0.18 0.23 0.25 0.29 0.33 0.37 0.44 0.44 0.37 0.27 0.24 0.24 0.19 0.17 0.20 0.25 0.25 0.20 0.15 0.11 0.11 0.09 0.09 0.08 0.03 0.01 0.01

GEFSCGP_prec_meanprecacc_126.txt.gz
Total_Precipitation_Accumulation
0.00 0.00 0.00 0.00 0.00 0.00 0.00 0.00 0.01 0.01 0.01 0.01 0.04 0.09 0.14 0.18 0.20 0.30 0.37 0.36 0.34 0.45 0.59 0.80 1.13 1.60 2.15 2.15 2.09 2.26 2.49 2.58 2.59 2.83 2.95 3.09 3.38 3.56 3.74 3.88 3.83 3.77 3.63 3.63
0.00 0.00 0.00 0.00 0.00 0.00 0.00 0.00 0.01 0.03 0.02 0.03 0.07 0.14 0.18 0.23 0.26 0.34 0.41 0.45 0.42 0.47 0.71 0.99 1.32 1.85 2.32 2.51 2.57 2.60 2.82 3.07 3.24 3.42 3.75 4.09 4.41 4.63 4.77 4.83 4.40 4.18 4.06 3.97
0.00 0.00 0.00 0.00 0.00 0.00 0.01 0.01 0.02 0.06 0.05 0.06 0.12 0.25 0.33 0.36 0.37 0.47 0.62 0.71 0.80 0.83 1.04 1.26 1.52 1.93 2.31 2.49 2.63 2.73 2.97 3.39 3.86 4.21 4.61 5.02 5.25 5.34 5.14 4.87 4.76 4.61 4.46 4.33
0.00 0.00 0.00 0.00 0.00 0.01 0.01 0.01 0.01 0.02 0.04 0.09 0.12 0.31 0.57 0.57 0.55 0.66 0.80 0.76 0.80 0.95 1.18 1.42 1.69 1.96 2.27 2.46 2.58 2.87 3.37 4.00 4.54 4.97 5.44 5.94 6.10 5.95 5.66 5.25 4.87 4.63 4.37 4.04
0.00 0.00 0.00 0.00 0.01 0.01 0.01 0.01 0.01 0.01 0.02 0.07 0.10 0.26 0.70 0.82 0.82 0.89 1.04 0.92 0.86 0.82 0.99 1.27 1.51 1.73 2.02 2.18 2.43 2.81 3.41 4.11 4.82 5.58 6.20 6.59 6.53 6.23 5.86 5.23 4.65 4.16 3.79 3.49
0.00 0.00 0.01 0.01 0.01 0.00 0.01 0.01 0.01 0.02 0.03 0.06 0.10 0.25 0.72 1.08 1.20 1.23 1.07 0.93 0.83 0.78 0.81 0.89 1.02 1.23 1.47 1.80 2.17 2.58 3.19 3.91 4.59 5.24 5.74 5.84 5.76 5.61 5.16 4.51 3.91 3.54 3.21 2.89
0.02 0.02 0.02 0.01 0.01 0.01 0.01 0.02 0.08 0.12 0.16 0.14 0.12 0.29 0.74 1.11 1.29 1.17 0.97 0.86 0.72 0.64 0.62 0.65 0.71 0.92 1.20 1.47 1.82 2.25 2.70 3.27 3.73 4.10 4.50 4.60 4.59 4.46 4.22 3.81 3.41 3.02 2.54 2.19
0.10 0.07 0.03 0.02 0.02 0.02 0.01 0.02 0.12 0.22 0.22 0.24 0.31 0.56 0.98 1.07 1.08 0.95 0.83 0.74 0.62 0.57 0.57 0.62 0.70 0.84 1.08 1.32 1.56 1.77 2.06 2.40 2.57 2.64 2.84 3.02 3.03 3.05 2.99 2.75 2.52 2.26 1.92 1.60
0.18 0.11 0.05 0.02 0.02 0.02 0.02 0.03 0.06 0.10 0.11 0.27 0.56 0.85 1.23 1.11 0.97 0.89 0.87 0.73 0.63 0.59 0.57 0.59 0.64 0.71 0.84 1.00 1.11 1.20 1.34 1.51 1.58 1.66 1.69 1.76 1.83 1.85 1.81 1.71 1.54 1.36 1.19 1.00
0.17 0.14 0.06 0.03 0.03 0.04 0.04 0.05 0.07 0.12 0.25 0.43 0.65 1.00 1.44 1.54 1.26 1.00 0.81 0.65 0.54 0.53 0.53 0.54 0.57 0.61 0.67 0.73 0.80 0.85 0.89 0.99 1.09 1.16 1.16 1.17 1.16 1.13 1.05 0.99 0.95 0.85 0.75 0.68
0.16 0.17 0.09 0.05 0.07 0.08 0.07 0.09 0.12 0.16 0.20 0.41 0.73 1.26 1.51 1.78 1.74 1.28 0.91 0.75 0.64 0.57 0.53 0.56 0.58 0.51 0.50 0.52 0.57 0.64 0.68 0.72 0.77 0.81 0.84 0.85 0.82 0.77 0.74 0.70 0.66 0.61 0.52 0.44
0.19 0.24 0.23 0.15 0.12 0.10 0.09 0.11 0.18 0.35 0.37 0.36 0.70 1.50 1.72 1.96 1.99 1.65 1.29 1.09 0.99 0.76 0.65 0.63 0.59 0.51 0.47 0.50 0.51 0.54 0.56 0.60 0.65 0.61 0.60 0.65 0.60 0.54 0.51 0.48 0.43 0.39 0.37 0.32
0.18 0.30 0.54 0.50 0.37 0.21 0.14 0.14 0.16 0.20 0.33 0.45 0.81 1.62 1.96 1.93 1.93 1.73 1.46 1.28 1.26 1.14 0.98 0.82 0.70 0.62 0.58 0.55 0.51 0.47 0.45 0.46 0.50 0.49 0.47 0.49 0.48 0.45 0.42 0.37 0.32 0.28 0.29 0.29
0.14 0.33 0.71 0.95 0.69 0.41 0.27 0.18 0.16 0.19 0.41 0.53 0.78 1.31 1.74 1.84 1.84 1.79 1.74 1.70 1.58 1.35 1.11 0.91 0.76 0.68 0.64 0.60 0.54 0.49 0.44 0.40 0.40 0.42 0.41 0.39 0.38 0.37 0.35 0.32 0.30 0.29 0.24 0.21
0.22 0.52 0.56 0.47 0.40 0.36 0.30 0.27 0.23 0.23 0.29 0.53 0.85 1.18 1.57 1.75 1.76 1.86 2.00 1.91 1.59 1.28 1.06 0.93 0.86 0.80 0.74 0.68 0.62 0.54 0.46 0.41 0.37 0.40 0.44 0.42 0.36 0.32 0.30 0.29 0.27 0.26 0.23 0.19
0.27 0.47 0.47 0.42 0.32 0.36 0.36 0.37 0.38 0.36 0.42 0.65 0.93 1.40 1.75 1.89 1.91 1.90 1.89 1.88 1.73 1.48 1.25 1.09 0.98 0.89 0.82 0.76 0.72 0.68 0.63 0.57 0.49 0.46 0.49 0.47 0.42 0.36 0.31 0.26 0.21 0.19 0.17 0.14
0.25 0.41 0.63 0.59 0.34 0.48 0.69 0.59 0.50 0.52 0.59 0.76 0.99 1.25 1.46 1.56 1.68 1.79 1.86 1.84 1.79 1.63 1.44 1.28 1.21 1.13 1.05 0.96 0.89 0.82 0.71 0.60 0.52 0.45 0.42 0.41 0.36 0.33 0.28 0.22 0.18 0.16 0.16 0.15
0.19 0.36 0.53 0.53 0.58 0.93 0.81 0.54 0.48 0.54 0.63 0.65 0.77 0.87 1.09 1.24 1.37 1.58 1.75 1.82 1.84 1.71 1.60 1.49 1.36 1.24 1.14 1.01 0.85 0.66 0.53 0.46 0.41 0.37 0.34 0.29 0.26 0.24 0.21 0.17 0.16 0.16 0.16 0.16
0.10 0.24 0.45 0.56 0.79 0.92 0.84 0.51 0.44 0.63 0.80 0.63 0.64 0.66 0.70 0.78 0.94 1.34 1.46 1.52 1.60 1.58 1.49 1.40 1.29 1.19 1.05 0.86 0.66 0.50 0.42 0.38 0.34 0.32 0.30 0.25 0.20 0.19 0.19 0.17 0.16 0.16 0.19 0.19
0.10 0.20 0.43 0.61 0.90 1.08 1.01 0.44 0.26 0.48 1.01 0.79 0.68 0.67 0.67 0.79 0.92 0.97 1.00 1.01 1.06 1.15 1.18 1.17 1.07 0.94 0.82 0.64 0.48 0.42 0.38 0.35 0.31 0.27 0.24 0.20 0.18 0.19 0.18 0.17 0.17 0.17 0.19 0.19
0.29 0.34 0.53 0.70 0.91 0.99 0.56 0.30 0.36 0.85 1.08 0.82 0.66 0.69 0.83 0.95 0.83 0.61 0.58 0.72 0.82 0.87 0.92 0.92 0.84 0.76 0.64 0.49 0.43 0.44 0.40 0.35 0.27 0.20 0.20 0.19 0.19 0.17 0.16 0.18 0.20 0.19 0.18 0.19
0.45 0.58 0.71 0.76 0.95 1.01 0.43 0.36 0.61 0.71 0.55 0.49 0.48 0.51 0.53 0.50 0.44 0.38 0.40 0.52 0.62 0.71 0.74 0.71 0.66 0.61 0.54 0.47 0.45 0.45 0.41 0.30 0.24 0.23 0.24 0.23 0.20 0.13 0.12 0.20 0.23 0.20 0.19 0.21
0.39 0.52 0.61 0.72 0.87 0.68 0.35 0.33 0.33 0.31 0.37 0.36 0.39 0.41 0.32 0.30 0.36 0.36 0.36 0.43 0.53 0.54 0.53 0.52 0.48 0.45 0.46 0.45 0.46 0.44 0.34 0.24 0.22 0.25 0.26 0.24 0.17 0.15 0.14 0.18 0.21 0.19 0.19 0.18
0.39 0.27 0.35 0.49 0.54 0.40 0.32 0.27 0.26 0.27 0.30 0.30 0.34 0.35 0.32 0.24 0.23 0.25 0.32 0.41 0.45 0.43 0.39 0.41 0.41 0.41 0.43 0.42 0.42 0.39 0.30 0.26 0.28 0.31 0.27 0.22 0.20 0.17 0.15 0.14 0.13 0.13 0.13 0.13
0.40 0.24 0.33 0.46 0.49 0.39 0.37 0.30 0.26 0.28 0.29 0.27 0.30 0.34 0.29 0.22 0.19 0.21 0.29 0.33 0.36 0.38 0.37 0.41 0.48 0.46 0.39 0.35 0.33 0.28 0.27 0.28 0.33 0.32 0.25 0.22 0.19 0.15 0.14 0.11 0.08 0.08 0.08 0.06
0.31 0.31 0.33 0.42 0.40 0.39 0.40 0.28 0.22 0.28 0.35 0.38 0.36 0.30 0.24 0.20 0.18 0.19 0.24 0.26 0.30 0.35 0.39 0.45 0.46 0.39 0.29 0.26 0.26 0.20 0.19 0.22 0.26 0.26 0.21 0.16 0.13 0.12 0.09 0.10 0.09 0.04 0.02 0.02

GEFSCGP_prec_meanprecacc_132.txt.gz
Total_Precipitation_Accumulation
0.00 0.00 0.00 0.00 0.00 0.00 0.00 0.00 0.01 0.01 0.01 0.01 0.05 0.09 0.15 0.19 0.22 0.31 0.38 0.38 0.35 0.47 0.61 0.80 1.13 1.61 2.16 2.17 2.11 2.29 2.54 2.65 2.66 2.90 3.04 3.19 3.50 3.66 3.81 3.96 3.92 3.84 3.70 3.72
0.00 0.00 0.00 0.00 0.00 0.00 0.00 0.00 0.01 0.03 0.02 0.03 0.08 0.14 0.19 0.24 0.26 0.34 0.43 0.46 0.43 0.49 0.73 1.01 1.33 1.87 2.34 2.53 2.59 2.63 2.85 3.11 3.30 3.49 3.83 4.17 4.49 4.71 4.84 4.89 4.47 4.25 4.13 4.04
0.00 0.00 0.00 0.00 0.00 0.00 0.01 0.01 0.02 0.06 0.05 0.06 0.13 0.26 0.34 0.36 0.38 0.48 0.64 0.73 0.81 0.86 1.07 1.30 1.55 1.96 2.33 2.51 2.66 2.77 3.01 3.43 3.90 4.28 4.68 5.09 5.33 5.41 5.21 4.95 4.84 4.67 4.52 4.39
0.00 0.00 0.00 0.00 0.00 0.01 0.01 0.01 0.01 0.02 0.04 0.09 0.13 0.32 0.59 0.58 0.56 0.67 0.81 0.78 0.81 0.97 1.22 1.49 1.75 2.01 2.31 2.49 2.61 2.90 3.41 4.04 4.58 5.02 5.51 6.02 6.18 6.02 5.73 5.31 4.93 4.67 4.40 4.08
0.00 0.00 0.00 0.00 0.01 0.01 0.01 0.01 0.01 0.01 0.02 0.07 0.10 0.26 0.71 0.83 0.83 0.91 1.05 0.93 0.87 0.84 1.02 1.32 1.56 1.77 2.07 2.22 2.46 2.84 3.44 4.14 4.85 5.61 6.24 6.65 6.61 6.31 5.92 5.28 4.70 4.19 3.81 3.51
0.00 0.00 0.01 0.01 0.01 0.00 0.01 0.01 0.01 0.02 0.03 0.07 0.10 0.26 0.73 1.09 1.21 1.26 1.09 0.95 0.85 0.80 0.84 0.91 1.05 1.26 1.51 1.85 2.20 2.60 3.22 3.95 4.62 5.28 5.78 5.90 5.83 5.68 5.21 4.54 3.94 3.56 3.23 2.91
0.02 0.02 0.02 0.01 0.01 0.01 0.01 0.02 0.08 0.12 0.16 0.15 0.13 0.29 0.75 1.11 1.30 1.18 0.99 0.88 0.74 0.68 0.65 0.68 0.74 0.94 1.23 1.48 1.83 2.28 2.72 3.30 3.76 4.14 4.55 4.66 4.65 4.51 4.25 3.83 3.42 3.03 2.55 2.20
0.10 0.07 0.03 0.02 0.02 0.02 0.02 0.02 0.12 0.22 0.22 0.25 0.31 0.56 0.99 1.07 1.08 0.96 0.84 0.76 0.66 0.62 0.63 0.68 0.75 0.87 1.10 1.33 1.57 1.78 2.07 2.42 2.59 2.67 2.88 3.07 3.07 3.09 3.02 2.77 2.53 2.27 1.93 1.61
0.18 0.12 0.05 0.02 0.02 0.02 0.02 0.03 0.06 0.10 0.11 0.28 0.56 0.85 1.24 1.11 0.97 0.90 0.88 0.75 0.66 0.63 0.63 0.65 0.69 0.74 0.86 1.01 1.11 1.20 1.34 1.51 1.59 1.67 1.70 1.78 1.85 1.87 1.83 1.72 1.55 1.37 1.20 1.01
0.17 0.15 0.06 0.03 0.03 0.04 0.04 0.05 0.07 0.12 0.26 0.44 0.66 1.01 1.45 1.56 1.27 1.01 0.83 0.68 0.58 0.57 0.58 0.59 0.61 0.64 0.70 0.74 0.80 0.85 0.89 0.99 1.09 1.16 1.16 1.17 1.18 1.14 1.06 1.00 0.96 0.86 0.76 0.68
0.16 0.17 0.10 0.06 0.07 0.09 0.08 0.09 0.12 0.17 0.20 0.42 0.74 1.28 1.52 1.79 1.75 1.30 0.93 0.78 0.69 0.62 0.58 0.60 0.61 0.53 0.52 0.54 0.58 0.64 0.68 0.73 0.77 0.81 0.84 0.85 0.82 0.78 0.75 0.71 0.67 0.62 0.53 0.45
0.19 0.25 0.24 0.16 0.12 0.11 0.10 0.12 0.18 0.36 0.38 0.37 0.73 1.52 1.72 1.96 2.00 1.68 1.33 1.14 1.05 0.83 0.71 0.68 0.64 0.55 0.50 0.53 0.53 0.55 0.57 0.60 0.65 0.61 0.61 0.65 0.60 0.54 0.52 0.50 0.44 0.40 0.38 0.33
0.18 0.31 0.55 0.51 0.38 0.22 0.14 0.15 0.16 0.21 0.34 0.47 0.84 1.65 1.97 1.94 1.94 1.76 1.50 1.34 1.31 1.23 1.05 0.88 0.74 0.66 0.61 0.57 0.52 0.49 0.46 0.46 0.50 0.50 0.47 0.49 0.48 0.46 0.42 0.38 0.33 0.29 0.29 0.30
0.14 0.33 0.72 0.97 0.71 0.42 0.27 0.18 0.16 0.19 0.43 0.55 0.80 1.33 1.76 1.86 1.86 1.81 1.77 1.73 1.63 1.43 1.22 1.01 0.83 0.73 0.68 0.64 0.58 0.52 0.47 0.42 0.40 0.42 0.42 0.41 0.39 0.37 0.36 0.32 0.31 0.29 0.25 0.21
0.23 0.53 0.57 0.47 0.40 0.36 0.30 0.28 0.24 0.24 0.30 0.55 0.87 1.21 1.59 1.76 1.78 1.88 2.01 1.94 1.63 1.33 1.15 1.08 0.99 0.90 0.81 0.72 0.65 0.55 0.47 0.42 0.38 0.41 0.44 0.43 0.37 0.33 0.31 0.29 0.27 0.27 0.24 0.19
0.28 0.48 0.48 0.43 0.33 0.36 0.37 0.38 0.39 0.37 0.44 0.67 0.96 1.43 1.77 1.90 1.93 1.91 1.90 1.90 1.78 1.54 1.32 1.18 1.09 1.00 0.89 0.79 0.74 0.69 0.63 0.58 0.50 0.47 0.50 0.48 0.43 0.37 0.33 0.27 0.22 0.20 0.18 0.14
0.26 0.42 0.65 0.61 0.36 0.49 0.72 0.62 0.52 0.53 0.61 0.78 1.02 1.28 1.46 1.57 1.69 1.81 1.88 1.87 1.83 1.67 1.48 1.33 1.27 1.20 1.10 0.98 0.90 0.83 0.71 0.61 0.53 0.46 0.44 0.42 0.38 0.34 0.30 0.23 0.19 0.17 0.17 0.16
0.21 0.38 0.55 0.55 0.61 0.96 0.84 0.56 0.50 0.57 0.66 0.67 0.79 0.89 1.10 1.24 1.38 1.60 1.77 1.85 1.87 1.75 1.65 1.54 1.40 1.27 1.17 1.02 0.86 0.67 0.54 0.47 0.42 0.38 0.35 0.30 0.27 0.26 0.23 0.19 0.17 0.17 0.18 0.18
0.11 0.26 0.47 0.58 0.82 0.95 0.87 0.53 0.46 0.67 0.84 0.65 0.66 0.67 0.71 0.78 0.95 1.35 1.49 1.55 1.64 1.62 1.53 1.44 1.32 1.21 1.07 0.87 0.67 0.52 0.44 0.39 0.35 0.34 0.32 0.26 0.21 0.21 0.22 0.21 0.18 0.18 0.20 0.20
0.10 0.21 0.44 0.63 0.92 1.11 1.03 0.46 0.28 0.51 1.06 0.81 0.69 0.69 0.68 0.80 0.93 0.98 1.02 1.04 1.09 1.17 1.20 1.19 1.09 0.96 0.83 0.66 0.50 0.44 0.40 0.37 0.33 0.28 0.25 0.21 0.19 0.20 0.20 0.20 0.20 0.19 0.20 0.20
0.31 0.35 0.55 0.71 0.93 1.01 0.57 0.31 0.39 0.90 1.14 0.84 0.67 0.71 0.85 0.97 0.85 0.62 0.59 0.74 0.85 0.90 0.95 0.95 0.87 0.78 0.66 0.51 0.45 0.45 0.42 0.37 0.28 0.21 0.21 0.21 0.21 0.19 0.17 0.19 0.21 0.20 0.19 0.20
0.46 0.59 0.72 0.78 0.97 1.03 0.44 0.36 0.63 0.74 0.57 0.50 0.51 0.54 0.55 0.52 0.45 0.40 0.42 0.54 0.64 0.73 0.77 0.74 0.71 0.65 0.57 0.49 0.47 0.47 0.43 0.32 0.25 0.24 0.26 0.25 0.23 0.14 0.13 0.21 0.24 0.21 0.21 0.23
0.40 0.53 0.62 0.73 0.89 0.70 0.36 0.33 0.34 0.31 0.38 0.37 0.42 0.45 0.35 0.34 0.39 0.39 0.39 0.47 0.56 0.58 0.56 0.54 0.51 0.49 0.50 0.48 0.49 0.46 0.36 0.26 0.24 0.27 0.30 0.26 0.19 0.16 0.16 0.19 0.22 0.20 0.20 0.19
0.40 0.27 0.36 0.51 0.56 0.42 0.32 0.27 0.26 0.28 0.30 0.31 0.34 0.36 0.33 0.27 0.26 0.28 0.36 0.45 0.49 0.47 0.42 0.43 0.43 0.44 0.46 0.45 0.45 0.42 0.32 0.28 0.31 0.34 0.30 0.24 0.22 0.19 0.16 0.16 0.14 0.14 0.14 0.14
0.41 0.25 0.34 0.47 0.50 0.41 0.38 0.31 0.27 0.29 0.30 0.28 0.30 0.34 0.30 0.23 0.20 0.23 0.32 0.36 0.39 0.41 0.40 0.43 0.51 0.49 0.41 0.38 0.36 0.31 0.29 0.30 0.35 0.34 0.28 0.24 0.21 0.16 0.16 0.12 0.09 0.08 0.08 0.06
0.31 0.31 0.34 0.44 0.41 0.41 0.42 0.28 0.22 0.29 0.36 0.39 0.37 0.31 0.24 0.21 0.19 0.20 0.26 0.29 0.31 0.36 0.41 0.47 0.47 0.42 0.32 0.29 0.29 0.22 0.20 0.23 0.28 0.27 0.23 0.17 0.14 0.12 0.10 0.11 0.09 0.04 0.03 0.03

GEFSCGP_prec_meanprecacc_138.txt.gz
Total_Precipitation_Accumulation
0.00 0.00 0.00 0.00 0.00 0.00 0.01 0.01 0.01 0.02 0.02 0.02 0.05 0.10 0.16 0.21 0.23 0.32 0.40 0.41 0.38 0.49 0.63 0.82 1.15 1.63 2.19 2.21 2.15 2.33 2.58 2.70 2.82 3.10 3.21 3.36 3.65 3.81 3.94 4.07 4.01 3.94 3.79 3.81
0.00 0.00 0.00 0.00 0.00 0.00 0.00 0.00 0.01 0.04 0.04 0.04 0.08 0.15 0.21 0.25 0.27 0.35 0.43 0.48 0.49 0.57 0.80 1.05 1.35 1.88 2.36 2.56 2.63 2.66 2.89 3.18 3.43 3.65 3.98 4.31 4.62 4.83 4.94 4.98 4.55 4.32 4.20 4.13
0.00 0.00 0.00 0.00 0.00 0.00 0.01 0.01 0.02 0.06 0.05 0.06 0.13 0.29 0.38 0.38 0.38 0.49 0.66 0.75 0.85 0.92 1.14 1.32 1.56 1.98 2.36 2.55 2.69 2.81 3.04 3.49 3.99 4.36 4.76 5.19 5.44 5.50 5.28 5.01 4.90 4.73 4.57 4.45
0.00 0.00 0.00 0.00 0.01 0.01 0.01 0.01 0.01 0.02 0.04 0.09 0.14 0.35 0.64 0.61 0.59 0.71 0.85 0.81 0.87 1.07 1.30 1.52 1.76 2.02 2.34 2.52 2.64 2.94 3.45 4.07 4.61 5.05 5.56 6.09 6.26 6.09 5.78 5.35 4.98 4.71 4.44 4.10
0.00 0.00 0.00 0.01 0.01 0.01 0.01 0.01 0.01 0.02 0.02 0.07 0.11 0.29 0.77 0.89 0.88 0.98 1.13 0.99 0.92 0.94 1.08 1.35 1.59 1.79 2.09 2.24 2.48 2.87 3.47 4.17 4.87 5.65 6.30 6.71 6.66 6.35 5.96 5.32 4.74 4.23 3.84 3.53
0.01 0.01 0.01 0.01 0.01 0.00 0.01 0.01 0.01 0.02 0.03 0.08 0.11 0.28 0.80 1.16 1.29 1.36 1.21 1.01 0.88 0.87 0.88 0.93 1.07 1.29 1.53 1.87 2.22 2.63 3.24 3.97 4.65 5.30 5.81 5.95 5.89 5.74 5.28 4.61 4.03 3.65 3.32 2.97
0.03 0.03 0.02 0.01 0.01 0.01 0.01 0.02 0.10 0.15 0.19 0.18 0.14 0.33 0.81 1.16 1.34 1.25 1.05 0.93 0.79 0.73 0.72 0.71 0.76 0.96 1.25 1.50 1.86 2.30 2.74 3.32 3.78 4.17 4.57 4.69 4.70 4.56 4.32 3.90 3.50 3.11 2.64 2.27
0.11 0.08 0.04 0.02 0.02 0.02 0.02 0.02 0.15 0.28 0.27 0.30 0.34 0.61 1.05 1.13 1.15 1.06 0.91 0.81 0.70 0.65 0.66 0.71 0.79 0.91 1.14 1.36 1.60 1.80 2.09 2.45 2.61 2.68 2.90 3.09 3.10 3.12 3.06 2.83 2.60 2.35 2.01 1.67
0.19 0.12 0.06 0.02 0.02 0.02 0.02 0.03 0.07 0.12 0.14 0.32 0.60 0.90 1.32 1.16 1.01 0.97 0.96 0.79 0.68 0.65 0.65 0.69 0.74 0.79 0.89 1.03 1.13 1.22 1.35 1.53 1.60 1.68 1.72 1.81 1.88 1.90 1.85 1.75 1.59 1.42 1.25 1.05
0.18 0.15 0.07 0.04 0.03 0.04 0.05 0.06 0.08 0.14 0.29 0.49 0.72 1.10 1.64 1.70 1.33 1.06 0.89 0.71 0.59 0.59 0.61 0.63 0.65 0.67 0.72 0.75 0.82 0.87 0.91 1.01 1.10 1.17 1.17 1.19 1.21 1.18 1.09 1.02 0.98 0.89 0.79 0.70
0.19 0.19 0.10 0.06 0.08 0.10 0.09 0.10 0.13 0.18 0.22 0.47 0.83 1.44 1.71 1.95 1.83 1.35 1.00 0.84 0.73 0.65 0.61 0.64 0.65 0.57 0.55 0.56 0.60 0.65 0.70 0.74 0.79 0.82 0.85 0.87 0.84 0.80 0.77 0.73 0.69 0.64 0.54 0.46
0.21 0.26 0.25 0.16 0.13 0.12 0.10 0.13 0.19 0.38 0.40 0.41 0.81 1.65 1.81 2.07 2.09 1.73 1.39 1.20 1.11 0.87 0.75 0.73 0.69 0.59 0.54 0.55 0.54 0.56 0.58 0.61 0.66 0.62 0.62 0.67 0.62 0.56 0.54 0.52 0.45 0.41 0.40 0.35
0.19 0.34 0.59 0.56 0.41 0.23 0.15 0.15 0.17 0.23 0.37 0.51 0.92 1.79 2.04 2.00 2.00 1.80 1.54 1.40 1.40 1.29 1.11 0.93 0.80 0.70 0.64 0.60 0.54 0.51 0.48 0.49 0.52 0.51 0.49 0.51 0.50 0.47 0.44 0.39 0.34 0.30 0.31 0.31
0.14 0.36 0.79 1.04 0.75 0.44 0.29 0.19 0.16 0.21 0.48 0.63 0.91 1.46 1.84 1.94 1.95 1.91 1.82 1.78 1.70 1.50 1.28 1.07 0.88 0.79 0.73 0.67 0.60 0.55 0.49 0.44 0.42 0.44 0.44 0.43 0.40 0.39 0.37 0.33 0.32 0.30 0.26 0.22
0.23 0.55 0.60 0.51 0.43 0.39 0.32 0.29 0.25 0.25 0.33 0.62 0.97 1.29 1.68 1.86 1.89 2.03 2.09 1.99 1.71 1.40 1.21 1.13 1.05 0.95 0.86 0.76 0.68 0.58 0.49 0.44 0.39 0.42 0.47 0.45 0.39 0.34 0.32 0.31 0.29 0.28 0.25 0.20
0.28 0.51 0.51 0.45 0.35 0.39 0.39 0.40 0.41 0.39 0.45 0.70 1.03 1.51 1.82 1.97 2.04 2.06 1.99 1.96 1.85 1.60 1.38 1.24 1.15 1.04 0.94 0.83 0.76 0.71 0.66 0.61 0.52 0.49 0.52 0.50 0.44 0.38 0.34 0.28 0.24 0.22 0.19 0.15
0.26 0.44 0.69 0.65 0.38 0.52 0.78 0.65 0.55 0.56 0.62 0.80 1.08 1.35 1.51 1.63 1.80 1.99 2.02 1.94 1.89 1.73 1.53 1.38 1.31 1.23 1.14 1.03 0.94 0.86 0.74 0.63 0.55 0.48 0.44 0.43 0.39 0.34 0.31 0.25 0.21 0.21 0.20 0.17
0.22 0.41 0.60 0.61 0.66 1.04 0.90 0.58 0.53 0.60 0.68 0.69 0.82 0.93 1.14 1.28 1.43 1.67 1.86 1.92 1.94 1.80 1.69 1.58 1.43 1.30 1.21 1.07 0.91 0.71 0.57 0.50 0.44 0.40 0.36 0.31 0.28 0.27 0.25 0.22 0.21 0.22 0.22 0.21
0.12 0.29 0.53 0.65 0.89 1.05 0.94 0.55 0.48 0.72 0.90 0.67 0.69 0.71 0.74 0.82 1.00 1.40 1.55 1.62 1.71 1.68 1.60 1.54 1.41 1.27 1.10 0.90 0.69 0.55 0.46 0.42 0.38 0.36 0.34 0.28 0.23 0.23 0.24 0.24 0.23 0.24 0.25 0.24
0.11 0.24 0.51 0.69 1.00 1.23 1.13 0.48 0.29 0.55 1.14 0.84 0.73 0.74 0.73 0.86 1.05 1.07 1.08 1.09 1.14 1.23 1.27 1.26 1.15 0.99 0.85 0.68 0.52 0.47 0.43 0.39 0.35 0.31 0.28 0.23 0.21 0.22 0.22 0.24 0.25 0.24 0.25 0.23
0.32 0.41 0.62 0.78 1.02 1.11 0.60 0.32 0.41 0.99 1.26 0.91 0.71 0.74 0.90 1.07 0.97 0.68 0.62 0.76 0.87 0.94 0.99 0.98 0.90 0.80 0.67 0.52 0.47 0.48 0.45 0.40 0.30 0.24 0.25 0.24 0.22 0.21 0.20 0.23 0.26 0.25 0.23 0.24
0.49 0.63 0.77 0.83 1.05 1.10 0.46 0.38 0.66 0.81 0.65 0.56 0.54 0.57 0.58 0.57 0.50 0.42 0.45 0.56 0.67 0.78 0.81 0.77 0.74 0.68 0.60 0.52 0.51 0.51 0.47 0.34 0.27 0.28 0.31 0.30 0.25 0.16 0.15 0.23 0.27 0.25 0.24 0.27
0.43 0.57 0.66 0.78 0.95 0.73 0.37 0.35 0.35 0.34 0.42 0.41 0.46 0.48 0.39 0.37 0.41 0.41 0.41 0.50 0.61 0.64 0.62 0.59 0.55 0.53 0.54 0.52 0.54 0.52 0.41 0.29 0.26 0.31 0.33 0.29 0.21 0.17 0.17 0.21 0.24 0.22 0.22 0.21
0.40 0.28 0.37 0.53 0.57 0.42 0.33 0.28 0.27 0.29 0.32 0.33 0.37 0.38 0.36 0.31 0.29 0.30 0.38 0.48 0.53 0.51 0.45 0.46 0.47 0.48 0.50 0.50 0.50 0.47 0.37 0.32 0.34 0.37 0.32 0.26 0.23 0.20 0.17 0.17 0.15 0.15 0.16 0.15
0.42 0.25 0.35 0.50 0.52 0.42 0.39 0.32 0.28 0.29 0.30 0.28 0.31 0.35 0.31 0.25 0.23 0.25 0.34 0.37 0.41 0.43 0.42 0.46 0.54 0.53 0.45 0.41 0.40 0.34 0.32 0.33 0.38 0.36 0.30 0.26 0.22 0.18 0.17 0.13 0.10 0.09 0.09 0.06
0.32 0.32 0.36 0.46 0.43 0.42 0.43 0.28 0.23 0.30 0.37 0.40 0.37 0.32 0.26 0.23 0.21 0.22 0.28 0.32 0.34 0.39 0.44 0.51 0.50 0.44 0.35 0.31 0.31 0.24 0.23 0.26 0.30 0.29 0.25 0.20 0.15 0.14 0.11 0.12 0.10 0.04 0.03 0.03

GEFSCGP_prec_meanprecacc_144.txt.gz
Total_Precipitation_Accumulation
0.00 0.00 0.00 0.00 0.01 0.01 0.01 0.01 0.02 0.02 0.03 0.06 0.12 0.14 0.25 0.35 0.38 0.42 0.46 0.48 0.47 0.63 0.81 1.04 1.39 1.75 2.25 2.28 2.21 2.37 2.61 2.73 2.85 3.14 3.26 3.43 3.74 3.95 4.11 4.20 4.10 4.01 3.88 3.94
0.00 0.00 0.00 0.00 0.01 0.01 0.01 0.02 0.03 0.06 0.06 0.10 0.17 0.22 0.29 0.39 0.44 0.44 0.51 0.58 0.61 0.76 1.03 1.23 1.45 1.92 2.39 2.59 2.66 2.70 2.93 3.21 3.48 3.70 4.04 4.36 4.67 4.89 5.04 5.07 4.62 4.38 4.26 4.21
0.00 0.00 0.00 0.00 0.01 0.01 0.02 0.02 0.05 0.08 0.06 0.09 0.17 0.35 0.46 0.47 0.48 0.58 0.76 0.88 0.97 1.04 1.27 1.38 1.59 2.00 2.38 2.57 2.72 2.86 3.11 3.55 4.10 4.43 4.81 5.24 5.47 5.54 5.34 5.08 4.95 4.77 4.61 4.49
0.00 0.00 0.00 0.00 0.01 0.01 0.01 0.01 0.03 0.04 0.05 0.11 0.17 0.40 0.69 0.72 0.73 0.90 1.04 0.95 0.99 1.16 1.37 1.56 1.78 2.04 2.36 2.54 2.66 2.98 3.50 4.13 4.67 5.10 5.61 6.13 6.29 6.12 5.81 5.40 5.01 4.74 4.47 4.14
0.00 0.00 0.01 0.01 0.01 0.01 0.01 0.01 0.02 0.03 0.02 0.08 0.13 0.32 0.83 0.99 1.00 1.19 1.39 1.14 1.05 1.04 1.15 1.39 1.61 1.81 2.12 2.27 2.50 2.90 3.51 4.22 4.92 5.69 6.33 6.74 6.69 6.37 5.98 5.34 4.76 4.25 3.87 3.56
0.01 0.01 0.01 0.01 0.01 0.01 0.01 0.01 0.02 0.02 0.03 0.09 0.12 0.30 0.86 1.24 1.39 1.50 1.38 1.16 1.03 0.98 0.95 0.97 1.10 1.32 1.56 1.89 2.24 2.67 3.29 4.02 4.69 5.33 5.84 5.99 5.93 5.77 5.30 4.62 4.04 3.67 3.34 3.00
0.03 0.03 0.02 0.01 0.01 0.01 0.01 0.02 0.10 0.16 0.20 0.19 0.16 0.37 0.89 1.25 1.43 1.34 1.18 1.09 0.96 0.85 0.79 0.77 0.79 0.99 1.26 1.52 1.88 2.32 2.77 3.36 3.82 4.21 4.61 4.74 4.75 4.60 4.34 3.91 3.51 3.13 2.65 2.30
0.11 0.08 0.04 0.02 0.02 0.02 0.02 0.03 0.15 0.29 0.29 0.32 0.37 0.67 1.14 1.23 1.27 1.19 1.09 1.02 0.86 0.76 0.73 0.76 0.82 0.94 1.16 1.38 1.62 1.82 2.11 2.47 2.63 2.70 2.91 3.11 3.13 3.15 3.08 2.84 2.61 2.36 2.02 1.69
0.20 0.13 0.06 0.03 0.02 0.02 0.02 0.03 0.07 0.13 0.16 0.36 0.66 1.02 1.49 1.40 1.29 1.24 1.23 1.05 0.86 0.75 0.73 0.75 0.78 0.83 0.92 1.06 1.14 1.23 1.36 1.53 1.61 1.69 1.73 1.81 1.89 1.92 1.88 1.78 1.61 1.44 1.28 1.08
0.19 0.16 0.07 0.04 0.03 0.04 0.05 0.06 0.09 0.16 0.34 0.56 0.81 1.25 1.82 1.91 1.59 1.29 1.10 0.91 0.76 0.72 0.72 0.72 0.71 0.72 0.75 0.78 0.83 0.88 0.92 1.01 1.11 1.17 1.17 1.19 1.22 1.19 1.11 1.04 1.00 0.91 0.81 0.73
0.19 0.19 0.10 0.06 0.08 0.10 0.09 0.11 0.14 0.20 0.25 0.53 0.91 1.55 1.83 2.07 1.99 1.49 1.12 1.00 0.91 0.80 0.73 0.73 0.71 0.62 0.59 0.60 0.62 0.68 0.72 0.76 0.79 0.83 0.86 0.87 0.85 0.81 0.78 0.74 0.70 0.65 0.56 0.47
0.21 0.27 0.25 0.17 0.13 0.12 0.11 0.14 0.20 0.40 0.43 0.44 0.87 1.74 1.89 2.16 2.21 1.83 1.49 1.39 1.31 1.02 0.86 0.82 0.75 0.63 0.57 0.58 0.57 0.59 0.60 0.63 0.67 0.63 0.63 0.67 0.62 0.56 0.54 0.52 0.46 0.42 0.40 0.35
0.19 0.35 0.60 0.57 0.42 0.23 0.17 0.17 0.19 0.25 0.40 0.55 0.98 1.88 2.14 2.11 2.13 1.94 1.66 1.55 1.61 1.48 1.25 1.05 0.88 0.75 0.68 0.62 0.57 0.53 0.50 0.50 0.54 0.53 0.50 0.52 0.51 0.48 0.44 0.39 0.34 0.30 0.31 0.32
0.15 0.37 0.82 1.09 0.79 0.47 0.32 0.22 0.20 0.25 0.51 0.66 0.98 1.56 1.94 2.03 2.06 2.02 2.00 1.97 1.92 1.71 1.46 1.22 0.98 0.85 0.78 0.71 0.64 0.57 0.52 0.45 0.43 0.45 0.45 0.43 0.41 0.39 0.38 0.34 0.32 0.30 0.26 0.24
0.25 0.57 0.62 0.54 0.46 0.42 0.35 0.31 0.29 0.29 0.35 0.64 1.01 1.35 1.75 1.93 1.98 2.14 2.26 2.17 1.86 1.55 1.36 1.26 1.13 1.01 0.90 0.80 0.72 0.61 0.52 0.45 0.41 0.43 0.48 0.46 0.39 0.34 0.33 0.31 0.30 0.28 0.26 0.20
0.30 0.52 0.53 0.48 0.36 0.41 0.41 0.42 0.44 0.42 0.47 0.73 1.07 1.56 1.87 2.02 2.10 2.14 2.13 2.08 1.94 1.68 1.48 1.34 1.22 1.09 0.98 0.85 0.78 0.73 0.67 0.62 0.53 0.50 0.53 0.51 0.44 0.38 0.34 0.29 0.25 0.23 0.20 0.16
0.28 0.45 0.72 0.68 0.41 0.57 0.87 0.72 0.60 0.63 0.67 0.83 1.12 1.40 1.55 1.67 1.85 2.04 2.09 2.01 1.96 1.78 1.59 1.45 1.36 1.27 1.16 1.05 0.95 0.87 0.75 0.64 0.56 0.49 0.46 0.44 0.39 0.35 0.31 0.25 0.22 0.23 0.22 0.19
0.23 0.43 0.63 0.63 0.72 1.15 1.00 0.64 0.58 0.69 0.75 0.75 0.88 0.97 1.17 1.31 1.48 1.73 1.92 1.97 1.99 1.85 1.75 1.63 1.47 1.34 1.24 1.10 0.93 0.73 0.59 0.51 0.45 0.41 0.37 0.32 0.29 0.28 0.26 0.23 0.22 0.23 0.25 0.24
0.14 0.33 0.58 0.70 0.96 1.13 0.99 0.60 0.52 0.78 0.97 0.73 0.74 0.76 0.78 0.86 1.05 1.46 1.61 1.67 1.76 1.73 1.64 1.57 1.44 1.30 1.13 0.93 0.73 0.58 0.49 0.44 0.39 0.37 0.35 0.29 0.24 0.24 0.25 0.25 0.25 0.26 0.26 0.26
0.15 0.28 0.57 0.74 1.07 1.30 1.19 0.52 0.31 0.58 1.19 0.89 0.77 0.79 0.79 0.92 1.11 1.15 1.15 1.17 1.22 1.31 1.32 1.28 1.17 1.01 0.87 0.70 0.55 0.50 0.45 0.42 0.37 0.32 0.29 0.24 0.22 0.23 0.23 0.25 0.27 0.26 0.26 0.24
0.37 0.45 0.67 0.83 1.07 1.17 0.64 0.34 0.43 1.02 1.29 0.95 0.75 0.80 0.95 1.11 1.04 0.78 0.69 0.82 0.93 1.00 1.04 1.01 0.91 0.81 0.68 0.54 0.49 0.51 0.48 0.42 0.32 0.25 0.26 0.25 0.23 0.21 0.21 0.24 0.28 0.27 0.25 0.26
0.51 0.66 0.81 0.88 1.11 1.14 0.48 0.39 0.69 0.84 0.69 0.60 0.58 0.61 0.62 0.61 0.57 0.53 0.51 0.61 0.71 0.81 0.83 0.80 0.77 0.70 0.61 0.54 0.53 0.53 0.49 0.36 0.28 0.29 0.33 0.32 0.26 0.17 0.16 0.24 0.28 0.26 0.25 0.28
0.45 0.60 0.69 0.83 0.99 0.76 0.38 0.36 0.38 0.38 0.46 0.45 0.49 0.51 0.41 0.39 0.44 0.44 0.45 0.54 0.64 0.66 0.63 0.60 0.59 0.57 0.57 0.54 0.56 0.53 0.42 0.31 0.28 0.33 0.35 0.31 0.22 0.18 0.18 0.22 0.25 0.23 0.23 0.22
0.42 0.29 0.39 0.54 0.59 0.43 0.33 0.29 0.29 0.31 0.34 0.35 0.39 0.40 0.37 0.33 0.31 0.32 0.40 0.51 0.55 0.52 0.47 0.48 0.50 0.52 0.53 0.52 0.52 0.49 0.39 0.35 0.38 0.42 0.37 0.29 0.25 0.21 0.18 0.17 0.15 0.15 0.16 0.16
0.43 0.27 0.37 0.52 0.54 0.43 0.40 0.32 0.29 0.31 0.32 0.30 0.32 0.37 0.32 0.26 0.24 0.26 0.35 0.38 0.42 0.44 0.43 0.47 0.55 0.54 0.47 0.42 0.41 0.35 0.34 0.36 0.42 0.40 0.33 0.28 0.23 0.19 0.17 0.14 0.10 0.09 0.09 0.07
0.33 0.33 0.38 0.49 0.45 0.44 0.45 0.29 0.23 0.31 0.38 0.40 0.38 0.32 0.28 0.25 0.22 0.23 0.29 0.33 0.34 0.39 0.45 0.52 0.52 0.45 0.35 0.31 0.31 0.25 0.24 0.27 0.31 0.30 0.25 0.21 0.16 0.14 0.12 0.12 0.10 0.04 0.03 0.03

GEFSCGP_prec_meanprecacc_150.txt.gz
Total_Precipitation_Accumulation
0.00 0.00 0.00 0.01 0.01 0.01 0.01 0.02 0.02 0.03 0.05 0.08 0.13 0.16 0.27 0.39 0.49 0.52 0.50 0.51 0.52 0.71 0.88 1.11 1.45 1.81 2.33 2.39 2.33 2.46 2.67 2.79 2.89 3.18 3.29 3.45 3.77 3.99 4.17 4.27 4.19 4.11 3.95 4.00
0.00 0.00 0.00 0.00 0.01 0.02 0.02 0.03 0.04 0.07 0.08 0.12 0.19 0.24 0.32 0.42 0.49 0.49 0.54 0.63 0.68 0.85 1.11 1.30 1.51 1.98 2.44 2.65 2.72 2.76 2.98 3.26 3.52 3.74 4.08 4.41 4.71 4.94 5.10 5.14 4.70 4.46 4.32 4.26
0.00 0.00 0.00 0.01 0.01 0.01 0.02 0.03 0.06 0.09 0.08 0.11 0.20 0.38 0.49 0.51 0.52 0.62 0.81 0.94 1.04 1.12 1.35 1.45 1.65 2.04 2.41 2.61 2.76 2.89 3.15 3.58 4.12 4.46 4.87 5.31 5.51 5.57 5.38 5.13 5.00 4.83 4.68 4.57
0.00 0.00 0.00 0.01 0.01 0.01 0.01 0.01 0.04 0.05 0.06 0.12 0.19 0.42 0.72 0.76 0.78 0.97 1.11 1.02 1.07 1.24 1.45 1.63 1.83 2.08 2.40 2.58 2.70 3.02 3.54 4.15 4.70 5.14 5.69 6.20 6.33 6.15 5.86 5.44 5.04 4.77 4.50 4.20
0.00 0.00 0.01 0.01 0.01 0.01 0.01 0.01 0.02 0.03 0.03 0.09 0.14 0.33 0.84 1.02 1.04 1.24 1.46 1.21 1.13 1.13 1.24 1.46 1.67 1.86 2.16 2.31 2.54 2.93 3.54 4.25 4.96 5.75 6.40 6.79 6.72 6.40 6.01 5.38 4.80 4.28 3.90 3.59
0.01 0.01 0.01 0.01 0.01 0.01 0.01 0.01 0.02 0.03 0.04 0.09 0.12 0.31 0.87 1.26 1.41 1.55 1.45 1.24 1.11 1.07 1.05 1.07 1.17 1.38 1.60 1.92 2.27 2.70 3.32 4.06 4.73 5.37 5.88 6.04 5.96 5.79 5.32 4.64 4.06 3.69 3.35 3.01
0.03 0.03 0.02 0.01 0.01 0.01 0.01 0.03 0.11 0.16 0.20 0.19 0.16 0.38 0.90 1.26 1.45 1.37 1.25 1.20 1.05 0.97 0.93 0.88 0.88 1.07 1.34 1.56 1.91 2.36 2.81 3.39 3.85 4.24 4.65 4.79 4.80 4.64 4.37 3.93 3.52 3.14 2.66 2.31
0.11 0.08 0.04 0.02 0.02 0.02 0.02 0.03 0.15 0.29 0.29 0.33 0.38 0.68 1.15 1.24 1.29 1.22 1.13 1.08 0.97 0.92 0.90 0.90 0.95 1.06 1.25 1.45 1.67 1.87 2.15 2.51 2.66 2.72 2.94 3.15 3.19 3.19 3.11 2.86 2.62 2.36 2.03 1.70
0.20 0.13 0.06 0.03 0.02 0.02 0.02 0.03 0.07 0.13 0.16 0.36 0.66 1.03 1.49 1.41 1.31 1.27 1.26 1.09 0.95 0.87 0.85 0.88 0.91 0.94 1.00 1.12 1.20 1.28 1.40 1.56 1.63 1.70 1.74 1.83 1.91 1.94 1.90 1.79 1.62 1.45 1.29 1.09
0.19 0.16 0.07 0.04 0.03 0.04 0.05 0.07 0.09 0.16 0.34 0.56 0.81 1.25 1.83 1.93 1.60 1.31 1.12 0.93 0.79 0.77 0.79 0.81 0.81 0.82 0.84 0.84 0.88 0.92 0.96 1.05 1.14 1.20 1.19 1.21 1.23 1.20 1.12 1.05 1.01 0.93 0.83 0.75
0.19 0.19 0.10 0.06 0.08 0.10 0.09 0.11 0.15 0.20 0.25 0.53 0.91 1.56 1.83 2.07 2.01 1.51 1.15 1.03 0.93 0.84 0.78 0.80 0.80 0.71 0.68 0.68 0.70 0.75 0.78 0.80 0.83 0.87 0.89 0.90 0.86 0.82 0.79 0.75 0.71 0.66 0.59 0.51
0.21 0.27 0.25 0.17 0.13 0.12 0.11 0.14 0.21 0.40 0.43 0.44 0.87 1.74 1.89 2.17 2.22 1.85 1.51 1.41 1.34 1.05 0.90 0.87 0.80 0.69 0.63 0.63 0.62 0.63 0.65 0.67 0.71 0.66 0.66 0.69 0.64 0.57 0.55 0.53 0.47 0.43 0.41 0.37
0.19 0.35 0.60 0.57 0.42 0.24 0.17 0.17 0.20 0.26 0.40 0.55 0.99 1.88 2.15 2.12 2.14 1.96 1.68 1.57 1.65 1.52 1.30 1.10 0.93 0.81 0.73 0.67 0.59 0.56 0.52 0.51 0.55 0.54 0.51 0.53 0.52 0.49 0.45 0.40 0.35 0.31 0.32 0.33
0.15 0.37 0.82 1.09 0.79 0.47 0.32 0.23 0.20 0.27 0.52 0.66 0.98 1.57 1.95 2.04 2.07 2.04 2.03 2.00 1.96 1.75 1.51 1.27 1.04 0.91 0.83 0.75 0.66 0.60 0.55 0.48 0.45 0.47 0.47 0.45 0.42 0.40 0.39 0.35 0.33 0.31 0.27 0.25
0.25 0.57 0.62 0.54 0.46 0.42 0.35 0.31 0.29 0.30 0.36 0.65 1.01 1.36 1.76 1.95 1.99 2.15 2.29 2.19 1.89 1.59 1.42 1.32 1.18 1.06 0.95 0.84 0.75 0.65 0.56 0.50 0.44 0.46 0.49 0.47 0.40 0.35 0.33 0.32 0.30 0.29 0.26 0.22
0.30 0.53 0.53 0.48 0.37 0.42 0.42 0.43 0.45 0.43 0.48 0.73 1.07 1.57 1.88 2.04 2.12 2.15 2.14 2.10 1.96 1.71 1.53 1.40 1.27 1.15 1.03 0.90 0.83 0.78 0.72 0.66 0.56 0.52 0.55 0.52 0.46 0.39 0.35 0.29 0.25 0.24 0.21 0.18
0.28 0.46 0.72 0.69 0.42 0.58 0.88 0.73 0.61 0.63 0.68 0.85 1.13 1.41 1.56 1.68 1.86 2.05 2.10 2.01 1.97 1.80 1.63 1.49 1.41 1.32 1.22 1.11 1.02 0.93 0.79 0.66 0.57 0.51 0.48 0.47 0.42 0.36 0.32 0.25 0.23 0.23 0.24 0.22
0.23 0.44 0.63 0.63 0.73 1.15 1.02 0.65 0.58 0.70 0.76 0.76 0.88 0.99 1.19 1.33 1.50 1.74 1.93 1.98 2.00 1.87 1.77 1.67 1.52 1.38 1.29 1.16 0.98 0.78 0.62 0.53 0.46 0.42 0.38 0.33 0.30 0.29 0.26 0.24 0.23 0.25 0.26 0.25
0.14 0.33 0.59 0.70 0.97 1.14 1.00 0.62 0.54 0.80 0.98 0.73 0.74 0.76 0.80 0.89 1.07 1.48 1.62 1.68 1.77 1.75 1.66 1.60 1.48 1.34 1.16 0.97 0.76 0.61 0.51 0.46 0.40 0.38 0.35 0.30 0.25 0.25 0.26 0.26 0.26 0.28 0.28 0.27
0.16 0.29 0.57 0.75 1.07 1.31 1.19 0.53 0.33 0.59 1.20 0.90 0.77 0.80 0.80 0.94 1.12 1.15 1.17 1.18 1.24 1.34 1.36 1.34 1.23 1.07 0.91 0.75 0.59 0.54 0.49 0.45 0.40 0.34 0.31 0.25 0.23 0.24 0.24 0.26 0.28 0.27 0.28 0.26
0.38 0.46 0.68 0.84 1.08 1.17 0.64 0.35 0.45 1.03 1.30 0.96 0.75 0.80 0.96 1.13 1.05 0.79 0.70 0.82 0.94 1.02 1.07 1.07 1.00 0.89 0.76 0.61 0.56 0.58 0.54 0.47 0.35 0.28 0.28 0.27 0.24 0.22 0.21 0.25 0.29 0.28 0.26 0.28
0.52 0.67 0.81 0.89 1.12 1.15 0.48 0.40 0.71 0.85 0.70 0.61 0.59 0.62 0.63 0.62 0.58 0.53 0.51 0.62 0.72 0.83 0.86 0.85 0.83 0.76 0.67 0.59 0.58 0.58 0.53 0.38 0.30 0.32 0.36 0.34 0.29 0.19 0.18 0.26 0.30 0.27 0.26 0.29
0.46 0.60 0.69 0.83 1.00 0.76 0.38 0.36 0.39 0.39 0.47 0.47 0.50 0.52 0.42 0.41 0.45 0.45 0.45 0.55 0.66 0.69 0.67 0.65 0.64 0.61 0.60 0.57 0.59 0.56 0.46 0.32 0.29 0.35 0.37 0.33 0.25 0.21 0.20 0.24 0.26 0.24 0.24 0.23
0.43 0.30 0.40 0.55 0.59 0.43 0.34 0.30 0.31 0.34 0.36 0.37 0.40 0.40 0.38 0.34 0.31 0.32 0.40 0.52 0.58 0.56 0.52 0.53 0.56 0.57 0.56 0.54 0.54 0.50 0.41 0.37 0.40 0.44 0.38 0.30 0.26 0.22 0.19 0.18 0.16 0.16 0.17 0.16
0.44 0.28 0.38 0.53 0.54 0.43 0.40 0.33 0.31 0.34 0.34 0.32 0.34 0.38 0.33 0.27 0.26 0.27 0.35 0.39 0.43 0.47 0.47 0.51 0.60 0.60 0.51 0.45 0.42 0.36 0.35 0.37 0.43 0.42 0.34 0.29 0.24 0.19 0.17 0.14 0.10 0.10 0.09 0.07
0.33 0.34 0.38 0.50 0.46 0.44 0.45 0.30 0.25 0.33 0.41 0.42 0.40 0.34 0.29 0.26 0.23 0.23 0.30 0.33 0.35 0.40 0.46 0.54 0.54 0.48 0.38 0.34 0.33 0.25 0.24 0.27 0.32 0.30 0.26 0.21 0.16 0.14 0.12 0.12 0.10 0.04 0.03 0.03

GEFSCGP_prec_meanprecacc_156.txt.gz
Total_Precipitation_Accumulation
0.00 0.00 0.00 0.01 0.01 0.01 0.01 0.02 0.03 0.04 0.05 0.09 0.14 0.17 0.27 0.39 0.50 0.53 0.51 0.52 0.54 0.75 0.92 1.14 1.47 1.85 2.39 2.46 2.41 2.55 2.79 2.90 2.97 3.23 3.33 3.49 3.80 4.02 4.19 4.29 4.21 4.13 3.98 4.03
0.00 0.00 0.00 0.00 0.01 0.02 0.02 0.03 0.05 0.07 0.09 0.13 0.20 0.26 0.33 0.44 0.50 0.50 0.56 0.66 0.71 0.89 1.15 1.33 1.53 2.01 2.49 2.72 2.80 2.84 3.06 3.34 3.58 3.79 4.12 4.44 4.74 4.96 5.13 5.17 4.73 4.48 4.36 4.30
0.00 0.00 0.00 0.01 0.01 0.02 0.02 0.03 0.06 0.09 0.09 0.13 0.21 0.39 0.50 0.52 0.54 0.64 0.83 0.97 1.06 1.15 1.37 1.48 1.69 2.09 2.47 2.67 2.82 2.95 3.20 3.62 4.16 4.50 4.91 5.35 5.55 5.60 5.42 5.16 5.03 4.86 4.70 4.59
0.00 0.00 0.01 0.01 0.01 0.01 0.01 0.02 0.04 0.05 0.07 0.14 0.21 0.45 0.74 0.77 0.81 0.99 1.13 1.04 1.09 1.27 1.48 1.67 1.89 2.14 2.45 2.64 2.76 3.08 3.59 4.20 4.74 5.18 5.73 6.26 6.39 6.22 5.90 5.48 5.08 4.80 4.52 4.21
0.01 0.01 0.01 0.01 0.02 0.02 0.02 0.01 0.03 0.04 0.04 0.10 0.16 0.36 0.87 1.04 1.07 1.27 1.48 1.22 1.14 1.17 1.29 1.51 1.72 1.92 2.22 2.37 2.61 2.99 3.60 4.30 5.00 5.80 6.47 6.86 6.78 6.46 6.06 5.41 4.84 4.32 3.93 3.61
0.01 0.01 0.01 0.01 0.01 0.01 0.01 0.02 0.03 0.04 0.05 0.11 0.13 0.32 0.88 1.27 1.42 1.56 1.46 1.25 1.13 1.11 1.09 1.12 1.24 1.48 1.72 2.02 2.35 2.76 3.38 4.12 4.78 5.41 5.92 6.08 6.00 5.84 5.36 4.68 4.10 3.73 3.39 3.05
0.03 0.03 0.02 0.02 0.01 0.01 0.01 0.03 0.11 0.17 0.21 0.19 0.16 0.38 0.91 1.26 1.45 1.38 1.26 1.22 1.07 1.00 0.97 0.94 0.97 1.18 1.46 1.71 2.05 2.47 2.92 3.50 3.92 4.28 4.69 4.83 4.85 4.68 4.40 3.96 3.55 3.16 2.68 2.33
0.11 0.08 0.04 0.02 0.02 0.02 0.02 0.03 0.16 0.30 0.29 0.33 0.38 0.69 1.16 1.25 1.29 1.23 1.14 1.09 0.99 0.96 0.95 0.97 1.05 1.18 1.39 1.58 1.78 1.94 2.21 2.56 2.70 2.76 2.97 3.18 3.22 3.23 3.15 2.89 2.64 2.38 2.05 1.72
0.20 0.13 0.06 0.03 0.02 0.02 0.02 0.03 0.07 0.13 0.16 0.36 0.67 1.03 1.49 1.41 1.32 1.27 1.27 1.11 0.98 0.90 0.88 0.92 0.97 1.02 1.08 1.18 1.25 1.32 1.45 1.60 1.66 1.73 1.76 1.85 1.94 1.97 1.93 1.82 1.63 1.46 1.30 1.10
0.19 0.16 0.07 0.04 0.03 0.04 0.05 0.07 0.09 0.16 0.35 0.57 0.82 1.25 1.83 1.93 1.61 1.31 1.13 0.95 0.82 0.79 0.81 0.84 0.84 0.85 0.87 0.87 0.91 0.96 1.01 1.08 1.17 1.22 1.22 1.23 1.26 1.23 1.14 1.07 1.03 0.94 0.84 0.76
0.19 0.19 0.10 0.06 0.08 0.10 0.09 0.11 0.15 0.20 0.25 0.53 0.92 1.56 1.84 2.08 2.01 1.52 1.16 1.04 0.96 0.86 0.80 0.82 0.81 0.73 0.70 0.70 0.73 0.78 0.81 0.83 0.87 0.91 0.93 0.93 0.89 0.84 0.81 0.77 0.73 0.68 0.60 0.53
0.21 0.27 0.25 0.17 0.13 0.12 0.11 0.14 0.21 0.41 0.44 0.44 0.88 1.76 1.89 2.17 2.23 1.86 1.52 1.42 1.35 1.07 0.91 0.88 0.81 0.70 0.64 0.64 0.63 0.65 0.66 0.69 0.73 0.69 0.68 0.72 0.66 0.59 0.57 0.55 0.49 0.45 0.43 0.39
0.19 0.35 0.61 0.57 0.42 0.24 0.17 0.17 0.20 0.26 0.41 0.56 1.00 1.89 2.15 2.12 2.15 1.97 1.69 1.58 1.66 1.54 1.32 1.11 0.94 0.82 0.74 0.68 0.61 0.58 0.54 0.53 0.57 0.57 0.55 0.56 0.54 0.50 0.47 0.43 0.38 0.34 0.34 0.35
0.15 0.38 0.83 1.09 0.79 0.47 0.33 0.23 0.21 0.28 0.54 0.68 0.99 1.58 1.95 2.05 2.07 2.05 2.04 2.01 1.97 1.77 1.53 1.30 1.05 0.92 0.84 0.76 0.68 0.62 0.57 0.50 0.48 0.51 0.51 0.49 0.46 0.43 0.41 0.38 0.36 0.34 0.29 0.26
0.25 0.57 0.62 0.54 0.46 0.42 0.35 0.32 0.30 0.30 0.36 0.66 1.02 1.36 1.77 1.96 2.00 2.16 2.30 2.20 1.90 1.60 1.44 1.34 1.20 1.08 0.96 0.86 0.77 0.67 0.58 0.52 0.47 0.49 0.52 0.50 0.43 0.37 0.35 0.32 0.31 0.30 0.28 0.24
0.30 0.53 0.53 0.48 0.37 0.42 0.42 0.43 0.45 0.43 0.48 0.74 1.08 1.58 1.89 2.04 2.12 2.16 2.15 2.11 1.98 1.72 1.54 1.42 1.30 1.17 1.05 0.92 0.85 0.80 0.74 0.68 0.59 0.56 0.59 0.56 0.49 0.42 0.36 0.30 0.26 0.24 0.22 0.19
0.28 0.46 0.73 0.69 0.42 0.58 0.89 0.73 0.61 0.64 0.68 0.86 1.15 1.43 1.57 1.68 1.86 2.06 2.11 2.03 1.99 1.81 1.64 1.51 1.44 1.35 1.24 1.13 1.04 0.96 0.81 0.69 0.60 0.54 0.52 0.50 0.45 0.39 0.33 0.27 0.24 0.25 0.26 0.23
0.23 0.44 0.63 0.64 0.73 1.16 1.02 0.65 0.59 0.71 0.77 0.76 0.89 0.99 1.19 1.33 1.51 1.76 1.95 2.00 2.02 1.88 1.78 1.68 1.54 1.42 1.32 1.18 1.01 0.81 0.66 0.57 0.49 0.45 0.42 0.37 0.33 0.31 0.28 0.25 0.25 0.27 0.29 0.28
0.14 0.34 0.59 0.71 0.97 1.14 1.00 0.62 0.54 0.80 0.99 0.74 0.75 0.77 0.80 0.89 1.09 1.51 1.64 1.69 1.79 1.76 1.67 1.61 1.50 1.37 1.20 0.99 0.79 0.65 0.56 0.50 0.44 0.41 0.39 0.33 0.27 0.27 0.28 0.28 0.29 0.31 0.31 0.30
0.16 0.30 0.59 0.76 1.09 1.31 1.19 0.53 0.33 0.60 1.22 0.90 0.78 0.82 0.81 0.95 1.13 1.17 1.17 1.19 1.25 1.36 1.38 1.36 1.25 1.09 0.95 0.77 0.62 0.58 0.53 0.49 0.44 0.38 0.35 0.29 0.26 0.26 0.26 0.29 0.31 0.30 0.31 0.30
0.39 0.47 0.69 0.85 1.10 1.18 0.65 0.35 0.46 1.05 1.31 0.96 0.76 0.82 0.97 1.15 1.07 0.80 0.71 0.84 0.96 1.04 1.10 1.11 1.04 0.93 0.79 0.64 0.60 0.63 0.60 0.51 0.39 0.31 0.32 0.31 0.28 0.25 0.24 0.28 0.32 0.31 0.28 0.30
0.53 0.68 0.83 0.90 1.13 1.16 0.48 0.40 0.72 0.87 0.70 0.61 0.59 0.63 0.64 0.63 0.59 0.54 0.52 0.63 0.74 0.86 0.89 0.89 0.88 0.80 0.71 0.63 0.63 0.64 0.60 0.43 0.33 0.35 0.38 0.37 0.31 0.22 0.20 0.29 0.33 0.29 0.28 0.32
0.47 0.62 0.71 0.85 1.01 0.77 0.38 0.37 0.40 0.40 0.48 0.47 0.51 0.53 0.43 0.42 0.46 0.46 0.47 0.57 0.67 0.71 0.70 0.69 0.69 0.66 0.65 0.63 0.64 0.62 0.53 0.37 0.32 0.38 0.39 0.35 0.26 0.23 0.23 0.27 0.29 0.27 0.26 0.25
0.45 0.32 0.42 0.57 0.60 0.44 0.35 0.30 0.31 0.36 0.38 0.38 0.42 0.42 0.39 0.35 0.33 0.34 0.42 0.54 0.60 0.59 0.55 0.56 0.60 0.62 0.63 0.60 0.58 0.55 0.45 0.40 0.43 0.46 0.39 0.31 0.27 0.23 0.20 0.19 0.17 0.17 0.18 0.18
0.44 0.29 0.39 0.54 0.55 0.44 0.41 0.35 0.33 0.36 0.36 0.33 0.36 0.40 0.34 0.28 0.27 0.29 0.38 0.42 0.46 0.49 0.50 0.55 0.64 0.65 0.57 0.50 0.46 0.39 0.38 0.40 0.45 0.44 0.35 0.30 0.25 0.20 0.18 0.15 0.11 0.10 0.10 0.08
0.33 0.34 0.40 0.51 0.47 0.46 0.47 0.33 0.28 0.35 0.42 0.43 0.41 0.35 0.30 0.27 0.24 0.25 0.32 0.36 0.37 0.42 0.48 0.57 0.57 0.52 0.44 0.39 0.38 0.29 0.27 0.29 0.32 0.31 0.26 0.22 0.17 0.15 0.12 0.12 0.10 0.05 0.03 0.03

GEFSCGP_prec_meanprecacc_162.txt.gz
Total_Precipitation_Accumulation
0.00 0.00 0.00 0.01 0.01 0.02 0.04 0.05 0.05 0.08 0.09 0.11 0.15 0.21 0.33 0.41 0.52 0.56 0.56 0.57 0.60 0.80 0.97 1.19 1.55 1.92 2.45 2.52 2.48 2.62 2.85 2.98 3.07 3.32 3.41 3.58 3.90 4.10 4.27 4.36 4.27 4.18 4.02 4.08
0.00 0.00 0.00 0.01 0.01 0.02 0.03 0.08 0.09 0.09 0.11 0.15 0.22 0.29 0.39 0.47 0.52 0.52 0.59 0.71 0.75 0.91 1.16 1.34 1.55 2.04 2.53 2.77 2.86 2.90 3.12 3.41 3.67 3.89 4.24 4.57 4.85 5.05 5.22 5.27 4.83 4.56 4.42 4.36
0.01 0.00 0.00 0.01 0.01 0.02 0.03 0.05 0.09 0.11 0.12 0.14 0.23 0.43 0.56 0.57 0.57 0.67 0.86 1.03 1.10 1.17 1.39 1.50 1.70 2.11 2.49 2.70 2.86 2.99 3.25 3.68 4.23 4.59 5.00 5.43 5.63 5.68 5.52 5.27 5.14 4.94 4.77 4.64
0.00 0.00 0.01 0.01 0.02 0.02 0.02 0.03 0.05 0.06 0.08 0.15 0.22 0.49 0.78 0.83 0.86 1.02 1.17 1.11 1.13 1.31 1.52 1.70 1.90 2.16 2.48 2.68 2.80 3.13 3.65 4.27 4.82 5.28 5.83 6.35 6.48 6.32 6.00 5.56 5.16 4.87 4.57 4.25
0.01 0.01 0.01 0.02 0.03 0.05 0.04 0.02 0.03 0.04 0.04 0.11 0.17 0.38 0.92 1.09 1.14 1.33 1.56 1.29 1.18 1.20 1.33 1.55 1.74 1.95 2.26 2.42 2.66 3.05 3.66 4.37 5.07 5.89 6.57 6.97 6.88 6.55 6.15 5.49 4.91 4.39 3.99 3.66
0.01 0.01 0.01 0.02 0.03 0.05 0.04 0.03 0.03 0.04 0.05 0.12 0.15 0.35 0.94 1.32 1.47 1.63 1.53 1.31 1.18 1.14 1.11 1.16 1.26 1.50 1.76 2.08 2.41 2.82 3.45 4.19 4.86 5.49 6.00 6.16 6.09 5.92 5.46 4.77 4.18 3.81 3.47 3.13
0.03 0.03 0.02 0.02 0.02 0.05 0.05 0.05 0.13 0.20 0.25 0.23 0.21 0.41 0.95 1.31 1.50 1.44 1.33 1.30 1.13 1.06 1.01 0.98 1.01 1.22 1.50 1.75 2.11 2.53 2.99 3.58 4.01 4.36 4.76 4.90 4.92 4.76 4.50 4.08 3.67 3.27 2.77 2.41
0.12 0.09 0.05 0.02 0.02 0.06 0.05 0.04 0.18 0.34 0.34 0.37 0.41 0.73 1.20 1.27 1.31 1.25 1.17 1.14 1.07 1.06 1.03 1.03 1.09 1.20 1.41 1.61 1.82 2.00 2.28 2.63 2.78 2.85 3.05 3.26 3.31 3.31 3.25 3.03 2.77 2.49 2.14 1.79
0.22 0.14 0.07 0.03 0.02 0.04 0.04 0.04 0.08 0.15 0.18 0.40 0.70 1.06 1.54 1.44 1.34 1.30 1.30 1.14 1.04 0.97 0.93 0.97 1.01 1.04 1.10 1.20 1.28 1.36 1.50 1.66 1.73 1.80 1.84 1.93 2.02 2.05 2.00 1.89 1.71 1.53 1.37 1.16
0.20 0.16 0.08 0.04 0.03 0.04 0.06 0.07 0.10 0.17 0.37 0.61 0.87 1.33 1.93 2.00 1.66 1.36 1.16 0.98 0.85 0.83 0.87 0.93 0.91 0.89 0.89 0.89 0.94 0.99 1.05 1.14 1.22 1.27 1.27 1.28 1.32 1.29 1.20 1.14 1.09 1.00 0.90 0.82
0.19 0.20 0.10 0.06 0.08 0.10 0.10 0.11 0.15 0.21 0.27 0.57 0.98 1.66 1.95 2.18 2.06 1.57 1.19 1.06 0.97 0.88 0.83 0.87 0.86 0.76 0.72 0.72 0.75 0.80 0.83 0.85 0.89 0.94 0.96 0.97 0.94 0.89 0.86 0.83 0.79 0.73 0.65 0.57
0.21 0.27 0.25 0.17 0.13 0.12 0.11 0.14 0.21 0.42 0.46 0.47 0.93 1.82 1.93 2.22 2.27 1.90 1.54 1.43 1.36 1.09 0.94 0.91 0.85 0.73 0.67 0.66 0.64 0.66 0.67 0.70 0.75 0.73 0.72 0.74 0.68 0.62 0.61 0.60 0.53 0.48 0.46 0.42
0.19 0.35 0.62 0.60 0.44 0.24 0.17 0.17 0.20 0.27 0.42 0.57 1.03 1.95 2.17 2.16 2.19 2.03 1.72 1.59 1.67 1.55 1.34 1.14 0.96 0.84 0.78 0.71 0.63 0.59 0.55 0.55 0.58 0.58 0.58 0.60 0.58 0.54 0.52 0.49 0.43 0.39 0.38 0.39
0.15 0.38 0.85 1.15 0.83 0.48 0.33 0.23 0.21 0.28 0.54 0.69 1.01 1.62 2.00 2.10 2.12 2.09 2.06 2.03 1.98 1.79 1.55 1.32 1.08 0.96 0.89 0.80 0.70 0.64 0.59 0.52 0.49 0.52 0.53 0.53 0.50 0.48 0.46 0.43 0.40 0.39 0.34 0.30
0.26 0.59 0.63 0.55 0.47 0.43 0.36 0.32 0.30 0.31 0.37 0.67 1.04 1.40 1.83 1.99 2.04 2.21 2.34 2.22 1.92 1.62 1.45 1.36 1.24 1.12 1.01 0.89 0.80 0.69 0.60 0.53 0.49 0.51 0.54 0.53 0.47 0.41 0.38 0.35 0.34 0.33 0.32 0.27
0.30 0.54 0.54 0.48 0.38 0.42 0.43 0.43 0.45 0.43 0.48 0.74 1.09 1.61 1.94 2.10 2.17 2.21 2.17 2.12 1.99 1.73 1.56 1.45 1.33 1.21 1.10 0.96 0.89 0.83 0.75 0.69 0.61 0.58 0.61 0.58 0.53 0.44 0.39 0.32 0.29 0.28 0.25 0.22
0.28 0.47 0.74 0.70 0.42 0.59 0.90 0.73 0.62 0.64 0.68 0.86 1.16 1.45 1.60 1.74 1.89 2.07 2.12 2.03 1.99 1.82 1.66 1.54 1.47 1.39 1.30 1.20 1.10 0.99 0.83 0.71 0.62 0.56 0.54 0.53 0.48 0.43 0.36 0.30 0.27 0.29 0.30 0.26
0.24 0.45 0.65 0.65 0.74 1.18 1.02 0.65 0.59 0.72 0.77 0.77 0.90 1.01 1.22 1.38 1.54 1.77 1.96 2.00 2.03 1.89 1.80 1.70 1.57 1.47 1.38 1.24 1.08 0.86 0.68 0.58 0.51 0.47 0.45 0.40 0.36 0.35 0.33 0.29 0.29 0.31 0.33 0.32
0.14 0.35 0.61 0.73 0.99 1.16 1.01 0.62 0.55 0.81 0.99 0.74 0.76 0.79 0.81 0.91 1.10 1.52 1.65 1.70 1.80 1.77 1.69 1.65 1.54 1.43 1.27 1.05 0.84 0.71 0.59 0.53 0.46 0.44 0.43 0.36 0.30 0.31 0.32 0.32 0.32 0.35 0.35 0.35
0.16 0.30 0.60 0.78 1.12 1.36 1.21 0.53 0.33 0.60 1.24 0.92 0.80 0.84 0.82 0.97 1.17 1.21 1.19 1.20 1.27 1.37 1.40 1.40 1.29 1.14 1.01 0.83 0.68 0.64 0.58 0.52 0.47 0.41 0.37 0.31 0.29 0.30 0.32 0.34 0.36 0.34 0.34 0.33
0.40 0.49 0.72 0.89 1.14 1.22 0.66 0.35 0.46 1.08 1.37 0.98 0.77 0.84 0.99 1.18 1.10 0.83 0.72 0.85 0.97 1.05 1.11 1.13 1.07 0.99 0.86 0.70 0.66 0.69 0.65 0.54 0.41 0.33 0.34 0.32 0.30 0.29 0.29 0.32 0.35 0.35 0.32 0.34
0.55 0.70 0.85 0.94 1.18 1.20 0.49 0.41 0.74 0.90 0.72 0.62 0.61 0.64 0.67 0.65 0.60 0.54 0.53 0.64 0.75 0.88 0.92 0.93 0.91 0.85 0.77 0.70 0.69 0.70 0.65 0.47 0.36 0.38 0.41 0.39 0.33 0.23 0.23 0.32 0.36 0.33 0.32 0.35
0.50 0.65 0.74 0.88 1.06 0.80 0.39 0.38 0.41 0.41 0.49 0.48 0.53 0.55 0.45 0.43 0.47 0.47 0.48 0.58 0.70 0.74 0.74 0.74 0.74 0.71 0.72 0.70 0.69 0.66 0.57 0.42 0.38 0.43 0.44 0.38 0.28 0.24 0.24 0.29 0.30 0.28 0.29 0.27
0.48 0.36 0.45 0.59 0.61 0.45 0.36 0.31 0.32 0.37 0.39 0.39 0.43 0.43 0.40 0.36 0.34 0.36 0.44 0.56 0.63 0.62 0.59 0.60 0.65 0.66 0.67 0.65 0.63 0.60 0.50 0.45 0.48 0.51 0.43 0.34 0.29 0.24 0.21 0.20 0.17 0.18 0.19 0.19
0.47 0.33 0.44 0.58 0.59 0.47 0.43 0.36 0.34 0.37 0.36 0.34 0.38 0.42 0.36 0.29 0.28 0.30 0.39 0.43 0.48 0.52 0.53 0.58 0.67 0.68 0.59 0.53 0.49 0.44 0.43 0.45 0.50 0.48 0.38 0.33 0.27 0.21 0.19 0.15 0.11 0.11 0.10 0.08
0.34 0.36 0.44 0.57 0.55 0.52 0.50 0.35 0.30 0.37 0.43 0.44 0.43 0.37 0.31 0.29 0.26 0.26 0.32 0.36 0.38 0.44 0.50 0.59 0.59 0.53 0.45 0.41 0.40 0.32 0.30 0.32 0.35 0.33 0.28 0.23 0.18 0.16 0.13 0.13 0.11 0.05 0.03 0.03

GEFSCGP_prec_meanprecacc_168.txt.gz
Total_Precipitation_Accumulation
0.00 0.00 0.01 0.02 0.02 0.02 0.05 0.07 0.08 0.11 0.15 0.17 0.22 0.30 0.40 0.49 0.57 0.60 0.60 0.64 0.73 0.99 1.15 1.37 1.70 2.06 2.60 2.66 2.58 2.69 2.90 3.02 3.11 3.36 3.46 3.63 3.95 4.15 4.31 4.40 4.31 4.23 4.09 4.14
0.00 0.01 0.01 0.01 0.02 0.03 0.04 0.09 0.11 0.11 0.14 0.20 0.32 0.40 0.50 0.57 0.58 0.57 0.65 0.78 0.89 1.12 1.40 1.54 1.73 2.16 2.62 2.84 2.91 2.94 3.15 3.43 3.70 3.93 4.29 4.62 4.90 5.10 5.27 5.31 4.87 4.62 4.50 4.44
0.01 0.01 0.01 0.01 0.02 0.02 0.04 0.07 0.12 0.14 0.14 0.20 0.36 0.55 0.67 0.72 0.70 0.76 0.96 1.17 1.29 1.34 1.60 1.70 1.87 2.22 2.57 2.77 2.91 3.04 3.30 3.72 4.26 4.62 5.05 5.48 5.67 5.72 5.55 5.30 5.18 5.03 4.87 4.73
0.00 0.00 0.01 0.01 0.02 0.02 0.03 0.05 0.10 0.10 0.10 0.18 0.31 0.59 0.88 0.92 0.97 1.11 1.28 1.27 1.36 1.51 1.72 1.85 2.04 2.27 2.56 2.78 2.89 3.22 3.73 4.32 4.86 5.31 5.86 6.39 6.54 6.37 6.06 5.63 5.24 4.95 4.66 4.33
0.01 0.01 0.01 0.02 0.03 0.05 0.04 0.04 0.08 0.09 0.05 0.12 0.23 0.46 1.01 1.17 1.23 1.45 1.68 1.43 1.38 1.42 1.51 1.73 1.89 2.05 2.40 2.56 2.76 3.13 3.72 4.42 5.11 5.92 6.60 7.00 6.91 6.60 6.21 5.56 4.98 4.48 4.09 3.76
0.01 0.01 0.01 0.02 0.03 0.05 0.05 0.04 0.06 0.08 0.07 0.13 0.18 0.40 0.99 1.41 1.56 1.70 1.64 1.47 1.40 1.30 1.27 1.34 1.39 1.65 1.96 2.23 2.48 2.87 3.50 4.24 4.90 5.53 6.04 6.20 6.14 5.97 5.50 4.83 4.25 3.89 3.56 3.23
0.03 0.03 0.02 0.02 0.02 0.05 0.06 0.06 0.16 0.24 0.27 0.25 0.24 0.45 1.00 1.37 1.54 1.50 1.42 1.41 1.23 1.15 1.14 1.12 1.15 1.33 1.64 1.86 2.18 2.58 3.03 3.64 4.08 4.43 4.82 4.96 4.99 4.82 4.56 4.15 3.74 3.36 2.89 2.55
0.12 0.09 0.05 0.02 0.03 0.06 0.05 0.06 0.21 0.38 0.36 0.39 0.44 0.77 1.27 1.37 1.37 1.30 1.23 1.20 1.13 1.12 1.12 1.13 1.18 1.31 1.54 1.68 1.88 2.06 2.34 2.69 2.84 2.90 3.10 3.31 3.35 3.36 3.30 3.08 2.84 2.57 2.23 1.87
0.22 0.15 0.07 0.03 0.02 0.04 0.05 0.05 0.10 0.17 0.19 0.43 0.73 1.12 1.59 1.54 1.46 1.40 1.39 1.22 1.13 1.07 1.04 1.11 1.15 1.13 1.17 1.26 1.33 1.41 1.55 1.71 1.77 1.84 1.87 1.96 2.05 2.08 2.03 1.92 1.74 1.56 1.40 1.20
0.21 0.17 0.08 0.04 0.03 0.05 0.06 0.08 0.11 0.18 0.39 0.63 0.90 1.38 1.99 2.05 1.74 1.46 1.27 1.07 0.96 0.94 0.97 1.05 1.07 0.98 0.96 0.95 0.98 1.03 1.09 1.17 1.26 1.31 1.30 1.31 1.34 1.31 1.23 1.15 1.11 1.02 0.93 0.84
0.20 0.21 0.11 0.06 0.08 0.10 0.10 0.13 0.16 0.21 0.29 0.60 1.04 1.72 2.01 2.25 2.13 1.68 1.33 1.15 1.04 0.94 0.89 0.93 0.93 0.84 0.79 0.78 0.79 0.83 0.86 0.88 0.92 0.95 0.97 0.98 0.95 0.90 0.88 0.84 0.81 0.75 0.67 0.59
0.22 0.28 0.26 0.17 0.14 0.13 0.12 0.15 0.22 0.43 0.47 0.49 0.97 1.87 1.98 2.29 2.35 2.03 1.71 1.55 1.45 1.17 1.01 0.97 0.90 0.78 0.71 0.69 0.67 0.69 0.70 0.72 0.77 0.75 0.73 0.75 0.69 0.63 0.62 0.61 0.55 0.50 0.48 0.44
0.20 0.35 0.63 0.61 0.44 0.25 0.17 0.18 0.21 0.27 0.43 0.60 1.07 1.99 2.23 2.20 2.25 2.11 1.84 1.77 1.82 1.67 1.42 1.20 1.01 0.88 0.81 0.74 0.66 0.62 0.58 0.57 0.61 0.61 0.60 0.61 0.58 0.55 0.52 0.50 0.44 0.40 0.40 0.41
0.16 0.38 0.85 1.16 0.84 0.49 0.34 0.24 0.22 0.28 0.55 0.70 1.03 1.65 2.03 2.15 2.18 2.17 2.17 2.14 2.12 1.87 1.59 1.36 1.11 0.99 0.92 0.83 0.73 0.67 0.62 0.55 0.51 0.54 0.55 0.53 0.51 0.49 0.47 0.43 0.41 0.40 0.35 0.31
0.26 0.60 0.64 0.55 0.48 0.44 0.36 0.32 0.30 0.31 0.38 0.68 1.05 1.42 1.86 2.03 2.08 2.29 2.46 2.32 2.00 1.67 1.48 1.39 1.26 1.15 1.03 0.92 0.84 0.73 0.63 0.56 0.51 0.53 0.56 0.54 0.48 0.42 0.39 0.37 0.35 0.35 0.33 0.28
0.31 0.55 0.55 0.49 0.38 0.44 0.43 0.44 0.45 0.44 0.49 0.75 1.10 1.64 1.97 2.13 2.21 2.26 2.23 2.17 2.04 1.76 1.57 1.47 1.35 1.24 1.12 0.99 0.91 0.86 0.79 0.72 0.64 0.61 0.63 0.60 0.54 0.46 0.40 0.34 0.31 0.29 0.27 0.23
0.29 0.48 0.75 0.71 0.43 0.60 0.91 0.75 0.62 0.65 0.69 0.86 1.17 1.48 1.63 1.79 1.95 2.13 2.16 2.06 2.01 1.84 1.67 1.55 1.49 1.40 1.31 1.22 1.13 1.02 0.87 0.76 0.67 0.59 0.58 0.56 0.51 0.45 0.38 0.31 0.29 0.30 0.31 0.27
0.25 0.47 0.67 0.67 0.77 1.20 1.04 0.66 0.60 0.73 0.78 0.77 0.92 1.04 1.25 1.42 1.60 1.82 1.99 2.02 2.04 1.90 1.80 1.71 1.58 1.48 1.39 1.26 1.10 0.91 0.73 0.64 0.57 0.52 0.49 0.43 0.39 0.37 0.34 0.31 0.30 0.33 0.34 0.33
0.15 0.37 0.63 0.75 1.03 1.19 1.03 0.64 0.56 0.82 1.01 0.76 0.80 0.83 0.86 0.95 1.16 1.59 1.68 1.72 1.82 1.79 1.70 1.65 1.54 1.44 1.28 1.06 0.87 0.75 0.64 0.60 0.55 0.51 0.48 0.40 0.33 0.33 0.35 0.34 0.34 0.36 0.36 0.36
0.18 0.33 0.63 0.82 1.17 1.40 1.24 0.55 0.35 0.63 1.28 0.94 0.83 0.87 0.86 1.00 1.22 1.23 1.20 1.22 1.29 1.38 1.41 1.41 1.30 1.16 1.04 0.87 0.73 0.72 0.66 0.59 0.56 0.49 0.44 0.36 0.32 0.33 0.35 0.38 0.38 0.36 0.36 0.35
0.44 0.55 0.77 0.94 1.20 1.26 0.69 0.37 0.48 1.11 1.41 1.02 0.81 0.87 1.03 1.21 1.12 0.85 0.74 0.87 0.98 1.06 1.12 1.15 1.09 1.02 0.89 0.73 0.70 0.79 0.78 0.65 0.49 0.38 0.37 0.36 0.33 0.32 0.31 0.35 0.37 0.37 0.34 0.35
0.59 0.76 0.91 0.99 1.24 1.25 0.52 0.43 0.76 0.93 0.75 0.65 0.64 0.67 0.69 0.68 0.63 0.57 0.55 0.66 0.76 0.88 0.93 0.94 0.94 0.89 0.80 0.73 0.73 0.76 0.72 0.55 0.43 0.42 0.43 0.42 0.36 0.25 0.24 0.33 0.37 0.34 0.33 0.36
0.53 0.68 0.78 0.93 1.11 0.84 0.44 0.42 0.45 0.46 0.53 0.52 0.56 0.58 0.48 0.46 0.50 0.49 0.50 0.59 0.70 0.75 0.75 0.76 0.76 0.74 0.74 0.72 0.73 0.71 0.61 0.46 0.41 0.46 0.46 0.41 0.31 0.25 0.25 0.29 0.31 0.29 0.29 0.28
0.53 0.40 0.48 0.61 0.64 0.48 0.40 0.36 0.39 0.45 0.45 0.44 0.49 0.50 0.45 0.40 0.38 0.39 0.47 0.57 0.64 0.62 0.60 0.62 0.67 0.68 0.69 0.66 0.65 0.63 0.53 0.47 0.50 0.53 0.45 0.36 0.30 0.24 0.21 0.20 0.17 0.18 0.19 0.19
0.50 0.36 0.48 0.62 0.63 0.53 0.48 0.42 0.43 0.47 0.46 0.41 0.43 0.47 0.40 0.33 0.32 0.34 0.42 0.45 0.49 0.53 0.53 0.58 0.68 0.69 0.60 0.54 0.51 0.45 0.45 0.47 0.52 0.49 0.40 0.34 0.28 0.21 0.19 0.16 0.11 0.11 0.10 0.08
0.37 0.38 0.46 0.60 0.60 0.59 0.56 0.41 0.38 0.46 0.52 0.51 0.49 0.41 0.34 0.32 0.30 0.30 0.36 0.38 0.39 0.44 0.51 0.59 0.60 0.54 0.46 0.43 0.42 0.34 0.33 0.35 0.38 0.35 0.29 0.24 0.19 0.16 0.13 0.13 0.11 0.05 0.03 0.03

GEFSCGP_prec_meanprecacc_174.txt.gz
Total_Precipitation_Accumulation
0.01 0.01 0.01 0.02 0.02 0.03 0.05 0.07 0.08 0.11 0.15 0.18 0.24 0.31 0.43 0.52 0.62 0.65 0.65 0.69 0.77 1.05 1.26 1.55 1.88 2.21 2.71 2.76 2.67 2.78 2.99 3.13 3.23 3.46 3.55 3.72 4.02 4.23 4.39 4.48 4.39 4.32 4.18 4.24
0.00 0.01 0.01 0.02 0.02 0.03 0.05 0.09 0.11 0.11 0.14 0.21 0.33 0.42 0.52 0.61 0.66 0.64 0.71 0.85 0.95 1.23 1.55 1.75 1.94 2.29 2.71 2.93 3.01 3.05 3.28 3.58 3.82 4.04 4.41 4.73 4.97 5.16 5.34 5.37 4.92 4.68 4.57 4.51
0.01 0.01 0.01 0.02 0.02 0.03 0.04 0.07 0.12 0.14 0.15 0.20 0.37 0.57 0.70 0.77 0.82 0.88 1.05 1.27 1.37 1.44 1.75 1.86 1.99 2.32 2.66 2.87 3.02 3.17 3.41 3.84 4.39 4.74 5.15 5.56 5.74 5.78 5.62 5.36 5.22 5.07 4.92 4.79
0.00 0.01 0.01 0.01 0.02 0.03 0.03 0.05 0.11 0.10 0.10 0.18 0.33 0.62 0.93 0.97 1.05 1.23 1.40 1.36 1.44 1.60 1.80 1.94 2.11 2.34 2.65 2.86 2.97 3.32 3.85 4.46 4.98 5.41 5.94 6.45 6.59 6.42 6.11 5.67 5.27 5.00 4.71 4.40
0.01 0.01 0.01 0.02 0.03 0.05 0.04 0.04 0.09 0.09 0.06 0.13 0.24 0.49 1.09 1.24 1.30 1.53 1.77 1.51 1.44 1.48 1.56 1.79 1.95 2.12 2.48 2.65 2.83 3.21 3.82 4.52 5.20 6.00 6.67 7.07 6.97 6.66 6.26 5.60 5.03 4.55 4.16 3.82
0.01 0.01 0.01 0.02 0.03 0.05 0.05 0.04 0.06 0.08 0.07 0.14 0.19 0.41 1.03 1.44 1.57 1.73 1.70 1.54 1.44 1.35 1.32 1.39 1.45 1.71 2.05 2.32 2.57 2.96 3.58 4.34 5.01 5.64 6.14 6.30 6.23 6.05 5.56 4.89 4.31 3.94 3.60 3.28
0.04 0.03 0.03 0.02 0.02 0.05 0.06 0.06 0.16 0.25 0.28 0.26 0.24 0.45 1.01 1.38 1.55 1.51 1.46 1.46 1.27 1.19 1.19 1.18 1.21 1.40 1.72 1.94 2.32 2.72 3.15 3.77 4.21 4.55 4.94 5.07 5.08 4.90 4.62 4.20 3.79 3.39 2.92 2.59
0.13 0.10 0.05 0.03 0.03 0.06 0.06 0.06 0.21 0.38 0.37 0.40 0.44 0.78 1.28 1.37 1.39 1.32 1.26 1.23 1.16 1.17 1.17 1.18 1.25 1.39 1.63 1.76 1.97 2.17 2.47 2.81 2.94 2.99 3.20 3.42 3.46 3.44 3.36 3.11 2.85 2.58 2.24 1.88
0.23 0.15 0.07 0.03 0.02 0.04 0.05 0.05 0.10 0.17 0.20 0.43 0.74 1.12 1.59 1.54 1.48 1.43 1.41 1.24 1.15 1.11 1.09 1.16 1.22 1.22 1.26 1.33 1.39 1.48 1.62 1.76 1.82 1.90 1.94 2.05 2.13 2.15 2.10 1.96 1.75 1.57 1.41 1.21
0.22 0.18 0.08 0.04 0.03 0.05 0.06 0.08 0.11 0.18 0.39 0.64 0.91 1.38 1.99 2.06 1.74 1.47 1.29 1.08 0.98 0.98 1.02 1.10 1.13 1.07 1.04 1.01 1.03 1.09 1.14 1.22 1.30 1.35 1.33 1.35 1.38 1.36 1.29 1.19 1.13 1.03 0.94 0.86
0.21 0.22 0.12 0.07 0.08 0.11 0.10 0.13 0.17 0.21 0.29 0.61 1.04 1.73 2.02 2.26 2.13 1.69 1.34 1.16 1.05 0.97 0.94 0.98 0.97 0.92 0.86 0.84 0.86 0.90 0.92 0.94 0.96 0.98 0.99 1.00 0.96 0.91 0.89 0.86 0.82 0.77 0.69 0.60
0.23 0.28 0.26 0.18 0.14 0.13 0.12 0.15 0.22 0.44 0.47 0.50 0.98 1.88 1.98 2.30 2.36 2.04 1.71 1.56 1.45 1.18 1.04 1.00 0.93 0.84 0.77 0.75 0.74 0.77 0.75 0.76 0.80 0.77 0.74 0.76 0.70 0.63 0.63 0.61 0.55 0.50 0.49 0.45
0.21 0.36 0.64 0.61 0.45 0.25 0.18 0.18 0.21 0.28 0.43 0.60 1.07 2.00 2.23 2.20 2.25 2.12 1.86 1.78 1.83 1.68 1.44 1.22 1.03 0.92 0.85 0.79 0.72 0.67 0.62 0.59 0.62 0.62 0.62 0.62 0.59 0.56 0.53 0.50 0.44 0.40 0.40 0.41
0.16 0.39 0.86 1.17 0.84 0.50 0.34 0.24 0.22 0.29 0.56 0.71 1.03 1.65 2.04 2.15 2.19 2.18 2.19 2.16 2.14 1.89 1.61 1.38 1.14 1.02 0.95 0.86 0.76 0.70 0.64 0.56 0.52 0.55 0.56 0.55 0.52 0.50 0.48 0.44 0.42 0.41 0.36 0.32
0.27 0.60 0.64 0.56 0.49 0.45 0.37 0.33 0.31 0.32 0.39 0.69 1.06 1.42 1.86 2.04 2.09 2.30 2.48 2.35 2.02 1.69 1.50 1.41 1.28 1.16 1.05 0.94 0.85 0.75 0.65 0.57 0.52 0.54 0.57 0.55 0.49 0.43 0.40 0.38 0.36 0.36 0.34 0.30
0.32 0.56 0.56 0.50 0.39 0.44 0.44 0.44 0.46 0.45 0.50 0.76 1.11 1.65 1.98 2.14 2.23 2.29 2.26 2.20 2.08 1.80 1.60 1.49 1.38 1.26 1.14 1.00 0.92 0.87 0.80 0.73 0.64 0.62 0.64 0.61 0.55 0.47 0.41 0.35 0.32 0.31 0.29 0.25
0.30 0.49 0.76 0.72 0.43 0.60 0.92 0.75 0.63 0.66 0.70 0.88 1.18 1.49 1.64 1.80 1.97 2.15 2.19 2.10 2.09 1.91 1.71 1.58 1.53 1.44 1.34 1.23 1.14 1.03 0.88 0.77 0.68 0.60 0.59 0.57 0.51 0.46 0.39 0.32 0.30 0.32 0.33 0.29
0.25 0.48 0.68 0.67 0.77 1.20 1.05 0.67 0.60 0.73 0.79 0.79 0.93 1.05 1.27 1.44 1.61 1.84 2.01 2.04 2.08 1.98 1.86 1.74 1.61 1.52 1.41 1.27 1.11 0.92 0.74 0.65 0.58 0.52 0.49 0.44 0.40 0.38 0.36 0.33 0.32 0.34 0.36 0.34
0.16 0.38 0.64 0.76 1.03 1.19 1.04 0.65 0.57 0.83 1.02 0.77 0.81 0.85 0.87 0.97 1.18 1.61 1.71 1.74 1.84 1.85 1.76 1.68 1.56 1.45 1.29 1.07 0.87 0.76 0.65 0.61 0.56 0.52 0.49 0.41 0.34 0.35 0.37 0.36 0.36 0.38 0.38 0.38
0.19 0.34 0.64 0.83 1.18 1.41 1.25 0.56 0.36 0.64 1.30 0.95 0.85 0.90 0.89 1.04 1.24 1.25 1.22 1.23 1.30 1.41 1.44 1.43 1.32 1.17 1.05 0.87 0.73 0.72 0.67 0.61 0.58 0.50 0.46 0.39 0.35 0.35 0.38 0.40 0.40 0.38 0.38 0.37
0.44 0.55 0.78 0.95 1.21 1.27 0.70 0.38 0.50 1.14 1.43 1.04 0.84 0.91 1.07 1.25 1.16 0.87 0.76 0.89 1.00 1.08 1.14 1.16 1.10 1.03 0.89 0.74 0.71 0.79 0.78 0.66 0.51 0.40 0.39 0.39 0.38 0.36 0.35 0.38 0.39 0.39 0.36 0.37
0.59 0.76 0.91 1.00 1.26 1.27 0.53 0.45 0.80 0.97 0.78 0.68 0.68 0.71 0.74 0.74 0.67 0.60 0.58 0.69 0.80 0.91 0.95 0.96 0.95 0.91 0.82 0.74 0.73 0.76 0.73 0.56 0.46 0.45 0.45 0.44 0.39 0.29 0.30 0.38 0.40 0.36 0.36 0.38
0.54 0.69 0.79 0.94 1.12 0.85 0.45 0.43 0.47 0.49 0.57 0.56 0.61 0.63 0.53 0.52 0.54 0.52 0.53 0.63 0.74 0.78 0.78 0.79 0.79 0.76 0.75 0.72 0.74 0.71 0.62 0.47 0.43 0.50 0.49 0.43 0.33 0.28 0.29 0.34 0.34 0.32 0.31 0.30
0.54 0.41 0.49 0.62 0.65 0.49 0.42 0.38 0.42 0.48 0.49 0.49 0.54 0.54 0.50 0.44 0.41 0.42 0.51 0.62 0.67 0.65 0.62 0.65 0.70 0.71 0.70 0.67 0.66 0.64 0.54 0.49 0.51 0.55 0.48 0.37 0.32 0.27 0.24 0.23 0.20 0.20 0.21 0.20
0.51 0.37 0.49 0.63 0.65 0.54 0.49 0.43 0.44 0.49 0.49 0.44 0.47 0.51 0.45 0.36 0.35 0.39 0.47 0.48 0.52 0.56 0.56 0.61 0.71 0.72 0.62 0.56 0.52 0.46 0.46 0.48 0.53 0.51 0.41 0.35 0.28 0.22 0.20 0.17 0.12 0.11 0.11 0.09
0.37 0.39 0.47 0.61 0.61 0.60 0.57 0.42 0.40 0.48 0.54 0.54 0.52 0.46 0.38 0.34 0.33 0.33 0.40 0.41 0.41 0.46 0.53 0.61 0.62 0.57 0.49 0.45 0.44 0.35 0.34 0.36 0.39 0.36 0.30 0.25 0.19 0.17 0.14 0.13 0.11 0.05 0.04 0.04

GEFSCGP_prec_meanprecacc_180.txt.gz
Total_Precipitation_Accumulation
0.01 0.01 0.01 0.02 0.03 0.03 0.05 0.07 0.08 0.11 0.15 0.19 0.24 0.32 0.43 0.53 0.63 0.66 0.66 0.71 0.79 1.08 1.29 1.60 1.94 2.29 2.79 2.83 2.74 2.84 3.03 3.18 3.27 3.52 3.62 3.79 4.10 4.30 4.45 4.53 4.43 4.37 4.23 4.29
0.00 0.01 0.01 0.02 0.03 0.03 0.05 0.10 0.11 0.12 0.14 0.21 0.34 0.43 0.53 0.63 0.67 0.65 0.73 0.87 0.97 1.25 1.58 1.80 2.01 2.40 2.81 3.01 3.08 3.11 3.33 3.61 3.85 4.10 4.52 4.81 5.03 5.21 5.37 5.41 4.96 4.74 4.63 4.57
0.01 0.01 0.01 0.02 0.02 0.03 0.04 0.07 0.12 0.14 0.15 0.20 0.37 0.58 0.71 0.78 0.83 0.89 1.07 1.30 1.41 1.49 1.80 1.92 2.06 2.39 2.71 2.92 3.07 3.21 3.45 3.89 4.43 4.80 5.22 5.63 5.79 5.81 5.65 5.39 5.26 5.11 4.99 4.87
0.00 0.01 0.01 0.02 0.02 0.03 0.03 0.05 0.11 0.10 0.10 0.19 0.33 0.63 0.93 0.97 1.05 1.24 1.42 1.40 1.50 1.66 1.88 2.03 2.19 2.40 2.69 2.91 3.03 3.36 3.88 4.50 5.02 5.46 6.00 6.50 6.64 6.47 6.14 5.71 5.30 5.04 4.77 4.47
0.01 0.01 0.01 0.02 0.03 0.05 0.04 0.04 0.09 0.10 0.06 0.13 0.24 0.49 1.09 1.24 1.30 1.54 1.79 1.56 1.51 1.54 1.62 1.86 2.02 2.17 2.53 2.72 2.90 3.25 3.85 4.55 5.23 6.04 6.72 7.12 7.02 6.71 6.30 5.64 5.07 4.59 4.21 3.87
0.01 0.01 0.02 0.02 0.03 0.06 0.05 0.04 0.06 0.09 0.08 0.14 0.19 0.42 1.03 1.44 1.58 1.74 1.72 1.56 1.49 1.40 1.36 1.43 1.49 1.75 2.09 2.38 2.64 3.00 3.62 4.38 5.05 5.67 6.17 6.35 6.28 6.11 5.63 4.94 4.36 3.98 3.64 3.31
0.04 0.03 0.03 0.02 0.02 0.05 0.06 0.06 0.17 0.26 0.29 0.26 0.24 0.46 1.01 1.38 1.56 1.52 1.46 1.47 1.28 1.22 1.23 1.21 1.25 1.46 1.77 1.99 2.37 2.76 3.18 3.81 4.25 4.58 4.98 5.12 5.15 4.97 4.69 4.26 3.83 3.42 2.94 2.60
0.14 0.10 0.06 0.03 0.03 0.06 0.06 0.06 0.21 0.38 0.37 0.40 0.44 0.78 1.28 1.38 1.40 1.33 1.27 1.24 1.17 1.18 1.19 1.21 1.28 1.43 1.68 1.81 2.01 2.21 2.51 2.85 2.97 3.03 3.24 3.46 3.51 3.50 3.41 3.16 2.89 2.61 2.25 1.89
0.24 0.16 0.08 0.04 0.03 0.04 0.05 0.05 0.10 0.17 0.20 0.44 0.74 1.13 1.60 1.55 1.48 1.44 1.42 1.24 1.16 1.11 1.10 1.19 1.26 1.26 1.30 1.37 1.44 1.52 1.66 1.80 1.86 1.93 1.97 2.08 2.16 2.19 2.14 1.99 1.77 1.59 1.43 1.22
0.23 0.19 0.09 0.04 0.04 0.05 0.06 0.08 0.11 0.19 0.40 0.65 0.91 1.39 2.00 2.07 1.75 1.48 1.29 1.09 0.99 0.99 1.04 1.14 1.20 1.14 1.11 1.06 1.08 1.12 1.17 1.25 1.33 1.38 1.37 1.37 1.40 1.39 1.33 1.23 1.15 1.05 0.95 0.87
0.22 0.22 0.12 0.07 0.09 0.11 0.11 0.13 0.17 0.22 0.29 0.62 1.05 1.73 2.02 2.26 2.14 1.70 1.35 1.17 1.06 0.98 0.97 1.04 1.02 0.96 0.91 0.87 0.88 0.93 0.96 0.98 1.00 1.02 1.02 1.02 0.98 0.94 0.92 0.89 0.85 0.78 0.70 0.61
0.23 0.29 0.26 0.18 0.14 0.13 0.12 0.16 0.22 0.44 0.48 0.51 0.99 1.89 1.99 2.30 2.36 2.05 1.73 1.57 1.46 1.19 1.06 1.04 0.96 0.87 0.79 0.77 0.77 0.79 0.79 0.80 0.84 0.80 0.76 0.78 0.71 0.65 0.65 0.64 0.58 0.53 0.51 0.46
0.21 0.37 0.64 0.61 0.45 0.25 0.18 0.19 0.22 0.28 0.44 0.61 1.08 2.01 2.24 2.21 2.26 2.12 1.87 1.79 1.84 1.69 1.46 1.25 1.07 0.95 0.88 0.82 0.75 0.69 0.65 0.64 0.66 0.65 0.64 0.63 0.62 0.60 0.58 0.55 0.48 0.43 0.42 0.43
0.16 0.39 0.87 1.17 0.85 0.50 0.34 0.24 0.23 0.30 0.57 0.71 1.04 1.65 2.05 2.16 2.19 2.19 2.20 2.17 2.16 1.91 1.63 1.40 1.16 1.06 0.99 0.90 0.80 0.73 0.67 0.61 0.56 0.57 0.58 0.56 0.53 0.52 0.51 0.49 0.46 0.43 0.37 0.33
0.27 0.61 0.65 0.56 0.49 0.45 0.37 0.33 0.31 0.33 0.40 0.70 1.06 1.43 1.87 2.04 2.10 2.31 2.49 2.36 2.04 1.71 1.52 1.42 1.31 1.22 1.10 1.00 0.90 0.80 0.69 0.61 0.56 0.56 0.58 0.56 0.50 0.44 0.41 0.40 0.38 0.37 0.35 0.31
0.32 0.57 0.56 0.50 0.39 0.45 0.44 0.45 0.47 0.45 0.51 0.77 1.12 1.66 1.99 2.15 2.24 2.30 2.27 2.22 2.10 1.82 1.62 1.52 1.42 1.30 1.18 1.06 0.98 0.92 0.85 0.77 0.69 0.65 0.65 0.61 0.56 0.48 0.42 0.36 0.34 0.33 0.30 0.26
0.30 0.49 0.77 0.72 0.44 0.61 0.92 0.77 0.64 0.67 0.71 0.89 1.20 1.51 1.66 1.81 1.98 2.16 2.21 2.12 2.12 1.93 1.73 1.61 1.57 1.48 1.38 1.29 1.19 1.07 0.92 0.81 0.72 0.63 0.60 0.57 0.52 0.46 0.40 0.33 0.32 0.34 0.35 0.30
0.26 0.48 0.69 0.68 0.78 1.21 1.06 0.68 0.61 0.74 0.80 0.80 0.96 1.07 1.28 1.45 1.62 1.85 2.03 2.07 2.11 2.01 1.89 1.77 1.65 1.56 1.45 1.32 1.17 0.96 0.77 0.69 0.61 0.54 0.51 0.45 0.41 0.40 0.38 0.35 0.35 0.36 0.37 0.36
0.16 0.38 0.66 0.78 1.05 1.21 1.05 0.66 0.58 0.85 1.04 0.78 0.83 0.87 0.89 0.98 1.20 1.63 1.73 1.77 1.88 1.91 1.85 1.75 1.61 1.51 1.34 1.10 0.90 0.79 0.68 0.64 0.58 0.54 0.50 0.42 0.36 0.38 0.40 0.39 0.39 0.40 0.40 0.39
0.19 0.34 0.65 0.84 1.20 1.42 1.26 0.56 0.37 0.67 1.34 0.97 0.88 0.92 0.91 1.05 1.27 1.27 1.23 1.25 1.33 1.48 1.54 1.53 1.39 1.23 1.11 0.91 0.76 0.75 0.69 0.64 0.60 0.52 0.47 0.40 0.36 0.38 0.41 0.45 0.44 0.41 0.40 0.38
0.45 0.56 0.79 0.96 1.22 1.28 0.71 0.39 0.52 1.19 1.47 1.06 0.87 0.94 1.10 1.28 1.18 0.89 0.77 0.90 1.02 1.12 1.21 1.27 1.20 1.11 0.95 0.78 0.74 0.82 0.81 0.69 0.53 0.41 0.40 0.40 0.39 0.38 0.38 0.41 0.43 0.41 0.37 0.38
0.61 0.78 0.92 1.02 1.28 1.28 0.54 0.46 0.82 1.00 0.80 0.71 0.71 0.73 0.77 0.77 0.69 0.62 0.60 0.71 0.81 0.93 0.98 1.03 1.05 0.99 0.87 0.78 0.77 0.79 0.76 0.58 0.47 0.46 0.47 0.46 0.41 0.32 0.32 0.40 0.42 0.38 0.37 0.40
0.55 0.70 0.80 0.95 1.13 0.87 0.46 0.45 0.48 0.51 0.59 0.59 0.64 0.65 0.55 0.55 0.57 0.54 0.55 0.65 0.76 0.80 0.81 0.83 0.85 0.81 0.79 0.76 0.77 0.75 0.65 0.48 0.44 0.51 0.50 0.45 0.36 0.32 0.32 0.37 0.37 0.33 0.33 0.32
0.55 0.41 0.49 0.63 0.65 0.51 0.43 0.39 0.42 0.49 0.50 0.51 0.56 0.56 0.52 0.46 0.46 0.47 0.54 0.64 0.69 0.69 0.66 0.68 0.74 0.74 0.73 0.69 0.68 0.67 0.57 0.50 0.51 0.56 0.49 0.39 0.34 0.29 0.26 0.25 0.21 0.21 0.22 0.22
0.51 0.38 0.51 0.65 0.66 0.55 0.50 0.43 0.45 0.50 0.50 0.47 0.50 0.54 0.48 0.39 0.38 0.41 0.50 0.51 0.55 0.59 0.60 0.63 0.73 0.74 0.65 0.58 0.54 0.48 0.49 0.50 0.55 0.53 0.43 0.36 0.29 0.23 0.21 0.18 0.13 0.12 0.12 0.11
0.38 0.40 0.49 0.63 0.62 0.62 0.59 0.43 0.41 0.49 0.57 0.58 0.55 0.48 0.39 0.35 0.34 0.35 0.42 0.43 0.43 0.49 0.55 0.63 0.63 0.58 0.50 0.46 0.45 0.37 0.35 0.38 0.40 0.38 0.32 0.26 0.20 0.18 0.15 0.14 0.12 0.06 0.05 0.05

GEFSCGP_prec_meanprecacc_186.txt.gz
Total_Precipitation_Accumulation
0.01 0.01 0.02 0.02 0.03 0.04 0.06 0.09 0.10 0.13 0.16 0.19 0.25 0.35 0.49 0.61 0.71 0.73 0.69 0.72 0.81 1.11 1.32 1.66 2.03 2.35 2.86 2.92 2.83 2.93 3.13 3.29 3.38 3.63 3.71 3.89 4.20 4.39 4.54 4.61 4.50 4.43 4.28 4.34
0.01 0.01 0.01 0.02 0.03 0.04 0.07 0.13 0.15 0.14 0.15 0.22 0.35 0.46 0.59 0.69 0.72 0.69 0.76 0.90 1.02 1.32 1.62 1.84 2.07 2.45 2.86 3.07 3.14 3.19 3.43 3.73 3.97 4.20 4.61 4.91 5.13 5.31 5.48 5.53 5.09 4.85 4.71 4.64
0.01 0.01 0.01 0.02 0.03 0.03 0.06 0.10 0.15 0.15 0.15 0.21 0.38 0.61 0.75 0.81 0.85 0.93 1.14 1.37 1.47 1.53 1.84 1.96 2.10 2.46 2.79 2.99 3.12 3.27 3.52 3.98 4.55 4.92 5.32 5.72 5.87 5.88 5.71 5.46 5.33 5.17 5.04 4.92
0.00 0.01 0.01 0.02 0.03 0.03 0.05 0.06 0.11 0.11 0.11 0.20 0.34 0.66 0.96 1.00 1.08 1.30 1.49 1.46 1.52 1.68 1.91 2.06 2.23 2.47 2.78 3.00 3.10 3.43 3.94 4.59 5.16 5.63 6.11 6.58 6.72 6.53 6.21 5.77 5.36 5.08 4.81 4.50
0.01 0.02 0.02 0.03 0.04 0.06 0.05 0.05 0.09 0.10 0.07 0.15 0.27 0.52 1.11 1.26 1.34 1.60 1.85 1.62 1.54 1.56 1.64 1.89 2.04 2.21 2.59 2.79 2.98 3.34 3.93 4.63 5.33 6.15 6.82 7.20 7.10 6.80 6.39 5.71 5.12 4.63 4.23 3.89
0.02 0.02 0.03 0.03 0.03 0.06 0.05 0.05 0.07 0.09 0.09 0.18 0.21 0.44 1.07 1.49 1.65 1.80 1.78 1.60 1.52 1.43 1.38 1.45 1.52 1.79 2.15 2.45 2.72 3.11 3.72 4.46 5.13 5.75 6.26 6.43 6.36 6.20 5.71 5.03 4.42 4.02 3.68 3.34
0.06 0.05 0.05 0.03 0.02 0.06 0.06 0.07 0.20 0.31 0.33 0.31 0.27 0.50 1.07 1.42 1.59 1.55 1.50 1.51 1.36 1.30 1.26 1.24 1.28 1.49 1.82 2.06 2.44 2.84 3.28 3.90 4.33 4.65 5.05 5.20 5.23 5.06 4.77 4.33 3.89 3.46 2.98 2.63
0.16 0.11 0.07 0.04 0.03 0.06 0.07 0.07 0.26 0.45 0.42 0.44 0.47 0.82 1.32 1.39 1.41 1.34 1.29 1.30 1.28 1.25 1.23 1.25 1.32 1.46 1.71 1.86 2.06 2.27 2.58 2.93 3.05 3.09 3.30 3.52 3.57 3.56 3.47 3.21 2.93 2.63 2.28 1.91
0.27 0.18 0.08 0.04 0.03 0.05 0.06 0.06 0.12 0.23 0.25 0.48 0.78 1.16 1.62 1.56 1.50 1.45 1.44 1.29 1.20 1.15 1.14 1.24 1.30 1.29 1.33 1.42 1.49 1.58 1.72 1.87 1.92 1.97 2.01 2.12 2.21 2.24 2.19 2.05 1.82 1.61 1.44 1.23
0.24 0.20 0.09 0.04 0.04 0.05 0.06 0.08 0.12 0.23 0.46 0.70 0.96 1.42 2.04 2.10 1.79 1.52 1.33 1.11 1.01 1.02 1.08 1.18 1.23 1.17 1.14 1.12 1.18 1.24 1.28 1.33 1.38 1.42 1.40 1.41 1.44 1.43 1.37 1.28 1.21 1.08 0.97 0.88
0.22 0.22 0.12 0.07 0.09 0.12 0.11 0.14 0.18 0.24 0.32 0.67 1.12 1.79 2.07 2.29 2.16 1.73 1.39 1.21 1.10 1.03 1.02 1.08 1.06 0.98 0.94 0.92 0.94 1.00 1.02 1.02 1.04 1.06 1.06 1.06 1.01 0.97 0.95 0.94 0.91 0.81 0.71 0.62
0.23 0.30 0.28 0.18 0.15 0.14 0.13 0.16 0.23 0.46 0.50 0.53 1.05 1.97 2.02 2.32 2.38 2.08 1.79 1.61 1.50 1.23 1.10 1.09 1.01 0.91 0.82 0.81 0.80 0.82 0.82 0.84 0.88 0.85 0.82 0.83 0.76 0.70 0.70 0.69 0.63 0.57 0.53 0.48
0.21 0.38 0.67 0.66 0.49 0.26 0.19 0.20 0.22 0.29 0.45 0.62 1.13 2.10 2.27 2.23 2.29 2.18 1.92 1.82 1.86 1.71 1.49 1.30 1.12 1.00 0.93 0.87 0.79 0.73 0.70 0.69 0.71 0.71 0.70 0.70 0.67 0.65 0.62 0.59 0.52 0.47 0.46 0.46
0.17 0.40 0.90 1.22 0.88 0.51 0.34 0.24 0.23 0.30 0.58 0.74 1.08 1.71 2.09 2.20 2.25 2.24 2.24 2.20 2.18 1.93 1.66 1.43 1.21 1.12 1.05 0.96 0.86 0.77 0.71 0.64 0.60 0.61 0.63 0.62 0.59 0.58 0.56 0.53 0.49 0.46 0.39 0.36
0.27 0.62 0.65 0.57 0.50 0.45 0.37 0.33 0.32 0.33 0.41 0.72 1.10 1.48 1.92 2.08 2.16 2.38 2.54 2.40 2.07 1.74 1.55 1.46 1.35 1.27 1.16 1.05 0.97 0.84 0.72 0.64 0.59 0.60 0.63 0.61 0.55 0.50 0.45 0.43 0.41 0.40 0.37 0.33
0.33 0.58 0.58 0.52 0.41 0.46 0.46 0.46 0.48 0.46 0.52 0.79 1.15 1.71 2.02 2.21 2.33 2.38 2.32 2.25 2.13 1.86 1.66 1.56 1.47 1.36 1.26 1.12 1.05 0.98 0.88 0.80 0.71 0.68 0.70 0.67 0.62 0.53 0.46 0.40 0.37 0.36 0.32 0.29
0.32 0.52 0.79 0.74 0.44 0.63 0.95 0.78 0.66 0.69 0.73 0.91 1.23 1.55 1.68 1.85 2.03 2.22 2.27 2.16 2.14 1.96 1.77 1.66 1.63 1.56 1.46 1.37 1.25 1.12 0.97 0.86 0.75 0.67 0.65 0.63 0.57 0.51 0.45 0.37 0.35 0.37 0.37 0.33
0.27 0.51 0.72 0.70 0.82 1.26 1.10 0.70 0.63 0.76 0.81 0.82 0.98 1.09 1.30 1.47 1.65 1.90 2.08 2.11 2.13 2.02 1.92 1.81 1.72 1.65 1.55 1.40 1.24 1.02 0.83 0.74 0.66 0.59 0.55 0.49 0.45 0.45 0.43 0.39 0.38 0.40 0.40 0.38
0.18 0.42 0.70 0.82 1.11 1.25 1.08 0.67 0.60 0.88 1.07 0.81 0.85 0.88 0.90 1.01 1.23 1.67 1.76 1.78 1.89 1.93 1.87 1.78 1.66 1.58 1.43 1.21 0.99 0.87 0.73 0.68 0.63 0.57 0.53 0.45 0.39 0.42 0.45 0.43 0.43 0.44 0.43 0.42
0.22 0.38 0.71 0.90 1.26 1.49 1.31 0.59 0.39 0.70 1.39 1.01 0.90 0.94 0.92 1.08 1.32 1.32 1.28 1.28 1.35 1.50 1.58 1.56 1.43 1.29 1.19 1.00 0.85 0.83 0.75 0.68 0.64 0.55 0.49 0.43 0.40 0.42 0.46 0.50 0.49 0.44 0.43 0.41
0.50 0.62 0.85 1.01 1.28 1.33 0.74 0.42 0.55 1.25 1.55 1.12 0.91 0.96 1.12 1.31 1.23 0.92 0.80 0.92 1.04 1.16 1.26 1.31 1.25 1.16 1.01 0.83 0.82 0.89 0.87 0.73 0.55 0.43 0.43 0.44 0.44 0.43 0.42 0.46 0.47 0.44 0.39 0.41
0.64 0.81 0.96 1.06 1.34 1.34 0.56 0.48 0.85 1.04 0.84 0.74 0.74 0.77 0.79 0.80 0.71 0.64 0.62 0.73 0.84 0.98 1.05 1.10 1.11 1.04 0.93 0.85 0.84 0.85 0.81 0.63 0.51 0.48 0.48 0.49 0.45 0.35 0.35 0.43 0.46 0.41 0.40 0.43
0.57 0.72 0.82 0.99 1.19 0.90 0.47 0.46 0.50 0.53 0.61 0.61 0.66 0.67 0.56 0.56 0.58 0.56 0.58 0.67 0.78 0.83 0.86 0.90 0.92 0.88 0.86 0.81 0.82 0.80 0.69 0.52 0.48 0.54 0.52 0.47 0.39 0.34 0.34 0.40 0.41 0.38 0.37 0.34
0.56 0.43 0.52 0.66 0.67 0.52 0.44 0.40 0.43 0.50 0.51 0.52 0.57 0.57 0.53 0.47 0.47 0.50 0.56 0.66 0.71 0.70 0.70 0.74 0.81 0.80 0.78 0.73 0.72 0.71 0.61 0.54 0.56 0.60 0.52 0.43 0.37 0.31 0.28 0.28 0.26 0.27 0.28 0.26
0.52 0.38 0.52 0.67 0.68 0.59 0.54 0.45 0.46 0.51 0.51 0.49 0.52 0.56 0.49 0.40 0.39 0.43 0.53 0.53 0.57 0.61 0.63 0.68 0.78 0.77 0.68 0.61 0.57 0.52 0.53 0.54 0.60 0.57 0.46 0.40 0.32 0.26 0.24 0.20 0.15 0.14 0.14 0.11
0.38 0.41 0.51 0.66 0.64 0.66 0.62 0.45 0.42 0.51 0.59 0.60 0.57 0.50 0.41 0.36 0.35 0.36 0.44 0.45 0.45 0.50 0.58 0.66 0.66 0.61 0.54 0.49 0.47 0.40 0.40 0.43 0.46 0.42 0.35 0.29 0.23 0.21 0.17 0.17 0.14 0.08 0.06 0.05

GEFSCGP_prec_meanprecacc_192.txt.gz
Total_Precipitation_Accumulation
0.01 0.01 0.02 0.03 0.03 0.05 0.08 0.11 0.13 0.16 0.18 0.21 0.26 0.36 0.53 0.65 0.75 0.79 0.83 0.89 0.93 1.21 1.46 1.79 2.11 2.43 2.93 2.96 2.87 2.98 3.19 3.34 3.44 3.73 3.83 4.05 4.36 4.51 4.63 4.69 4.60 4.55 4.44 4.49
0.03 0.02 0.02 0.02 0.03 0.05 0.09 0.15 0.19 0.19 0.17 0.23 0.37 0.48 0.62 0.74 0.76 0.73 0.83 1.02 1.14 1.46 1.79 1.96 2.14 2.51 2.92 3.11 3.18 3.24 3.48 3.78 4.02 4.26 4.68 4.97 5.21 5.40 5.57 5.60 5.18 5.00 4.89 4.76
0.02 0.02 0.01 0.02 0.04 0.05 0.08 0.12 0.18 0.20 0.17 0.23 0.40 0.63 0.78 0.86 0.91 1.03 1.25 1.45 1.56 1.66 1.97 2.05 2.15 2.52 2.82 3.03 3.20 3.35 3.57 4.02 4.59 4.97 5.40 5.79 5.94 5.96 5.79 5.52 5.39 5.24 5.12 4.99
0.01 0.01 0.01 0.03 0.04 0.05 0.07 0.10 0.16 0.15 0.15 0.24 0.37 0.68 1.01 1.11 1.17 1.40 1.61 1.57 1.64 1.79 2.00 2.12 2.28 2.54 2.83 3.05 3.20 3.51 4.00 4.64 5.21 5.69 6.21 6.67 6.77 6.59 6.28 5.85 5.43 5.16 4.89 4.58
0.02 0.02 0.03 0.04 0.06 0.07 0.07 0.06 0.13 0.13 0.09 0.19 0.31 0.55 1.18 1.37 1.42 1.66 1.92 1.71 1.63 1.63 1.69 1.94 2.11 2.30 2.66 2.86 3.06 3.41 4.00 4.69 5.39 6.24 6.93 7.32 7.20 6.88 6.47 5.80 5.22 4.74 4.32 3.97
0.03 0.03 0.03 0.04 0.05 0.07 0.07 0.06 0.09 0.12 0.10 0.21 0.24 0.47 1.11 1.54 1.71 1.86 1.82 1.64 1.55 1.47 1.44 1.52 1.60 1.88 2.23 2.53 2.79 3.17 3.78 4.53 5.20 5.84 6.38 6.60 6.50 6.29 5.78 5.10 4.50 4.13 3.78 3.41
0.07 0.06 0.06 0.04 0.04 0.06 0.07 0.08 0.23 0.34 0.36 0.34 0.28 0.51 1.10 1.46 1.63 1.59 1.53 1.53 1.39 1.38 1.39 1.36 1.39 1.62 1.92 2.14 2.52 2.91 3.35 3.96 4.39 4.74 5.17 5.35 5.36 5.15 4.84 4.38 3.94 3.53 3.05 2.69
0.17 0.14 0.08 0.05 0.04 0.07 0.07 0.08 0.27 0.49 0.47 0.47 0.49 0.84 1.36 1.44 1.45 1.38 1.33 1.33 1.32 1.31 1.32 1.37 1.46 1.59 1.81 1.94 2.13 2.33 2.63 2.99 3.15 3.20 3.45 3.68 3.71 3.68 3.55 3.27 2.97 2.69 2.33 1.96
0.28 0.19 0.09 0.04 0.03 0.05 0.07 0.07 0.12 0.26 0.29 0.55 0.85 1.23 1.70 1.62 1.57 1.51 1.48 1.31 1.24 1.20 1.23 1.35 1.39 1.37 1.41 1.49 1.56 1.64 1.77 1.93 2.01 2.09 2.15 2.30 2.34 2.33 2.27 2.12 1.89 1.68 1.50 1.28
0.27 0.20 0.10 0.05 0.04 0.05 0.07 0.10 0.15 0.26 0.50 0.76 1.04 1.51 2.13 2.16 1.84 1.56 1.36 1.14 1.04 1.06 1.15 1.24 1.28 1.23 1.20 1.20 1.25 1.31 1.34 1.39 1.44 1.48 1.46 1.49 1.52 1.49 1.43 1.34 1.27 1.15 1.03 0.92
0.23 0.23 0.13 0.08 0.09 0.12 0.12 0.15 0.20 0.26 0.36 0.73 1.19 1.86 2.14 2.34 2.23 1.79 1.44 1.25 1.14 1.06 1.06 1.12 1.10 1.06 1.03 1.01 1.01 1.07 1.08 1.06 1.07 1.09 1.09 1.09 1.05 1.02 1.00 1.00 0.98 0.87 0.76 0.66
0.24 0.30 0.28 0.19 0.15 0.14 0.14 0.17 0.24 0.47 0.52 0.58 1.10 2.03 2.08 2.37 2.45 2.14 1.83 1.66 1.53 1.25 1.15 1.14 1.04 0.97 0.92 0.91 0.88 0.90 0.87 0.87 0.91 0.88 0.84 0.85 0.79 0.74 0.74 0.74 0.68 0.62 0.57 0.52
0.22 0.38 0.68 0.67 0.49 0.27 0.20 0.21 0.23 0.29 0.46 0.65 1.16 2.16 2.33 2.26 2.32 2.23 1.95 1.85 1.91 1.75 1.53 1.37 1.17 1.05 1.01 0.96 0.88 0.80 0.75 0.72 0.74 0.73 0.73 0.73 0.71 0.69 0.67 0.65 0.57 0.52 0.50 0.49
0.17 0.41 0.91 1.24 0.89 0.52 0.35 0.25 0.24 0.31 0.60 0.76 1.09 1.75 2.14 2.22 2.27 2.28 2.29 2.24 2.24 2.00 1.71 1.50 1.26 1.16 1.11 1.04 0.93 0.84 0.78 0.68 0.62 0.63 0.65 0.64 0.62 0.61 0.60 0.59 0.55 0.50 0.43 0.38
0.29 0.64 0.66 0.58 0.51 0.47 0.38 0.34 0.32 0.34 0.42 0.74 1.11 1.50 1.94 2.10 2.18 2.41 2.60 2.46 2.12 1.79 1.62 1.54 1.43 1.32 1.24 1.14 1.06 0.91 0.78 0.66 0.60 0.61 0.63 0.62 0.57 0.52 0.49 0.48 0.47 0.44 0.40 0.35
0.34 0.60 0.59 0.53 0.43 0.48 0.47 0.47 0.49 0.48 0.54 0.81 1.17 1.74 2.05 2.23 2.35 2.40 2.35 2.29 2.18 1.91 1.73 1.65 1.55 1.43 1.35 1.23 1.15 1.06 0.92 0.81 0.72 0.69 0.71 0.68 0.63 0.55 0.50 0.46 0.43 0.41 0.36 0.31
0.33 0.55 0.82 0.75 0.45 0.63 0.97 0.80 0.67 0.70 0.75 0.93 1.26 1.58 1.71 1.87 2.05 2.24 2.31 2.21 2.20 2.01 1.81 1.70 1.68 1.62 1.52 1.45 1.36 1.21 1.01 0.88 0.76 0.68 0.66 0.64 0.59 0.54 0.50 0.43 0.40 0.42 0.42 0.36
0.29 0.54 0.75 0.74 0.85 1.30 1.13 0.71 0.64 0.77 0.83 0.84 1.00 1.11 1.32 1.49 1.69 1.93 2.12 2.16 2.18 2.08 1.96 1.85 1.75 1.69 1.59 1.47 1.33 1.12 0.87 0.76 0.67 0.61 0.57 0.51 0.47 0.47 0.47 0.43 0.43 0.44 0.44 0.42
0.20 0.45 0.74 0.87 1.15 1.30 1.11 0.69 0.61 0.89 1.09 0.84 0.88 0.89 0.91 1.03 1.28 1.72 1.79 1.82 1.94 1.99 1.95 1.84 1.71 1.62 1.48 1.27 1.07 0.96 0.78 0.71 0.66 0.60 0.55 0.47 0.40 0.44 0.47 0.47 0.46 0.48 0.47 0.46
0.24 0.41 0.74 0.94 1.31 1.54 1.34 0.61 0.40 0.71 1.42 1.03 0.92 0.96 0.94 1.10 1.37 1.40 1.33 1.33 1.45 1.62 1.71 1.66 1.49 1.35 1.25 1.06 0.91 0.90 0.78 0.70 0.66 0.57 0.51 0.44 0.41 0.43 0.47 0.52 0.51 0.47 0.47 0.45
0.54 0.67 0.89 1.05 1.32 1.36 0.77 0.44 0.56 1.27 1.58 1.14 0.92 0.98 1.14 1.34 1.26 0.95 0.83 0.97 1.11 1.25 1.42 1.41 1.31 1.22 1.06 0.88 0.86 0.93 0.90 0.75 0.57 0.46 0.45 0.46 0.45 0.44 0.43 0.47 0.49 0.47 0.42 0.44
0.66 0.84 1.00 1.10 1.39 1.38 0.60 0.52 0.90 1.08 0.87 0.77 0.76 0.79 0.82 0.83 0.73 0.65 0.64 0.75 0.86 1.01 1.11 1.17 1.19 1.10 0.98 0.89 0.87 0.88 0.84 0.65 0.52 0.50 0.50 0.50 0.46 0.36 0.36 0.45 0.48 0.44 0.43 0.45
0.59 0.76 0.87 1.02 1.23 0.93 0.50 0.49 0.53 0.55 0.64 0.63 0.68 0.68 0.58 0.58 0.60 0.57 0.60 0.70 0.81 0.86 0.89 0.94 0.99 0.94 0.90 0.85 0.85 0.83 0.71 0.54 0.50 0.56 0.54 0.49 0.41 0.36 0.36 0.42 0.43 0.40 0.39 0.37
0.58 0.45 0.54 0.68 0.69 0.54 0.46 0.42 0.45 0.53 0.53 0.54 0.59 0.59 0.54 0.49 0.48 0.51 0.58 0.68 0.74 0.74 0.73 0.79 0.86 0.85 0.81 0.75 0.73 0.72 0.62 0.55 0.57 0.61 0.54 0.45 0.39 0.33 0.30 0.30 0.28 0.29 0.29 0.28
0.53 0.39 0.53 0.68 0.70 0.61 0.56 0.50 0.49 0.53 0.53 0.51 0.54 0.57 0.50 0.41 0.41 0.45 0.54 0.55 0.59 0.64 0.65 0.70 0.80 0.80 0.70 0.63 0.59 0.53 0.54 0.55 0.61 0.59 0.49 0.42 0.34 0.28 0.27 0.22 0.17 0.16 0.15 0.13
0.39 0.41 0.52 0.68 0.65 0.68 0.64 0.47 0.45 0.54 0.63 0.64 0.59 0.52 0.43 0.38 0.36 0.37 0.45 0.47 0.47 0.53 0.60 0.67 0.68 0.63 0.56 0.51 0.49 0.41 0.41 0.44 0.47 0.44 0.37 0.30 0.25 0.23 0.19 0.18 0.16 0.10 0.08 0.07

GEFSCGP_prec_meanprecacc_198.txt.gz
Total_Precipitation_Accumulation
0.02 0.01 0.02 0.03 0.04 0.05 0.09 0.12 0.13 0.17 0.19 0.21 0.27 0.38 0.57 0.72 0.88 0.87 0.86 0.92 0.96 1.25 1.50 1.84 2.17 2.49 3.00 3.04 2.94 3.05 3.26 3.41 3.51 3.79 3.90 4.13 4.44 4.60 4.73 4.79 4.68 4.63 4.51 4.57
0.03 0.02 0.02 0.02 0.03 0.05 0.10 0.16 0.20 0.20 0.18 0.24 0.37 0.49 0.65 0.79 0.86 0.81 0.87 1.05 1.17 1.50 1.83 1.99 2.18 2.57 3.03 3.21 3.24 3.31 3.55 3.85 4.08 4.31 4.73 5.01 5.25 5.45 5.63 5.65 5.23 5.04 4.94 4.81
0.02 0.02 0.01 0.02 0.04 0.05 0.08 0.12 0.19 0.20 0.18 0.23 0.41 0.64 0.80 0.90 0.99 1.10 1.30 1.48 1.59 1.68 1.99 2.07 2.19 2.57 2.91 3.11 3.26 3.42 3.64 4.09 4.65 5.02 5.44 5.83 5.98 5.99 5.83 5.55 5.42 5.28 5.16 5.04
0.01 0.01 0.01 0.03 0.04 0.05 0.07 0.10 0.16 0.15 0.15 0.25 0.39 0.72 1.06 1.17 1.25 1.48 1.65 1.61 1.66 1.81 2.02 2.14 2.31 2.60 2.90 3.14 3.28 3.59 4.08 4.70 5.27 5.74 6.24 6.70 6.81 6.63 6.31 5.88 5.47 5.20 4.95 4.64
0.02 0.02 0.03 0.04 0.07 0.07 0.07 0.06 0.13 0.13 0.09 0.21 0.34 0.59 1.23 1.44 1.50 1.74 1.97 1.75 1.66 1.66 1.72 1.98 2.16 2.35 2.72 2.94 3.17 3.53 4.10 4.79 5.49 6.32 6.99 7.39 7.28 6.95 6.52 5.85 5.28 4.80 4.39 4.05
0.03 0.03 0.03 0.04 0.05 0.08 0.07 0.07 0.09 0.12 0.11 0.22 0.26 0.49 1.13 1.58 1.76 1.92 1.88 1.68 1.59 1.49 1.47 1.56 1.65 1.93 2.28 2.59 2.90 3.32 3.94 4.65 5.30 5.94 6.47 6.69 6.59 6.39 5.87 5.17 4.56 4.18 3.84 3.48
0.07 0.06 0.07 0.04 0.04 0.07 0.07 0.08 0.23 0.35 0.37 0.34 0.29 0.52 1.12 1.48 1.65 1.62 1.56 1.57 1.42 1.41 1.41 1.39 1.42 1.65 1.97 2.20 2.60 3.02 3.46 4.09 4.51 4.85 5.27 5.45 5.46 5.24 4.94 4.45 4.00 3.57 3.09 2.74
0.17 0.14 0.09 0.05 0.04 0.08 0.08 0.08 0.28 0.49 0.47 0.47 0.49 0.85 1.37 1.46 1.45 1.39 1.34 1.35 1.34 1.33 1.33 1.39 1.48 1.62 1.86 2.01 2.22 2.43 2.74 3.10 3.28 3.32 3.55 3.80 3.80 3.74 3.62 3.33 3.03 2.74 2.38 2.01
0.28 0.19 0.09 0.05 0.03 0.05 0.07 0.07 0.13 0.26 0.30 0.55 0.86 1.24 1.72 1.64 1.58 1.52 1.49 1.33 1.25 1.21 1.24 1.36 1.43 1.41 1.44 1.54 1.63 1.74 1.89 2.04 2.14 2.22 2.25 2.39 2.41 2.38 2.32 2.18 1.95 1.74 1.57 1.34
0.27 0.21 0.11 0.05 0.04 0.06 0.07 0.11 0.16 0.26 0.51 0.76 1.05 1.53 2.15 2.18 1.86 1.58 1.37 1.15 1.05 1.08 1.16 1.26 1.33 1.27 1.24 1.23 1.29 1.38 1.44 1.50 1.56 1.61 1.54 1.55 1.59 1.56 1.48 1.40 1.34 1.21 1.09 0.97
0.24 0.24 0.14 0.08 0.10 0.12 0.12 0.15 0.21 0.29 0.36 0.74 1.21 1.88 2.16 2.36 2.25 1.81 1.45 1.26 1.15 1.08 1.08 1.16 1.14 1.10 1.07 1.05 1.05 1.14 1.17 1.16 1.18 1.17 1.14 1.13 1.09 1.06 1.04 1.05 1.02 0.92 0.81 0.69
0.25 0.32 0.29 0.19 0.15 0.14 0.14 0.17 0.24 0.49 0.54 0.59 1.11 2.05 2.12 2.39 2.47 2.16 1.84 1.67 1.55 1.27 1.17 1.17 1.08 1.01 0.95 0.94 0.93 0.95 0.95 0.95 1.01 0.95 0.88 0.88 0.82 0.76 0.76 0.78 0.72 0.66 0.62 0.55
0.22 0.39 0.68 0.67 0.49 0.27 0.20 0.21 0.24 0.30 0.47 0.66 1.18 2.18 2.36 2.28 2.34 2.26 1.98 1.88 1.93 1.77 1.55 1.40 1.20 1.09 1.04 0.99 0.92 0.84 0.82 0.80 0.81 0.79 0.76 0.75 0.73 0.71 0.69 0.67 0.60 0.55 0.54 0.53
0.17 0.41 0.91 1.24 0.89 0.52 0.35 0.26 0.24 0.31 0.60 0.76 1.10 1.78 2.16 2.23 2.28 2.30 2.32 2.30 2.30 2.03 1.73 1.52 1.29 1.19 1.14 1.06 0.95 0.88 0.87 0.76 0.67 0.68 0.67 0.65 0.64 0.63 0.61 0.61 0.58 0.54 0.47 0.42
0.29 0.64 0.66 0.58 0.51 0.47 0.39 0.35 0.33 0.34 0.43 0.74 1.12 1.52 1.95 2.11 2.19 2.42 2.61 2.49 2.17 1.83 1.64 1.56 1.45 1.35 1.27 1.17 1.09 0.96 0.87 0.75 0.65 0.64 0.64 0.63 0.59 0.54 0.50 0.50 0.49 0.47 0.44 0.39
0.34 0.60 0.60 0.53 0.43 0.48 0.47 0.48 0.49 0.48 0.55 0.81 1.18 1.75 2.06 2.24 2.35 2.41 2.36 2.30 2.21 1.95 1.75 1.67 1.57 1.46 1.40 1.27 1.20 1.11 1.00 0.91 0.77 0.71 0.71 0.69 0.64 0.56 0.51 0.47 0.45 0.44 0.39 0.35
0.33 0.55 0.82 0.75 0.46 0.64 0.98 0.81 0.68 0.71 0.75 0.94 1.27 1.59 1.72 1.88 2.06 2.25 2.32 2.23 2.23 2.04 1.83 1.72 1.70 1.66 1.58 1.51 1.40 1.25 1.08 0.96 0.79 0.69 0.67 0.66 0.60 0.54 0.52 0.45 0.42 0.43 0.44 0.38
0.29 0.55 0.75 0.74 0.85 1.30 1.13 0.72 0.65 0.78 0.84 0.85 1.01 1.11 1.32 1.50 1.69 1.93 2.12 2.17 2.22 2.11 1.98 1.87 1.77 1.72 1.61 1.51 1.37 1.16 0.95 0.82 0.69 0.62 0.59 0.53 0.48 0.49 0.49 0.44 0.44 0.45 0.46 0.44
0.20 0.45 0.74 0.87 1.16 1.31 1.11 0.70 0.62 0.90 1.10 0.85 0.89 0.90 0.92 1.04 1.29 1.73 1.80 1.82 1.96 2.02 1.98 1.87 1.73 1.65 1.51 1.30 1.11 1.00 0.84 0.75 0.67 0.61 0.56 0.48 0.42 0.45 0.48 0.47 0.47 0.50 0.48 0.48
0.24 0.41 0.75 0.94 1.32 1.54 1.35 0.62 0.41 0.72 1.43 1.05 0.94 0.97 0.95 1.12 1.38 1.42 1.34 1.35 1.47 1.65 1.75 1.69 1.52 1.39 1.29 1.10 0.95 0.93 0.83 0.74 0.68 0.59 0.53 0.46 0.43 0.44 0.48 0.52 0.52 0.49 0.48 0.46
0.55 0.67 0.89 1.05 1.33 1.36 0.77 0.44 0.57 1.28 1.59 1.16 0.94 0.99 1.15 1.36 1.28 0.97 0.84 0.98 1.13 1.28 1.45 1.45 1.35 1.26 1.11 0.91 0.89 0.95 0.92 0.77 0.59 0.48 0.47 0.47 0.46 0.45 0.44 0.48 0.50 0.48 0.43 0.46
0.67 0.85 1.00 1.11 1.40 1.39 0.60 0.52 0.91 1.09 0.88 0.78 0.77 0.81 0.83 0.85 0.75 0.66 0.65 0.76 0.88 1.03 1.13 1.21 1.24 1.15 1.02 0.92 0.89 0.90 0.86 0.66 0.53 0.52 0.52 0.51 0.47 0.37 0.37 0.46 0.49 0.45 0.44 0.47
0.60 0.77 0.87 1.03 1.23 0.94 0.51 0.49 0.54 0.56 0.65 0.64 0.69 0.69 0.60 0.59 0.61 0.58 0.60 0.71 0.83 0.89 0.92 0.97 1.02 0.98 0.95 0.89 0.87 0.86 0.73 0.55 0.51 0.56 0.55 0.51 0.42 0.36 0.37 0.43 0.44 0.42 0.41 0.39
0.58 0.46 0.55 0.68 0.69 0.54 0.46 0.42 0.46 0.53 0.53 0.55 0.60 0.60 0.55 0.50 0.50 0.52 0.59 0.70 0.76 0.76 0.76 0.81 0.90 0.90 0.86 0.78 0.75 0.74 0.63 0.56 0.58 0.62 0.55 0.46 0.40 0.34 0.31 0.32 0.30 0.30 0.30 0.30
0.53 0.40 0.53 0.68 0.70 0.61 0.56 0.50 0.49 0.53 0.54 0.51 0.54 0.58 0.51 0.43 0.43 0.46 0.56 0.57 0.61 0.66 0.67 0.72 0.83 0.83 0.73 0.65 0.60 0.55 0.56 0.57 0.62 0.60 0.49 0.43 0.35 0.29 0.27 0.23 0.17 0.16 0.16 0.15
0.39 0.41 0.52 0.68 0.66 0.68 0.64 0.48 0.45 0.54 0.63 0.64 0.60 0.53 0.44 0.39 0.39 0.39 0.47 0.48 0.49 0.55 0.61 0.68 0.68 0.64 0.57 0.52 0.51 0.43 0.44 0.46 0.48 0.44 0.38 0.31 0.26 0.24 0.19 0.18 0.16 0.11 0.09 0.09

GEFSCGP_prec_meanprecacc_204.txt.gz
Total_Precipitation_Accumulation
0.02 0.01 0.02 0.03 0.04 0.06 0.09 0.12 0.14 0.18 0.19 0.22 0.27 0.40 0.59 0.74 0.91 0.91 0.91 0.96 1.00 1.27 1.53 1.87 2.19 2.51 3.02 3.06 2.96 3.07 3.28 3.44 3.54 3.82 3.93 4.15 4.47 4.64 4.77 4.83 4.73 4.69 4.58 4.67
0.03 0.02 0.02 0.02 0.04 0.06 0.10 0.17 0.21 0.20 0.18 0.24 0.37 0.49 0.66 0.81 0.89 0.86 0.91 1.08 1.20 1.52 1.85 2.02 2.20 2.59 3.05 3.23 3.27 3.32 3.57 3.88 4.11 4.34 4.76 5.03 5.27 5.48 5.66 5.70 5.28 5.11 5.02 4.90
0.02 0.02 0.01 0.03 0.04 0.05 0.09 0.13 0.19 0.21 0.18 0.24 0.42 0.65 0.82 0.92 1.04 1.16 1.35 1.52 1.61 1.71 2.02 2.11 2.22 2.59 2.93 3.13 3.28 3.44 3.66 4.11 4.68 5.05 5.47 5.85 6.00 6.03 5.87 5.60 5.48 5.35 5.25 5.13
0.01 0.01 0.01 0.03 0.04 0.05 0.07 0.10 0.17 0.16 0.16 0.26 0.40 0.74 1.08 1.19 1.30 1.56 1.73 1.66 1.69 1.83 2.03 2.17 2.34 2.62 2.92 3.16 3.30 3.61 4.09 4.72 5.29 5.77 6.27 6.74 6.85 6.67 6.36 5.94 5.53 5.27 5.04 4.75
0.02 0.02 0.03 0.04 0.07 0.08 0.08 0.07 0.14 0.14 0.11 0.23 0.37 0.64 1.31 1.53 1.58 1.80 2.03 1.80 1.70 1.68 1.74 2.00 2.17 2.37 2.74 2.96 3.20 3.56 4.12 4.81 5.51 6.34 7.03 7.43 7.33 7.00 6.58 5.93 5.37 4.90 4.49 4.14
0.03 0.03 0.04 0.05 0.05 0.08 0.08 0.07 0.10 0.13 0.13 0.24 0.29 0.53 1.20 1.66 1.85 1.99 1.93 1.73 1.63 1.53 1.50 1.58 1.67 1.95 2.30 2.61 2.92 3.35 3.97 4.67 5.32 5.97 6.51 6.73 6.65 6.45 5.94 5.24 4.63 4.25 3.90 3.54
0.07 0.06 0.07 0.05 0.04 0.07 0.08 0.09 0.24 0.36 0.38 0.36 0.30 0.55 1.16 1.54 1.71 1.68 1.63 1.62 1.46 1.44 1.43 1.40 1.44 1.67 2.01 2.23 2.62 3.04 3.48 4.11 4.53 4.86 5.28 5.49 5.50 5.29 5.00 4.52 4.06 3.63 3.14 2.79
0.18 0.14 0.09 0.05 0.04 0.08 0.08 0.08 0.28 0.50 0.48 0.49 0.51 0.87 1.39 1.48 1.48 1.41 1.36 1.37 1.36 1.35 1.34 1.39 1.49 1.65 1.91 2.05 2.24 2.45 2.76 3.12 3.30 3.33 3.57 3.83 3.84 3.79 3.67 3.38 3.08 2.79 2.43 2.06
0.29 0.20 0.10 0.05 0.04 0.06 0.07 0.07 0.13 0.27 0.33 0.57 0.87 1.25 1.73 1.65 1.59 1.53 1.50 1.34 1.26 1.22 1.25 1.37 1.44 1.43 1.49 1.58 1.67 1.78 1.92 2.08 2.17 2.24 2.28 2.43 2.47 2.44 2.38 2.22 1.99 1.79 1.62 1.40
0.28 0.21 0.11 0.06 0.05 0.06 0.07 0.11 0.17 0.29 0.55 0.78 1.06 1.54 2.16 2.19 1.87 1.58 1.38 1.16 1.06 1.09 1.17 1.27 1.34 1.29 1.27 1.27 1.34 1.43 1.48 1.53 1.59 1.66 1.58 1.59 1.63 1.61 1.53 1.44 1.38 1.26 1.13 1.01
0.25 0.25 0.14 0.09 0.11 0.13 0.12 0.16 0.22 0.32 0.40 0.76 1.22 1.90 2.17 2.37 2.25 1.82 1.46 1.27 1.16 1.09 1.09 1.17 1.15 1.11 1.08 1.07 1.07 1.17 1.20 1.19 1.21 1.21 1.18 1.16 1.13 1.10 1.09 1.10 1.07 0.97 0.85 0.73
0.25 0.32 0.30 0.20 0.15 0.14 0.14 0.17 0.25 0.51 0.58 0.61 1.13 2.08 2.14 2.41 2.49 2.17 1.85 1.68 1.56 1.28 1.18 1.19 1.10 1.02 0.96 0.95 0.94 0.96 0.97 0.98 1.04 0.99 0.91 0.91 0.85 0.79 0.80 0.82 0.77 0.72 0.67 0.60
0.23 0.39 0.69 0.68 0.50 0.27 0.20 0.21 0.24 0.31 0.49 0.69 1.19 2.20 2.38 2.29 2.36 2.28 2.01 1.92 1.96 1.79 1.56 1.41 1.22 1.11 1.06 1.01 0.93 0.85 0.85 0.82 0.85 0.85 0.80 0.78 0.76 0.73 0.72 0.72 0.67 0.60 0.59 0.58
0.18 0.42 0.91 1.25 0.89 0.52 0.36 0.26 0.25 0.32 0.61 0.77 1.12 1.79 2.17 2.24 2.29 2.32 2.36 2.35 2.35 2.05 1.74 1.54 1.31 1.22 1.16 1.08 0.97 0.91 0.91 0.80 0.73 0.73 0.70 0.68 0.67 0.65 0.63 0.64 0.63 0.59 0.51 0.46
0.29 0.65 0.67 0.58 0.51 0.47 0.39 0.35 0.34 0.35 0.43 0.75 1.13 1.53 1.96 2.11 2.20 2.43 2.65 2.53 2.20 1.86 1.66 1.58 1.47 1.37 1.29 1.20 1.13 1.01 0.92 0.80 0.73 0.69 0.67 0.65 0.61 0.56 0.53 0.53 0.53 0.51 0.47 0.41
0.34 0.61 0.60 0.53 0.43 0.48 0.48 0.48 0.50 0.49 0.55 0.82 1.19 1.77 2.08 2.25 2.36 2.42 2.39 2.34 2.24 1.97 1.77 1.69 1.60 1.49 1.43 1.32 1.27 1.17 1.06 0.98 0.86 0.75 0.74 0.70 0.66 0.58 0.54 0.50 0.47 0.46 0.41 0.37
0.34 0.56 0.83 0.76 0.46 0.65 0.99 0.82 0.68 0.71 0.76 0.94 1.27 1.60 1.73 1.89 2.06 2.26 2.35 2.27 2.26 2.06 1.85 1.74 1.74 1.70 1.62 1.57 1.46 1.31 1.16 1.05 0.84 0.72 0.70 0.67 0.61 0.57 0.54 0.46 0.43 0.44 0.45 0.40
0.29 0.55 0.76 0.75 0.87 1.31 1.14 0.72 0.65 0.78 0.84 0.85 1.01 1.12 1.33 1.51 1.70 1.95 2.16 2.22 2.25 2.13 2.00 1.88 1.79 1.74 1.65 1.55 1.43 1.23 1.04 0.88 0.71 0.64 0.61 0.55 0.50 0.51 0.51 0.46 0.45 0.47 0.47 0.46
0.20 0.46 0.75 0.89 1.17 1.32 1.12 0.70 0.62 0.90 1.10 0.86 0.89 0.90 0.92 1.04 1.30 1.74 1.82 1.87 2.00 2.05 2.00 1.89 1.75 1.67 1.54 1.35 1.18 1.07 0.88 0.77 0.69 0.62 0.58 0.50 0.44 0.47 0.49 0.48 0.48 0.51 0.50 0.49
0.24 0.42 0.75 0.95 1.32 1.55 1.36 0.62 0.41 0.73 1.45 1.06 0.94 0.97 0.95 1.12 1.39 1.43 1.36 1.39 1.52 1.68 1.77 1.72 1.54 1.41 1.32 1.14 0.99 0.95 0.84 0.75 0.70 0.61 0.55 0.49 0.45 0.45 0.49 0.53 0.53 0.49 0.50 0.48
0.55 0.68 0.90 1.06 1.33 1.38 0.78 0.45 0.57 1.29 1.60 1.16 0.94 1.00 1.16 1.36 1.29 0.99 0.87 1.02 1.18 1.32 1.47 1.46 1.37 1.29 1.14 0.95 0.91 0.97 0.93 0.79 0.61 0.51 0.49 0.48 0.47 0.46 0.45 0.49 0.52 0.50 0.45 0.47
0.67 0.85 1.01 1.12 1.41 1.40 0.62 0.54 0.92 1.10 0.88 0.79 0.77 0.81 0.84 0.85 0.76 0.69 0.68 0.81 0.93 1.07 1.16 1.24 1.26 1.17 1.06 0.95 0.91 0.93 0.88 0.68 0.57 0.55 0.54 0.53 0.48 0.38 0.38 0.48 0.51 0.47 0.46 0.48
0.60 0.77 0.88 1.03 1.23 0.94 0.51 0.50 0.54 0.56 0.65 0.64 0.69 0.70 0.60 0.60 0.62 0.60 0.63 0.74 0.86 0.92 0.96 1.01 1.05 1.00 0.97 0.90 0.90 0.88 0.75 0.58 0.54 0.59 0.56 0.52 0.43 0.37 0.38 0.45 0.46 0.43 0.42 0.39
0.59 0.46 0.55 0.68 0.69 0.54 0.46 0.42 0.46 0.53 0.53 0.55 0.60 0.60 0.55 0.51 0.51 0.53 0.60 0.71 0.78 0.79 0.79 0.85 0.93 0.92 0.88 0.81 0.78 0.77 0.65 0.58 0.60 0.63 0.55 0.47 0.41 0.35 0.33 0.35 0.33 0.33 0.32 0.31
0.54 0.40 0.54 0.69 0.70 0.61 0.56 0.50 0.50 0.53 0.54 0.51 0.54 0.58 0.52 0.44 0.44 0.47 0.57 0.58 0.63 0.69 0.70 0.75 0.85 0.85 0.74 0.67 0.62 0.57 0.57 0.58 0.63 0.60 0.50 0.43 0.36 0.30 0.29 0.25 0.20 0.19 0.18 0.17
0.39 0.42 0.52 0.68 0.66 0.68 0.65 0.48 0.45 0.54 0.63 0.64 0.60 0.54 0.45 0.41 0.40 0.40 0.47 0.49 0.50 0.56 0.63 0.69 0.69 0.65 0.58 0.53 0.52 0.44 0.45 0.48 0.49 0.45 0.39 0.32 0.27 0.25 0.20 0.20 0.18 0.12 0.10 0.10

GEFSCGP_prec_meanprecacc_210.txt.gz
Total_Precipitation_Accumulation
0.02 0.02 0.03 0.05 0.06 0.08 0.11 0.14 0.15 0.19 0.20 0.24 0.30 0.42 0.60 0.76 0.93 0.94 0.96 0.99 1.04 1.35 1.58 1.90 2.22 2.55 3.09 3.14 3.00 3.11 3.31 3.47 3.59 3.88 3.98 4.21 4.53 4.70 4.83 4.88 4.78 4.75 4.64 4.72
0.04 0.03 0.03 0.05 0.05 0.07 0.12 0.20 0.23 0.22 0.20 0.27 0.41 0.52 0.68 0.82 0.92 0.91 0.96 1.11 1.22 1.59 1.92 2.05 2.22 2.62 3.11 3.28 3.30 3.36 3.61 3.92 4.15 4.39 4.84 5.12 5.36 5.56 5.73 5.75 5.34 5.17 5.07 4.95
0.03 0.02 0.02 0.05 0.05 0.06 0.10 0.15 0.20 0.22 0.21 0.26 0.46 0.71 0.84 0.93 1.06 1.20 1.39 1.56 1.64 1.75 2.06 2.14 2.25 2.63 2.98 3.17 3.32 3.47 3.70 4.15 4.72 5.09 5.54 5.93 6.09 6.12 5.95 5.66 5.53 5.40 5.29 5.16
0.01 0.01 0.02 0.04 0.05 0.05 0.08 0.11 0.17 0.16 0.18 0.28 0.42 0.80 1.13 1.21 1.33 1.59 1.77 1.70 1.73 1.87 2.06 2.20 2.37 2.64 2.95 3.19 3.34 3.66 4.13 4.76 5.33 5.81 6.34 6.82 6.94 6.77 6.46 6.00 5.57 5.32 5.09 4.79
0.03 0.03 0.04 0.05 0.07 0.08 0.08 0.08 0.14 0.15 0.12 0.26 0.38 0.67 1.37 1.56 1.64 1.85 2.07 1.85 1.74 1.72 1.77 2.02 2.19 2.39 2.75 2.98 3.23 3.60 4.15 4.85 5.56 6.39 7.08 7.50 7.42 7.08 6.66 5.99 5.42 4.95 4.54 4.17
0.04 0.04 0.04 0.05 0.06 0.08 0.08 0.08 0.11 0.13 0.14 0.28 0.31 0.57 1.27 1.72 1.92 2.03 1.96 1.78 1.69 1.56 1.53 1.61 1.70 1.98 2.32 2.63 2.95 3.39 4.00 4.71 5.37 6.02 6.56 6.79 6.70 6.50 5.99 5.29 4.68 4.28 3.94 3.58
0.08 0.08 0.07 0.05 0.04 0.07 0.08 0.10 0.27 0.39 0.43 0.41 0.33 0.59 1.24 1.58 1.73 1.70 1.64 1.65 1.51 1.48 1.46 1.44 1.47 1.70 2.04 2.26 2.64 3.08 3.52 4.16 4.58 4.91 5.33 5.53 5.55 5.33 5.04 4.57 4.11 3.67 3.18 2.83
0.20 0.16 0.09 0.06 0.04 0.08 0.09 0.10 0.31 0.55 0.53 0.54 0.54 0.93 1.47 1.53 1.50 1.42 1.37 1.39 1.39 1.38 1.38 1.42 1.52 1.67 1.92 2.07 2.26 2.48 2.80 3.16 3.34 3.38 3.62 3.88 3.89 3.85 3.73 3.45 3.14 2.84 2.48 2.11
0.31 0.22 0.10 0.06 0.04 0.06 0.07 0.08 0.14 0.30 0.35 0.62 0.92 1.33 1.78 1.68 1.61 1.54 1.51 1.36 1.28 1.24 1.27 1.40 1.47 1.46 1.52 1.61 1.70 1.80 1.96 2.13 2.22 2.30 2.34 2.50 2.53 2.52 2.44 2.29 2.06 1.85 1.69 1.47
0.29 0.24 0.12 0.06 0.05 0.06 0.07 0.11 0.17 0.32 0.58 0.83 1.13 1.66 2.24 2.22 1.88 1.60 1.39 1.17 1.07 1.10 1.18 1.29 1.36 1.32 1.31 1.31 1.39 1.46 1.52 1.58 1.64 1.71 1.64 1.65 1.70 1.70 1.63 1.52 1.45 1.33 1.22 1.11
0.25 0.28 0.15 0.09 0.11 0.13 0.12 0.16 0.22 0.33 0.42 0.80 1.29 2.00 2.21 2.39 2.26 1.82 1.47 1.28 1.17 1.10 1.10 1.18 1.17 1.14 1.12 1.11 1.14 1.22 1.25 1.23 1.24 1.25 1.22 1.21 1.18 1.17 1.19 1.19 1.15 1.05 0.95 0.83
0.26 0.34 0.32 0.20 0.16 0.15 0.14 0.18 0.27 0.54 0.61 0.63 1.18 2.14 2.17 2.43 2.50 2.18 1.86 1.69 1.57 1.29 1.19 1.21 1.13 1.05 0.99 0.98 0.98 1.02 1.03 1.02 1.08 1.02 0.94 0.95 0.90 0.85 0.89 0.92 0.85 0.80 0.76 0.67
0.23 0.42 0.74 0.71 0.51 0.27 0.20 0.21 0.25 0.32 0.51 0.72 1.26 2.27 2.41 2.32 2.37 2.30 2.02 1.93 1.97 1.80 1.57 1.43 1.25 1.14 1.09 1.04 0.96 0.88 0.90 0.88 0.90 0.89 0.83 0.82 0.79 0.77 0.78 0.80 0.75 0.68 0.66 0.63
0.18 0.44 0.95 1.27 0.91 0.52 0.36 0.26 0.25 0.33 0.64 0.81 1.18 1.87 2.20 2.26 2.33 2.38 2.40 2.37 2.36 2.06 1.75 1.56 1.34 1.24 1.20 1.11 1.01 0.94 0.95 0.87 0.80 0.79 0.74 0.71 0.70 0.69 0.68 0.70 0.71 0.64 0.56 0.51
0.30 0.66 0.68 0.59 0.51 0.47 0.39 0.36 0.34 0.36 0.44 0.77 1.18 1.58 1.99 2.13 2.26 2.52 2.68 2.55 2.22 1.88 1.68 1.59 1.50 1.40 1.33 1.24 1.16 1.05 0.97 0.87 0.81 0.76 0.72 0.68 0.64 0.61 0.57 0.58 0.58 0.55 0.53 0.46
0.35 0.63 0.61 0.54 0.43 0.49 0.48 0.49 0.51 0.50 0.56 0.84 1.23 1.82 2.11 2.30 2.43 2.45 2.40 2.36 2.26 1.98 1.78 1.70 1.63 1.53 1.48 1.37 1.31 1.22 1.10 1.04 0.94 0.85 0.82 0.75 0.69 0.60 0.57 0.54 0.52 0.50 0.47 0.44
0.34 0.57 0.85 0.77 0.47 0.66 1.00 0.82 0.68 0.72 0.76 0.96 1.30 1.64 1.78 1.95 2.08 2.29 2.38 2.30 2.28 2.08 1.87 1.77 1.77 1.75 1.67 1.61 1.51 1.36 1.21 1.11 0.91 0.78 0.74 0.71 0.65 0.60 0.56 0.48 0.46 0.48 0.51 0.49
0.30 0.57 0.78 0.77 0.89 1.35 1.15 0.72 0.65 0.79 0.85 0.85 1.02 1.13 1.34 1.53 1.72 1.98 2.20 2.29 2.29 2.15 2.03 1.91 1.83 1.79 1.70 1.61 1.48 1.29 1.10 0.92 0.76 0.68 0.65 0.59 0.54 0.55 0.55 0.50 0.49 0.51 0.53 0.51
0.20 0.47 0.77 0.91 1.20 1.35 1.13 0.70 0.62 0.91 1.12 0.86 0.90 0.91 0.93 1.05 1.32 1.78 1.91 1.94 2.02 2.07 2.04 1.93 1.79 1.71 1.59 1.40 1.23 1.12 0.92 0.80 0.73 0.68 0.64 0.55 0.48 0.51 0.54 0.53 0.53 0.57 0.55 0.55
0.24 0.42 0.77 0.97 1.35 1.59 1.38 0.63 0.41 0.74 1.48 1.07 0.95 0.98 0.96 1.13 1.43 1.48 1.41 1.42 1.54 1.69 1.80 1.75 1.58 1.44 1.37 1.19 1.02 0.97 0.85 0.77 0.73 0.65 0.60 0.54 0.50 0.50 0.54 0.58 0.59 0.55 0.55 0.52
0.57 0.69 0.91 1.08 1.36 1.40 0.79 0.45 0.58 1.32 1.64 1.17 0.95 1.01 1.17 1.39 1.35 1.03 0.90 1.05 1.20 1.33 1.49 1.49 1.39 1.31 1.16 0.98 0.95 1.00 0.95 0.80 0.64 0.53 0.52 0.54 0.52 0.51 0.50 0.54 0.57 0.54 0.49 0.50
0.68 0.86 1.02 1.13 1.44 1.44 0.63 0.55 0.94 1.12 0.89 0.79 0.79 0.82 0.85 0.87 0.78 0.71 0.71 0.83 0.95 1.08 1.17 1.25 1.28 1.20 1.08 0.97 0.95 0.95 0.91 0.72 0.60 0.58 0.59 0.56 0.52 0.43 0.42 0.51 0.54 0.50 0.49 0.51
0.61 0.78 0.89 1.05 1.26 0.96 0.53 0.51 0.55 0.56 0.66 0.66 0.70 0.70 0.61 0.61 0.63 0.61 0.65 0.77 0.88 0.93 0.97 1.02 1.06 1.02 1.00 0.93 0.93 0.91 0.79 0.61 0.57 0.62 0.59 0.54 0.47 0.41 0.42 0.47 0.49 0.45 0.44 0.42
0.60 0.47 0.56 0.69 0.70 0.56 0.49 0.46 0.48 0.54 0.54 0.55 0.60 0.61 0.56 0.52 0.52 0.54 0.63 0.74 0.80 0.81 0.80 0.85 0.93 0.93 0.90 0.82 0.80 0.80 0.68 0.61 0.64 0.66 0.58 0.49 0.43 0.37 0.35 0.37 0.35 0.35 0.34 0.34
0.55 0.42 0.55 0.70 0.71 0.62 0.58 0.51 0.51 0.54 0.54 0.52 0.55 0.59 0.53 0.45 0.45 0.49 0.59 0.61 0.66 0.71 0.72 0.76 0.86 0.86 0.75 0.68 0.64 0.59 0.60 0.62 0.67 0.63 0.52 0.45 0.37 0.31 0.31 0.27 0.22 0.20 0.20 0.19
0.41 0.44 0.54 0.70 0.67 0.70 0.65 0.48 0.46 0.55 0.64 0.64 0.60 0.54 0.45 0.42 0.41 0.41 0.49 0.52 0.53 0.58 0.64 0.70 0.70 0.67 0.59 0.54 0.53 0.47 0.49 0.52 0.53 0.48 0.41 0.34 0.29 0.27 0.22 0.21 0.19 0.13 0.11 0.11

GEFSCGP_prec_meanprecacc_216.txt.gz
Total_Precipitation_Accumulation
0.02 0.03 0.06 0.09 0.09 0.10 0.12 0.16 0.18 0.21 0.23 0.28 0.34 0.46 0.70 0.83 1.00 1.00 1.02 1.04 1.10 1.43 1.64 1.95 2.29 2.62 3.17 3.22 3.06 3.16 3.37 3.55 3.65 3.94 4.04 4.26 4.60 4.82 4.97 5.00 4.88 4.83 4.69 4.76
0.04 0.04 0.04 0.07 0.08 0.09 0.15 0.23 0.27 0.24 0.23 0.31 0.44 0.58 0.77 0.90 0.98 0.95 1.03 1.17 1.28 1.67 2.00 2.13 2.31 2.72 3.21 3.39 3.41 3.45 3.65 3.96 4.18 4.42 4.87 5.17 5.43 5.68 5.88 5.89 5.46 5.25 5.13 4.99
0.04 0.04 0.03 0.06 0.06 0.07 0.11 0.17 0.21 0.24 0.23 0.30 0.49 0.76 0.93 1.01 1.12 1.25 1.45 1.64 1.74 1.89 2.19 2.27 2.37 2.73 3.05 3.24 3.38 3.51 3.74 4.19 4.74 5.13 5.59 6.00 6.16 6.20 6.07 5.79 5.65 5.50 5.36 5.22
0.02 0.02 0.02 0.06 0.08 0.09 0.10 0.12 0.18 0.18 0.21 0.32 0.45 0.84 1.18 1.26 1.37 1.65 1.86 1.83 1.87 2.01 2.20 2.35 2.51 2.74 3.01 3.23 3.38 3.70 4.17 4.80 5.37 5.85 6.38 6.86 6.98 6.82 6.52 6.08 5.65 5.40 5.16 4.85
0.04 0.04 0.06 0.06 0.09 0.11 0.10 0.09 0.15 0.16 0.15 0.28 0.42 0.71 1.43 1.61 1.70 1.94 2.16 1.94 1.85 1.83 1.88 2.13 2.29 2.48 2.85 3.04 3.27 3.64 4.18 4.88 5.60 6.43 7.12 7.53 7.45 7.11 6.70 6.02 5.45 4.99 4.58 4.23
0.05 0.04 0.05 0.06 0.07 0.09 0.09 0.09 0.12 0.15 0.18 0.31 0.34 0.61 1.34 1.80 1.99 2.10 2.04 1.86 1.77 1.64 1.61 1.69 1.78 2.04 2.37 2.68 2.99 3.42 4.03 4.75 5.41 6.06 6.60 6.83 6.73 6.52 6.01 5.32 4.69 4.30 3.97 3.62
0.09 0.08 0.07 0.06 0.05 0.08 0.09 0.11 0.29 0.43 0.48 0.48 0.38 0.65 1.31 1.70 1.84 1.77 1.71 1.73 1.59 1.55 1.52 1.49 1.51 1.74 2.07 2.28 2.68 3.11 3.55 4.19 4.63 4.96 5.38 5.57 5.58 5.35 5.06 4.59 4.13 3.69 3.21 2.86
0.21 0.17 0.10 0.06 0.05 0.09 0.09 0.10 0.33 0.57 0.56 0.58 0.60 0.99 1.54 1.61 1.58 1.49 1.43 1.46 1.47 1.43 1.42 1.46 1.54 1.70 1.95 2.10 2.29 2.52 2.83 3.19 3.38 3.43 3.67 3.91 3.93 3.88 3.76 3.47 3.16 2.87 2.52 2.15
0.32 0.22 0.11 0.06 0.04 0.06 0.07 0.08 0.15 0.31 0.36 0.64 0.96 1.41 1.86 1.74 1.68 1.60 1.56 1.41 1.33 1.29 1.31 1.43 1.49 1.49 1.55 1.64 1.73 1.82 2.00 2.17 2.25 2.34 2.40 2.55 2.59 2.57 2.48 2.32 2.09 1.90 1.75 1.53
0.30 0.25 0.12 0.06 0.05 0.06 0.07 0.12 0.18 0.33 0.61 0.86 1.18 1.76 2.34 2.27 1.92 1.63 1.45 1.23 1.11 1.14 1.22 1.31 1.38 1.35 1.35 1.35 1.42 1.49 1.56 1.63 1.68 1.74 1.69 1.70 1.75 1.75 1.69 1.56 1.49 1.39 1.27 1.17
0.26 0.28 0.15 0.10 0.13 0.14 0.13 0.17 0.23 0.35 0.44 0.83 1.33 2.06 2.25 2.43 2.31 1.89 1.56 1.36 1.22 1.14 1.12 1.20 1.20 1.18 1.16 1.16 1.19 1.26 1.30 1.29 1.30 1.29 1.25 1.24 1.21 1.22 1.25 1.24 1.20 1.11 1.00 0.87
0.26 0.35 0.32 0.21 0.16 0.15 0.15 0.19 0.28 0.56 0.64 0.66 1.25 2.24 2.22 2.47 2.55 2.25 1.93 1.73 1.61 1.33 1.22 1.23 1.15 1.09 1.03 1.03 1.04 1.07 1.08 1.08 1.13 1.06 0.97 0.97 0.94 0.92 0.95 0.97 0.90 0.85 0.81 0.71
0.24 0.43 0.75 0.72 0.52 0.28 0.21 0.22 0.26 0.34 0.53 0.74 1.31 2.38 2.49 2.37 2.41 2.36 2.07 1.96 2.00 1.83 1.60 1.45 1.26 1.16 1.12 1.07 0.99 0.92 0.94 0.93 0.94 0.92 0.86 0.84 0.82 0.82 0.83 0.85 0.80 0.73 0.70 0.66
0.19 0.45 0.97 1.29 0.92 0.54 0.37 0.27 0.26 0.34 0.65 0.84 1.21 1.90 2.25 2.30 2.36 2.42 2.45 2.40 2.39 2.10 1.78 1.57 1.35 1.26 1.21 1.12 1.02 0.96 0.96 0.90 0.84 0.83 0.77 0.75 0.73 0.73 0.72 0.74 0.75 0.68 0.58 0.53
0.31 0.68 0.69 0.60 0.52 0.48 0.40 0.37 0.35 0.36 0.47 0.79 1.20 1.61 2.03 2.17 2.30 2.56 2.71 2.59 2.31 1.94 1.70 1.60 1.51 1.41 1.34 1.24 1.17 1.06 0.98 0.89 0.85 0.81 0.77 0.73 0.68 0.64 0.61 0.61 0.62 0.59 0.55 0.48
0.36 0.64 0.62 0.54 0.44 0.49 0.49 0.50 0.52 0.50 0.57 0.85 1.24 1.85 2.16 2.35 2.46 2.48 2.44 2.46 2.39 2.03 1.80 1.72 1.64 1.54 1.49 1.37 1.31 1.22 1.11 1.05 0.95 0.88 0.86 0.79 0.72 0.63 0.61 0.58 0.57 0.55 0.50 0.46
0.35 0.59 0.86 0.78 0.47 0.67 1.01 0.83 0.69 0.72 0.77 0.96 1.32 1.68 1.84 1.99 2.12 2.32 2.43 2.36 2.34 2.11 1.89 1.78 1.78 1.75 1.68 1.62 1.52 1.36 1.21 1.13 0.95 0.82 0.77 0.74 0.69 0.64 0.61 0.53 0.50 0.53 0.54 0.52
0.30 0.59 0.81 0.78 0.91 1.37 1.16 0.73 0.65 0.79 0.85 0.86 1.03 1.15 1.38 1.56 1.76 2.01 2.23 2.33 2.35 2.18 2.05 1.94 1.84 1.80 1.71 1.62 1.50 1.31 1.13 0.96 0.79 0.70 0.66 0.62 0.58 0.60 0.61 0.55 0.53 0.55 0.56 0.53
0.21 0.50 0.80 0.92 1.21 1.38 1.14 0.71 0.62 0.91 1.12 0.87 0.91 0.93 0.95 1.07 1.34 1.80 1.92 1.97 2.06 2.10 2.05 1.94 1.81 1.73 1.61 1.42 1.26 1.14 0.94 0.82 0.74 0.69 0.66 0.57 0.51 0.57 0.60 0.57 0.57 0.61 0.58 0.57
0.25 0.44 0.79 0.99 1.37 1.64 1.41 0.63 0.42 0.74 1.49 1.08 0.96 1.00 0.98 1.14 1.45 1.50 1.42 1.46 1.59 1.72 1.81 1.76 1.58 1.45 1.38 1.20 1.03 0.98 0.86 0.77 0.73 0.66 0.62 0.56 0.54 0.57 0.59 0.63 0.63 0.57 0.57 0.54
0.58 0.70 0.92 1.09 1.38 1.44 0.80 0.46 0.58 1.33 1.66 1.18 0.96 1.03 1.19 1.40 1.37 1.05 0.92 1.09 1.26 1.36 1.50 1.49 1.39 1.31 1.16 0.98 0.96 1.00 0.96 0.82 0.65 0.55 0.55 0.58 0.59 0.55 0.53 0.56 0.59 0.56 0.50 0.52
0.69 0.87 1.03 1.15 1.47 1.46 0.64 0.56 0.95 1.13 0.90 0.80 0.80 0.84 0.87 0.89 0.80 0.73 0.73 0.87 0.98 1.10 1.19 1.25 1.28 1.20 1.08 0.98 0.96 0.96 0.92 0.73 0.62 0.61 0.62 0.59 0.55 0.45 0.43 0.52 0.56 0.52 0.50 0.53
0.62 0.79 0.90 1.06 1.28 0.98 0.54 0.52 0.56 0.57 0.67 0.66 0.71 0.71 0.62 0.63 0.65 0.62 0.67 0.80 0.90 0.95 0.98 1.02 1.06 1.03 1.00 0.93 0.93 0.92 0.80 0.63 0.60 0.65 0.61 0.55 0.47 0.42 0.42 0.48 0.50 0.48 0.47 0.44
0.63 0.49 0.57 0.71 0.71 0.57 0.50 0.47 0.50 0.56 0.56 0.57 0.61 0.61 0.57 0.52 0.53 0.55 0.64 0.76 0.82 0.81 0.81 0.86 0.94 0.93 0.90 0.82 0.80 0.81 0.69 0.64 0.67 0.67 0.58 0.50 0.44 0.38 0.36 0.38 0.36 0.36 0.37 0.37
0.59 0.44 0.58 0.73 0.72 0.64 0.60 0.53 0.52 0.56 0.56 0.53 0.56 0.59 0.53 0.45 0.45 0.50 0.60 0.63 0.68 0.72 0.72 0.77 0.87 0.86 0.76 0.68 0.64 0.60 0.63 0.67 0.70 0.64 0.52 0.45 0.38 0.32 0.31 0.27 0.22 0.21 0.22 0.22
0.44 0.47 0.57 0.74 0.70 0.73 0.68 0.51 0.47 0.56 0.64 0.65 0.61 0.54 0.46 0.42 0.41 0.41 0.50 0.53 0.55 0.60 0.65 0.71 0.71 0.67 0.60 0.55 0.54 0.49 0.52 0.58 0.55 0.49 0.42 0.35 0.29 0.27 0.23 0.22 0.20 0.14 0.13 0.14

GEFSCGP_prec_meanprecacc_222.txt.gz
Total_Precipitation_Accumulation
0.03 0.04 0.06 0.09 0.10 0.11 0.13 0.16 0.19 0.23 0.24 0.28 0.35 0.48 0.73 0.87 1.04 1.04 1.07 1.16 1.25 1.55 1.75 2.08 2.42 2.72 3.25 3.28 3.15 3.24 3.41 3.60 3.70 3.96 4.05 4.28 4.62 4.84 4.99 5.02 4.91 4.88 4.76 4.85
0.05 0.04 0.04 0.07 0.08 0.10 0.15 0.23 0.28 0.25 0.23 0.31 0.45 0.59 0.79 0.93 1.01 0.99 1.08 1.26 1.38 1.77 2.11 2.26 2.44 2.82 3.31 3.47 3.49 3.52 3.71 4.01 4.22 4.45 4.90 5.19 5.45 5.69 5.89 5.93 5.50 5.29 5.19 5.08
0.04 0.04 0.03 0.06 0.07 0.07 0.12 0.17 0.23 0.25 0.23 0.30 0.50 0.78 0.95 1.04 1.17 1.30 1.51 1.70 1.81 1.99 2.31 2.39 2.49 2.83 3.16 3.33 3.45 3.58 3.82 4.24 4.78 5.17 5.62 6.02 6.17 6.22 6.08 5.83 5.72 5.58 5.42 5.26
0.02 0.02 0.02 0.06 0.08 0.09 0.11 0.12 0.20 0.19 0.22 0.32 0.46 0.85 1.19 1.29 1.42 1.68 1.90 1.89 1.93 2.10 2.30 2.43 2.60 2.83 3.11 3.33 3.46 3.79 4.27 4.86 5.42 5.89 6.42 6.89 7.00 6.85 6.55 6.11 5.69 5.44 5.20 4.88
0.04 0.04 0.06 0.06 0.09 0.11 0.11 0.10 0.16 0.18 0.16 0.28 0.42 0.72 1.44 1.63 1.73 1.97 2.20 1.98 1.91 1.91 1.97 2.20 2.37 2.57 2.95 3.12 3.33 3.69 4.24 4.94 5.64 6.46 7.15 7.57 7.49 7.16 6.73 6.06 5.48 5.00 4.60 4.25
0.05 0.05 0.06 0.06 0.07 0.10 0.10 0.10 0.14 0.16 0.19 0.32 0.34 0.62 1.34 1.81 2.02 2.14 2.07 1.89 1.81 1.69 1.70 1.80 1.89 2.13 2.46 2.76 3.05 3.46 4.07 4.78 5.44 6.10 6.63 6.86 6.77 6.56 6.04 5.34 4.72 4.32 3.99 3.64
0.09 0.08 0.08 0.06 0.06 0.09 0.10 0.12 0.31 0.43 0.48 0.48 0.39 0.65 1.31 1.70 1.86 1.79 1.73 1.76 1.63 1.61 1.60 1.58 1.60 1.81 2.14 2.35 2.72 3.15 3.58 4.22 4.65 5.00 5.42 5.60 5.62 5.39 5.09 4.61 4.15 3.71 3.23 2.88
0.21 0.17 0.10 0.06 0.05 0.09 0.10 0.11 0.33 0.58 0.56 0.58 0.60 1.00 1.54 1.62 1.59 1.51 1.45 1.48 1.50 1.50 1.48 1.52 1.60 1.76 2.02 2.15 2.35 2.57 2.87 3.23 3.42 3.48 3.72 3.96 3.98 3.93 3.79 3.51 3.20 2.90 2.53 2.16
0.32 0.23 0.11 0.06 0.04 0.06 0.08 0.08 0.15 0.31 0.37 0.65 0.97 1.41 1.86 1.75 1.68 1.61 1.58 1.43 1.36 1.33 1.36 1.46 1.53 1.53 1.59 1.68 1.78 1.88 2.04 2.20 2.31 2.39 2.44 2.60 2.63 2.62 2.53 2.36 2.13 1.93 1.77 1.55
0.30 0.25 0.12 0.06 0.05 0.06 0.07 0.12 0.18 0.34 0.62 0.88 1.19 1.77 2.34 2.28 1.93 1.64 1.46 1.25 1.14 1.17 1.25 1.34 1.40 1.38 1.38 1.38 1.46 1.53 1.58 1.65 1.71 1.78 1.72 1.73 1.78 1.79 1.74 1.61 1.54 1.44 1.31 1.21
0.26 0.29 0.16 0.11 0.13 0.14 0.14 0.17 0.24 0.36 0.46 0.83 1.33 2.06 2.26 2.44 2.33 1.90 1.57 1.38 1.25 1.16 1.14 1.22 1.22 1.20 1.18 1.18 1.22 1.30 1.32 1.32 1.33 1.32 1.29 1.26 1.23 1.24 1.29 1.30 1.25 1.16 1.05 0.94
0.27 0.35 0.33 0.21 0.16 0.16 0.16 0.19 0.28 0.57 0.64 0.66 1.26 2.24 2.24 2.49 2.57 2.27 1.95 1.75 1.63 1.35 1.25 1.25 1.17 1.11 1.05 1.05 1.06 1.10 1.11 1.12 1.16 1.08 0.99 0.99 0.96 0.95 0.99 1.03 0.95 0.90 0.87 0.78
0.24 0.43 0.75 0.72 0.52 0.28 0.21 0.23 0.27 0.35 0.53 0.74 1.32 2.40 2.52 2.39 2.43 2.38 2.09 1.97 2.01 1.85 1.61 1.47 1.28 1.18 1.14 1.09 1.02 0.94 0.97 0.97 0.97 0.94 0.88 0.86 0.84 0.84 0.86 0.87 0.84 0.78 0.76 0.72
0.19 0.45 0.97 1.29 0.93 0.55 0.38 0.28 0.27 0.34 0.66 0.85 1.23 1.93 2.28 2.32 2.38 2.43 2.46 2.41 2.40 2.12 1.79 1.59 1.36 1.27 1.23 1.14 1.04 0.98 0.98 0.92 0.86 0.85 0.80 0.78 0.76 0.75 0.75 0.77 0.80 0.74 0.65 0.58
0.31 0.68 0.70 0.60 0.53 0.48 0.41 0.38 0.36 0.37 0.48 0.81 1.23 1.63 2.05 2.19 2.32 2.57 2.71 2.60 2.31 1.95 1.72 1.62 1.52 1.42 1.35 1.26 1.18 1.07 1.00 0.91 0.86 0.83 0.79 0.75 0.70 0.66 0.64 0.66 0.67 0.66 0.61 0.52
0.36 0.65 0.62 0.54 0.44 0.50 0.50 0.51 0.53 0.51 0.58 0.86 1.26 1.88 2.19 2.36 2.47 2.48 2.45 2.47 2.40 2.04 1.82 1.73 1.64 1.54 1.50 1.38 1.32 1.23 1.12 1.06 0.97 0.89 0.88 0.81 0.75 0.67 0.65 0.63 0.63 0.61 0.55 0.50
0.35 0.59 0.87 0.78 0.47 0.67 1.01 0.83 0.69 0.73 0.77 0.98 1.34 1.71 1.87 2.01 2.13 2.32 2.44 2.36 2.35 2.13 1.91 1.79 1.78 1.76 1.69 1.63 1.53 1.37 1.22 1.14 0.96 0.84 0.81 0.79 0.74 0.69 0.65 0.57 0.53 0.55 0.57 0.53
0.30 0.59 0.81 0.79 0.91 1.37 1.17 0.73 0.66 0.79 0.86 0.87 1.05 1.18 1.40 1.58 1.77 2.02 2.24 2.34 2.36 2.21 2.08 1.96 1.85 1.81 1.72 1.64 1.51 1.33 1.14 0.98 0.82 0.74 0.70 0.65 0.62 0.63 0.64 0.57 0.54 0.56 0.57 0.55
0.22 0.50 0.80 0.93 1.21 1.38 1.15 0.71 0.63 0.92 1.13 0.87 0.92 0.94 0.96 1.07 1.35 1.81 1.94 1.98 2.08 2.11 2.07 1.97 1.83 1.75 1.63 1.45 1.29 1.17 0.96 0.84 0.76 0.70 0.67 0.59 0.53 0.58 0.61 0.58 0.57 0.61 0.59 0.58
0.26 0.44 0.79 0.99 1.38 1.64 1.41 0.63 0.42 0.75 1.50 1.08 0.96 1.00 0.98 1.15 1.45 1.51 1.44 1.47 1.59 1.73 1.82 1.77 1.59 1.46 1.39 1.21 1.05 0.99 0.87 0.78 0.74 0.68 0.63 0.57 0.55 0.58 0.61 0.64 0.63 0.58 0.57 0.54
0.58 0.70 0.92 1.10 1.39 1.45 0.80 0.46 0.59 1.34 1.67 1.18 0.97 1.04 1.20 1.40 1.37 1.05 0.92 1.10 1.26 1.37 1.51 1.50 1.40 1.32 1.18 1.00 0.97 1.01 0.96 0.82 0.66 0.57 0.56 0.59 0.60 0.56 0.54 0.57 0.59 0.57 0.50 0.52
0.70 0.88 1.04 1.16 1.48 1.48 0.65 0.57 0.97 1.15 0.91 0.81 0.81 0.85 0.88 0.90 0.81 0.73 0.73 0.87 0.98 1.10 1.19 1.26 1.29 1.21 1.09 0.98 0.96 0.96 0.92 0.74 0.63 0.62 0.62 0.59 0.55 0.45 0.43 0.53 0.56 0.52 0.50 0.53
0.63 0.80 0.91 1.08 1.30 0.98 0.55 0.53 0.57 0.58 0.67 0.67 0.71 0.72 0.63 0.63 0.65 0.63 0.68 0.80 0.91 0.95 0.99 1.03 1.07 1.03 1.00 0.94 0.93 0.92 0.80 0.64 0.60 0.65 0.61 0.55 0.48 0.42 0.42 0.48 0.50 0.48 0.47 0.45
0.64 0.50 0.58 0.71 0.72 0.57 0.51 0.47 0.50 0.56 0.56 0.57 0.62 0.62 0.57 0.53 0.53 0.55 0.64 0.76 0.83 0.82 0.82 0.87 0.95 0.94 0.90 0.83 0.80 0.81 0.70 0.65 0.67 0.67 0.58 0.50 0.44 0.38 0.36 0.38 0.36 0.37 0.37 0.38
0.60 0.46 0.60 0.73 0.73 0.65 0.61 0.54 0.53 0.56 0.56 0.54 0.56 0.59 0.53 0.45 0.46 0.50 0.60 0.63 0.68 0.73 0.73 0.77 0.87 0.87 0.77 0.69 0.65 0.61 0.63 0.68 0.70 0.65 0.53 0.45 0.38 0.32 0.31 0.27 0.22 0.21 0.23 0.23
0.46 0.49 0.60 0.77 0.71 0.74 0.69 0.51 0.48 0.56 0.65 0.65 0.61 0.54 0.46 0.42 0.41 0.41 0.50 0.53 0.55 0.61 0.66 0.72 0.71 0.68 0.61 0.56 0.55 0.50 0.53 0.58 0.56 0.50 0.43 0.35 0.29 0.28 0.23 0.22 0.20 0.15 0.13 0.14

GEFSCGP_prec_meanprecacc_228.txt.gz
Total_Precipitation_Accumulation
0.03 0.04 0.06 0.09 0.10 0.11 0.13 0.16 0.19 0.23 0.24 0.29 0.36 0.48 0.73 0.89 1.05 1.05 1.10 1.21 1.33 1.62 1.81 2.13 2.49 2.79 3.30 3.31 3.17 3.26 3.43 3.61 3.71 3.98 4.07 4.30 4.64 4.87 5.03 5.07 4.93 4.91 4.80 4.90
0.05 0.05 0.05 0.08 0.08 0.10 0.15 0.24 0.28 0.25 0.24 0.32 0.46 0.60 0.79 0.94 1.02 0.99 1.09 1.29 1.43 1.82 2.16 2.31 2.50 2.90 3.37 3.51 3.51 3.53 3.72 4.03 4.24 4.46 4.92 5.22 5.48 5.72 5.92 5.95 5.52 5.32 5.21 5.10
0.04 0.04 0.04 0.07 0.07 0.08 0.12 0.18 0.23 0.25 0.23 0.31 0.51 0.79 0.95 1.05 1.17 1.31 1.52 1.72 1.84 2.05 2.39 2.46 2.55 2.91 3.23 3.39 3.47 3.60 3.83 4.26 4.80 5.18 5.65 6.06 6.21 6.25 6.11 5.85 5.74 5.59 5.43 5.27
0.03 0.02 0.03 0.07 0.09 0.09 0.11 0.13 0.20 0.19 0.22 0.33 0.46 0.86 1.20 1.30 1.43 1.69 1.91 1.92 2.01 2.18 2.36 2.48 2.64 2.89 3.18 3.39 3.50 3.82 4.30 4.89 5.44 5.93 6.47 6.95 7.05 6.89 6.59 6.13 5.71 5.46 5.22 4.90
0.04 0.04 0.06 0.07 0.10 0.12 0.11 0.10 0.17 0.18 0.16 0.29 0.42 0.73 1.45 1.63 1.74 1.98 2.20 2.00 1.96 1.96 2.02 2.26 2.44 2.63 3.01 3.20 3.39 3.75 4.30 4.98 5.67 6.49 7.19 7.62 7.54 7.20 6.76 6.08 5.50 5.04 4.63 4.27
0.05 0.05 0.06 0.07 0.08 0.10 0.10 0.11 0.15 0.17 0.19 0.33 0.34 0.63 1.35 1.81 2.02 2.14 2.08 1.90 1.86 1.76 1.75 1.87 1.97 2.22 2.53 2.82 3.11 3.52 4.12 4.82 5.47 6.12 6.66 6.90 6.80 6.60 6.07 5.38 4.75 4.35 4.02 3.67
0.09 0.08 0.08 0.06 0.06 0.09 0.10 0.13 0.33 0.45 0.49 0.49 0.39 0.67 1.32 1.71 1.86 1.80 1.73 1.76 1.65 1.65 1.64 1.63 1.67 1.88 2.20 2.41 2.78 3.20 3.63 4.26 4.68 5.02 5.44 5.63 5.65 5.43 5.13 4.65 4.18 3.74 3.26 2.91
0.21 0.17 0.10 0.06 0.05 0.10 0.10 0.11 0.35 0.60 0.58 0.59 0.61 1.01 1.55 1.62 1.59 1.51 1.45 1.48 1.51 1.52 1.51 1.55 1.65 1.81 2.07 2.21 2.40 2.62 2.92 3.29 3.46 3.51 3.75 3.98 4.00 3.95 3.83 3.54 3.22 2.93 2.57 2.19
0.33 0.23 0.11 0.06 0.05 0.06 0.08 0.09 0.15 0.32 0.37 0.65 0.98 1.41 1.87 1.75 1.69 1.61 1.58 1.43 1.37 1.34 1.38 1.49 1.58 1.58 1.63 1.73 1.85 1.94 2.11 2.28 2.37 2.45 2.50 2.63 2.65 2.64 2.56 2.40 2.17 1.98 1.82 1.59
0.31 0.26 0.13 0.07 0.05 0.06 0.08 0.13 0.19 0.35 0.63 0.88 1.19 1.77 2.35 2.28 1.93 1.65 1.47 1.26 1.14 1.19 1.27 1.36 1.44 1.43 1.43 1.43 1.52 1.59 1.66 1.73 1.77 1.84 1.80 1.80 1.81 1.82 1.77 1.64 1.57 1.48 1.36 1.25
0.27 0.30 0.17 0.11 0.13 0.15 0.15 0.19 0.26 0.38 0.47 0.84 1.34 2.07 2.27 2.45 2.35 1.91 1.58 1.39 1.26 1.18 1.16 1.24 1.24 1.23 1.22 1.23 1.28 1.35 1.38 1.37 1.37 1.36 1.33 1.32 1.29 1.29 1.33 1.33 1.28 1.20 1.11 1.01
0.28 0.37 0.34 0.22 0.17 0.16 0.16 0.21 0.30 0.59 0.66 0.67 1.27 2.27 2.26 2.51 2.58 2.28 1.95 1.76 1.64 1.37 1.26 1.27 1.19 1.12 1.06 1.08 1.09 1.15 1.16 1.15 1.20 1.11 1.01 1.03 1.00 1.00 1.03 1.06 0.98 0.94 0.92 0.84
0.26 0.43 0.75 0.72 0.52 0.28 0.22 0.24 0.28 0.36 0.54 0.75 1.33 2.43 2.55 2.40 2.44 2.38 2.10 1.99 2.02 1.86 1.63 1.48 1.30 1.19 1.15 1.10 1.03 0.96 0.99 0.99 0.99 0.96 0.90 0.88 0.87 0.87 0.89 0.90 0.88 0.82 0.81 0.77
0.20 0.46 0.97 1.29 0.93 0.55 0.38 0.29 0.28 0.35 0.67 0.86 1.25 1.96 2.31 2.33 2.38 2.43 2.47 2.41 2.41 2.12 1.80 1.60 1.37 1.28 1.24 1.15 1.05 0.99 1.01 0.93 0.87 0.86 0.82 0.80 0.78 0.77 0.77 0.80 0.84 0.80 0.70 0.63
0.31 0.69 0.70 0.60 0.53 0.49 0.41 0.39 0.37 0.38 0.49 0.82 1.24 1.65 2.06 2.20 2.32 2.57 2.72 2.60 2.33 1.97 1.73 1.64 1.53 1.43 1.36 1.26 1.19 1.08 1.01 0.92 0.87 0.84 0.81 0.76 0.72 0.68 0.67 0.70 0.72 0.71 0.66 0.57
0.36 0.65 0.63 0.55 0.44 0.50 0.50 0.52 0.54 0.52 0.59 0.87 1.27 1.89 2.19 2.37 2.47 2.48 2.45 2.47 2.41 2.05 1.83 1.74 1.65 1.54 1.50 1.39 1.33 1.24 1.13 1.08 0.98 0.91 0.89 0.82 0.77 0.71 0.70 0.67 0.68 0.65 0.57 0.52
0.35 0.60 0.87 0.79 0.48 0.68 1.03 0.85 0.71 0.73 0.78 0.98 1.35 1.72 1.87 2.01 2.13 2.32 2.44 2.36 2.36 2.14 1.92 1.80 1.79 1.76 1.70 1.64 1.54 1.38 1.23 1.15 0.97 0.86 0.83 0.81 0.78 0.73 0.69 0.60 0.56 0.58 0.59 0.55
0.30 0.59 0.82 0.79 0.92 1.39 1.18 0.74 0.67 0.80 0.86 0.87 1.06 1.18 1.41 1.58 1.77 2.02 2.24 2.34 2.37 2.21 2.08 1.96 1.86 1.82 1.73 1.65 1.52 1.34 1.16 1.00 0.84 0.77 0.75 0.71 0.67 0.66 0.66 0.59 0.56 0.57 0.58 0.56
0.22 0.50 0.81 0.93 1.22 1.39 1.16 0.72 0.63 0.93 1.14 0.88 0.92 0.95 0.97 1.08 1.35 1.81 1.94 1.98 2.08 2.12 2.08 1.97 1.84 1.76 1.64 1.46 1.30 1.19 0.99 0.88 0.80 0.74 0.71 0.63 0.54 0.59 0.62 0.59 0.58 0.62 0.59 0.58
0.26 0.44 0.80 1.00 1.38 1.65 1.41 0.64 0.42 0.76 1.52 1.09 0.97 1.02 0.99 1.15 1.46 1.51 1.44 1.48 1.60 1.73 1.82 1.78 1.60 1.47 1.41 1.23 1.07 1.02 0.90 0.80 0.76 0.70 0.65 0.58 0.56 0.59 0.62 0.65 0.64 0.58 0.58 0.55
0.58 0.71 0.93 1.10 1.40 1.45 0.81 0.46 0.59 1.37 1.70 1.20 0.98 1.04 1.20 1.41 1.37 1.06 0.93 1.10 1.27 1.37 1.51 1.50 1.41 1.33 1.19 1.01 0.98 1.02 0.98 0.83 0.67 0.57 0.56 0.59 0.60 0.56 0.54 0.57 0.60 0.57 0.51 0.53
0.72 0.90 1.05 1.17 1.49 1.49 0.65 0.57 0.98 1.17 0.92 0.82 0.83 0.86 0.88 0.90 0.81 0.73 0.73 0.88 0.99 1.11 1.20 1.27 1.30 1.22 1.10 0.99 0.97 0.97 0.93 0.74 0.63 0.62 0.63 0.59 0.55 0.45 0.44 0.53 0.57 0.53 0.51 0.54
0.65 0.83 0.94 1.10 1.32 1.00 0.55 0.54 0.57 0.58 0.68 0.68 0.72 0.73 0.63 0.63 0.66 0.63 0.68 0.81 0.91 0.96 0.99 1.04 1.08 1.04 1.01 0.94 0.94 0.93 0.81 0.64 0.61 0.65 0.61 0.56 0.48 0.43 0.43 0.48 0.50 0.48 0.48 0.45
0.68 0.53 0.61 0.74 0.75 0.60 0.52 0.49 0.53 0.59 0.59 0.58 0.62 0.62 0.58 0.53 0.53 0.55 0.64 0.76 0.83 0.82 0.82 0.87 0.95 0.95 0.91 0.83 0.81 0.82 0.71 0.66 0.67 0.67 0.59 0.50 0.44 0.38 0.36 0.38 0.36 0.37 0.38 0.38
0.63 0.51 0.63 0.77 0.76 0.67 0.62 0.55 0.54 0.58 0.59 0.56 0.58 0.60 0.54 0.46 0.46 0.50 0.61 0.63 0.69 0.73 0.73 0.78 0.88 0.88 0.78 0.70 0.66 0.61 0.64 0.68 0.71 0.65 0.53 0.46 0.38 0.32 0.32 0.28 0.23 0.21 0.23 0.23
0.49 0.54 0.65 0.81 0.75 0.77 0.71 0.52 0.49 0.57 0.66 0.67 0.62 0.55 0.47 0.43 0.42 0.42 0.50 0.54 0.55 0.61 0.66 0.72 0.72 0.69 0.62 0.57 0.56 0.51 0.54 0.59 0.56 0.50 0.43 0.35 0.30 0.28 0.23 0.22 0.20 0.15 0.14 0.14

GEFSCGP_prec_meanprecacc_234.txt.gz
Total_Precipitation_Accumulation
0.03 0.04 0.07 0.10 0.11 0.14 0.15 0.18 0.22 0.25 0.25 0.30 0.37 0.51 0.75 0.91 1.09 1.07 1.11 1.22 1.35 1.64 1.83 2.16 2.51 2.82 3.34 3.35 3.21 3.30 3.46 3.66 3.76 4.03 4.12 4.35 4.69 4.91 5.06 5.09 4.96 4.93 4.83 4.95
0.05 0.06 0.06 0.09 0.10 0.12 0.18 0.27 0.30 0.27 0.25 0.33 0.48 0.63 0.81 0.96 1.03 1.00 1.10 1.29 1.43 1.84 2.19 2.34 2.53 2.94 3.42 3.56 3.55 3.57 3.76 4.07 4.29 4.52 4.97 5.27 5.53 5.77 5.97 5.99 5.56 5.36 5.25 5.15
0.06 0.07 0.05 0.08 0.08 0.09 0.13 0.19 0.24 0.26 0.25 0.34 0.54 0.82 0.97 1.06 1.18 1.32 1.52 1.73 1.85 2.06 2.41 2.48 2.57 2.93 3.26 3.43 3.50 3.62 3.87 4.30 4.84 5.22 5.68 6.11 6.26 6.29 6.16 5.91 5.78 5.64 5.47 5.31
0.05 0.03 0.04 0.07 0.09 0.10 0.11 0.14 0.20 0.21 0.25 0.37 0.48 0.91 1.24 1.32 1.45 1.71 1.92 1.94 2.03 2.20 2.38 2.49 2.65 2.90 3.19 3.41 3.52 3.84 4.34 4.93 5.48 5.96 6.49 6.99 7.10 6.93 6.64 6.18 5.76 5.52 5.27 4.94
0.06 0.05 0.07 0.08 0.10 0.12 0.12 0.10 0.17 0.19 0.20 0.33 0.46 0.81 1.56 1.68 1.77 2.00 2.21 2.01 1.98 1.98 2.03 2.27 2.45 2.65 3.03 3.22 3.43 3.77 4.34 5.02 5.71 6.54 7.23 7.67 7.58 7.25 6.81 6.13 5.55 5.09 4.70 4.33
0.06 0.05 0.06 0.07 0.08 0.11 0.10 0.11 0.15 0.18 0.23 0.39 0.39 0.72 1.47 1.88 2.06 2.16 2.09 1.91 1.87 1.79 1.78 1.90 2.02 2.25 2.56 2.85 3.15 3.56 4.18 4.88 5.52 6.16 6.70 6.94 6.85 6.65 6.12 5.44 4.82 4.42 4.09 3.74
0.10 0.09 0.08 0.06 0.06 0.09 0.10 0.15 0.37 0.50 0.54 0.57 0.44 0.74 1.41 1.74 1.87 1.80 1.74 1.78 1.67 1.68 1.66 1.66 1.71 1.91 2.24 2.44 2.81 3.25 3.69 4.32 4.73 5.06 5.48 5.67 5.70 5.48 5.19 4.71 4.24 3.80 3.31 2.97
0.21 0.17 0.10 0.06 0.05 0.10 0.11 0.13 0.40 0.65 0.62 0.64 0.63 1.06 1.59 1.63 1.59 1.51 1.46 1.50 1.53 1.54 1.53 1.58 1.68 1.84 2.10 2.24 2.42 2.64 2.95 3.33 3.50 3.55 3.78 4.03 4.05 4.00 3.88 3.59 3.27 2.98 2.63 2.25
0.34 0.23 0.11 0.06 0.05 0.07 0.09 0.12 0.18 0.36 0.42 0.71 1.02 1.45 1.89 1.76 1.69 1.61 1.58 1.43 1.38 1.36 1.39 1.51 1.60 1.61 1.65 1.75 1.87 1.97 2.14 2.31 2.40 2.48 2.54 2.68 2.70 2.69 2.61 2.45 2.22 2.02 1.87 1.64
0.31 0.26 0.13 0.07 0.05 0.07 0.09 0.15 0.23 0.40 0.69 0.95 1.25 1.82 2.38 2.29 1.94 1.66 1.47 1.26 1.16 1.20 1.28 1.37 1.46 1.46 1.46 1.46 1.56 1.63 1.70 1.78 1.81 1.88 1.85 1.84 1.85 1.86 1.81 1.68 1.61 1.53 1.42 1.32
0.28 0.31 0.17 0.12 0.14 0.15 0.16 0.21 0.30 0.43 0.52 0.90 1.40 2.13 2.30 2.47 2.35 1.93 1.60 1.41 1.29 1.20 1.18 1.25 1.25 1.25 1.24 1.26 1.32 1.41 1.43 1.41 1.41 1.40 1.38 1.36 1.32 1.32 1.36 1.38 1.33 1.26 1.18 1.08
0.28 0.38 0.35 0.22 0.17 0.16 0.17 0.21 0.32 0.62 0.68 0.69 1.31 2.31 2.27 2.52 2.59 2.30 1.98 1.79 1.67 1.39 1.27 1.27 1.20 1.14 1.09 1.09 1.13 1.20 1.21 1.20 1.24 1.16 1.06 1.07 1.05 1.04 1.09 1.12 1.04 1.00 0.98 0.92
0.27 0.45 0.77 0.73 0.53 0.29 0.22 0.24 0.29 0.38 0.57 0.77 1.36 2.46 2.56 2.42 2.45 2.39 2.12 2.00 2.05 1.88 1.64 1.50 1.31 1.22 1.17 1.12 1.05 0.99 1.02 1.02 1.03 1.00 0.94 0.92 0.91 0.93 0.94 0.96 0.92 0.86 0.86 0.84
0.20 0.46 0.99 1.31 0.95 0.57 0.40 0.30 0.29 0.37 0.69 0.88 1.27 1.98 2.32 2.34 2.40 2.44 2.47 2.42 2.43 2.14 1.82 1.62 1.39 1.30 1.26 1.16 1.07 1.00 1.02 0.95 0.89 0.88 0.84 0.83 0.81 0.80 0.81 0.85 0.90 0.85 0.75 0.70
0.32 0.70 0.71 0.61 0.53 0.49 0.41 0.39 0.38 0.39 0.50 0.84 1.26 1.67 2.08 2.21 2.34 2.58 2.72 2.61 2.34 1.98 1.74 1.66 1.55 1.45 1.38 1.28 1.21 1.09 1.02 0.93 0.88 0.85 0.82 0.79 0.74 0.71 0.70 0.73 0.76 0.76 0.71 0.62
0.37 0.66 0.64 0.56 0.45 0.50 0.50 0.52 0.55 0.53 0.59 0.88 1.28 1.90 2.20 2.38 2.49 2.49 2.46 2.48 2.42 2.07 1.85 1.76 1.67 1.57 1.52 1.41 1.35 1.25 1.14 1.09 0.99 0.92 0.90 0.84 0.79 0.73 0.72 0.69 0.71 0.69 0.62 0.58
0.36 0.61 0.89 0.80 0.49 0.68 1.04 0.86 0.72 0.76 0.79 0.99 1.36 1.73 1.88 2.02 2.14 2.34 2.46 2.38 2.37 2.15 1.93 1.82 1.81 1.79 1.72 1.66 1.55 1.40 1.24 1.16 0.97 0.86 0.83 0.82 0.78 0.74 0.70 0.63 0.59 0.60 0.63 0.60
0.31 0.61 0.84 0.81 0.93 1.41 1.19 0.75 0.67 0.81 0.87 0.88 1.06 1.19 1.41 1.59 1.78 2.03 2.25 2.36 2.38 2.23 2.10 1.98 1.89 1.84 1.76 1.67 1.54 1.35 1.16 1.00 0.84 0.77 0.75 0.71 0.67 0.67 0.68 0.62 0.59 0.60 0.61 0.58
0.22 0.52 0.83 0.95 1.24 1.41 1.16 0.72 0.64 0.93 1.15 0.88 0.92 0.95 0.97 1.08 1.36 1.83 1.95 2.00 2.10 2.13 2.09 1.99 1.86 1.78 1.66 1.47 1.31 1.20 1.00 0.88 0.80 0.74 0.72 0.64 0.56 0.61 0.65 0.62 0.61 0.64 0.61 0.60
0.26 0.45 0.82 1.02 1.40 1.67 1.42 0.64 0.42 0.76 1.54 1.10 0.98 1.02 0.99 1.16 1.48 1.53 1.45 1.49 1.62 1.74 1.84 1.79 1.62 1.49 1.42 1.24 1.08 1.03 0.91 0.81 0.78 0.71 0.67 0.60 0.58 0.61 0.64 0.67 0.65 0.59 0.59 0.57
0.60 0.72 0.94 1.12 1.41 1.47 0.81 0.47 0.60 1.40 1.74 1.21 1.00 1.06 1.21 1.42 1.39 1.07 0.93 1.11 1.27 1.38 1.52 1.51 1.42 1.34 1.20 1.02 0.99 1.03 0.99 0.85 0.69 0.59 0.58 0.60 0.61 0.57 0.55 0.58 0.61 0.58 0.52 0.54
0.76 0.93 1.07 1.19 1.52 1.52 0.66 0.58 0.99 1.19 0.93 0.83 0.84 0.88 0.90 0.91 0.81 0.74 0.74 0.89 1.00 1.11 1.20 1.27 1.31 1.23 1.11 1.00 0.99 1.00 0.96 0.76 0.65 0.64 0.64 0.61 0.57 0.46 0.44 0.54 0.58 0.54 0.53 0.55
0.68 0.86 0.97 1.14 1.36 1.03 0.57 0.55 0.58 0.59 0.69 0.68 0.73 0.74 0.65 0.65 0.67 0.64 0.69 0.82 0.92 0.97 1.00 1.04 1.08 1.06 1.03 0.96 0.95 0.96 0.84 0.66 0.63 0.68 0.64 0.59 0.50 0.44 0.43 0.49 0.51 0.49 0.49 0.46
0.70 0.54 0.63 0.77 0.78 0.63 0.55 0.51 0.54 0.59 0.59 0.59 0.63 0.63 0.59 0.54 0.55 0.57 0.66 0.78 0.84 0.83 0.83 0.88 0.97 0.97 0.94 0.85 0.82 0.83 0.72 0.68 0.71 0.70 0.61 0.53 0.47 0.40 0.37 0.38 0.36 0.37 0.38 0.38
0.65 0.53 0.66 0.81 0.79 0.72 0.66 0.58 0.56 0.59 0.60 0.58 0.59 0.62 0.56 0.47 0.48 0.52 0.62 0.66 0.70 0.74 0.75 0.79 0.90 0.90 0.79 0.71 0.67 0.63 0.65 0.71 0.74 0.67 0.55 0.48 0.40 0.34 0.33 0.29 0.23 0.22 0.23 0.23
0.50 0.56 0.69 0.87 0.79 0.81 0.75 0.56 0.51 0.58 0.67 0.67 0.64 0.59 0.51 0.46 0.44 0.44 0.53 0.56 0.57 0.62 0.67 0.73 0.73 0.70 0.63 0.58 0.57 0.51 0.55 0.61 0.59 0.53 0.46 0.38 0.32 0.30 0.25 0.23 0.21 0.15 0.14 0.15

GEFSCGP_prec_meanprecacc_240.txt.gz
Total_Precipitation_Accumulation
0.03 0.05 0.08 0.12 0.14 0.16 0.17 0.21 0.24 0.27 0.27 0.33 0.41 0.56 0.80 0.94 1.13 1.12 1.15 1.28 1.41 1.69 1.89 2.21 2.56 2.87 3.38 3.39 3.24 3.32 3.49 3.69 3.79 4.07 4.16 4.38 4.72 4.93 5.08 5.12 5.00 4.97 4.86 4.97
0.06 0.08 0.08 0.11 0.12 0.13 0.20 0.30 0.34 0.31 0.27 0.36 0.52 0.68 0.87 1.00 1.10 1.06 1.14 1.32 1.47 1.88 2.24 2.40 2.59 3.00 3.48 3.62 3.60 3.60 3.79 4.11 4.32 4.56 5.02 5.31 5.56 5.79 5.99 6.02 5.58 5.38 5.27 5.17
0.07 0.08 0.06 0.09 0.10 0.11 0.14 0.22 0.27 0.29 0.28 0.37 0.58 0.87 1.02 1.12 1.25 1.42 1.61 1.77 1.90 2.12 2.47 2.53 2.60 2.95 3.29 3.47 3.56 3.66 3.91 4.33 4.87 5.26 5.74 6.15 6.30 6.32 6.19 5.93 5.80 5.65 5.48 5.32
0.06 0.04 0.04 0.08 0.10 0.12 0.15 0.16 0.24 0.25 0.31 0.42 0.54 0.98 1.32 1.41 1.53 1.81 2.01 1.98 2.08 2.25 2.44 2.53 2.67 2.92 3.21 3.42 3.54 3.86 4.36 4.96 5.51 6.00 6.56 7.05 7.13 6.95 6.65 6.20 5.77 5.54 5.28 4.96
0.07 0.06 0.08 0.08 0.11 0.14 0.14 0.12 0.20 0.24 0.28 0.38 0.53 0.91 1.70 1.83 1.86 2.09 2.27 2.04 2.03 2.03 2.10 2.34 2.50 2.68 3.06 3.25 3.46 3.80 4.37 5.05 5.74 6.56 7.25 7.69 7.60 7.26 6.83 6.14 5.56 5.10 4.71 4.36
0.08 0.07 0.07 0.07 0.09 0.11 0.11 0.12 0.17 0.22 0.29 0.45 0.46 0.79 1.56 1.98 2.12 2.21 2.12 1.94 1.90 1.83 1.83 1.96 2.10 2.33 2.63 2.93 3.21 3.62 4.23 4.91 5.55 6.19 6.72 6.96 6.87 6.67 6.14 5.45 4.83 4.43 4.10 3.76
0.10 0.09 0.09 0.07 0.07 0.10 0.11 0.16 0.39 0.54 0.61 0.62 0.49 0.80 1.49 1.79 1.92 1.84 1.78 1.81 1.70 1.75 1.71 1.71 1.79 1.99 2.30 2.48 2.85 3.29 3.73 4.36 4.76 5.09 5.52 5.70 5.73 5.51 5.20 4.72 4.25 3.81 3.32 2.98
0.22 0.18 0.11 0.07 0.06 0.11 0.12 0.14 0.44 0.71 0.70 0.70 0.68 1.12 1.64 1.68 1.63 1.54 1.48 1.52 1.56 1.59 1.61 1.61 1.73 1.90 2.16 2.27 2.45 2.68 3.00 3.37 3.54 3.58 3.82 4.08 4.09 4.04 3.91 3.61 3.29 2.99 2.64 2.26
0.34 0.24 0.12 0.07 0.06 0.08 0.11 0.13 0.20 0.40 0.49 0.81 1.10 1.52 1.94 1.79 1.72 1.64 1.60 1.45 1.40 1.38 1.42 1.53 1.62 1.65 1.70 1.78 1.89 1.99 2.18 2.35 2.44 2.52 2.59 2.73 2.75 2.73 2.66 2.48 2.23 2.04 1.89 1.65
0.32 0.27 0.14 0.08 0.07 0.08 0.10 0.16 0.24 0.43 0.79 1.05 1.34 1.89 2.44 2.33 1.97 1.68 1.49 1.29 1.19 1.23 1.30 1.39 1.47 1.48 1.49 1.49 1.58 1.65 1.73 1.80 1.85 1.92 1.89 1.87 1.89 1.89 1.86 1.71 1.64 1.55 1.43 1.33
0.29 0.31 0.18 0.13 0.15 0.16 0.17 0.22 0.32 0.47 0.59 0.97 1.48 2.20 2.34 2.53 2.41 1.95 1.61 1.44 1.31 1.23 1.20 1.27 1.27 1.26 1.27 1.29 1.35 1.43 1.45 1.44 1.44 1.44 1.42 1.40 1.36 1.35 1.39 1.40 1.35 1.28 1.20 1.10
0.29 0.39 0.36 0.23 0.18 0.17 0.18 0.23 0.34 0.65 0.73 0.73 1.36 2.37 2.30 2.56 2.62 2.32 2.00 1.82 1.69 1.40 1.29 1.29 1.22 1.16 1.11 1.12 1.16 1.23 1.24 1.23 1.27 1.19 1.09 1.11 1.08 1.07 1.11 1.14 1.06 1.01 1.00 0.93
0.28 0.47 0.78 0.75 0.55 0.31 0.24 0.26 0.30 0.40 0.60 0.80 1.40 2.50 2.59 2.44 2.47 2.41 2.13 2.02 2.07 1.90 1.66 1.52 1.33 1.24 1.19 1.14 1.08 1.01 1.04 1.04 1.05 1.03 0.98 0.97 0.95 0.96 0.97 0.98 0.94 0.88 0.87 0.86
0.22 0.48 1.00 1.33 0.97 0.58 0.41 0.31 0.30 0.39 0.72 0.91 1.30 2.00 2.34 2.37 2.43 2.47 2.50 2.46 2.47 2.17 1.84 1.64 1.41 1.33 1.30 1.20 1.10 1.03 1.03 0.96 0.90 0.90 0.87 0.88 0.87 0.86 0.86 0.89 0.93 0.88 0.78 0.72
0.34 0.72 0.72 0.61 0.54 0.50 0.42 0.39 0.38 0.40 0.51 0.85 1.27 1.67 2.09 2.24 2.37 2.61 2.75 2.64 2.39 2.02 1.76 1.68 1.57 1.48 1.42 1.31 1.23 1.12 1.03 0.94 0.89 0.86 0.84 0.81 0.77 0.75 0.74 0.76 0.79 0.78 0.73 0.63
0.38 0.68 0.66 0.56 0.45 0.51 0.51 0.53 0.55 0.53 0.60 0.88 1.29 1.90 2.22 2.41 2.52 2.53 2.49 2.51 2.47 2.12 1.87 1.79 1.70 1.60 1.55 1.43 1.37 1.28 1.16 1.10 1.00 0.93 0.91 0.85 0.80 0.74 0.73 0.70 0.72 0.70 0.63 0.59
0.38 0.62 0.90 0.81 0.50 0.69 1.05 0.86 0.73 0.76 0.80 1.00 1.37 1.74 1.89 2.04 2.17 2.37 2.49 2.42 2.41 2.19 1.96 1.84 1.84 1.82 1.75 1.69 1.58 1.42 1.27 1.18 0.99 0.88 0.85 0.83 0.79 0.74 0.70 0.63 0.60 0.61 0.64 0.61
0.33 0.63 0.86 0.83 0.95 1.42 1.20 0.75 0.68 0.81 0.87 0.88 1.07 1.20 1.43 1.61 1.80 2.05 2.27 2.38 2.41 2.27 2.13 2.01 1.91 1.86 1.78 1.69 1.56 1.37 1.19 1.02 0.86 0.78 0.76 0.72 0.68 0.68 0.69 0.63 0.60 0.61 0.62 0.59
0.23 0.54 0.87 0.98 1.26 1.42 1.18 0.73 0.65 0.94 1.15 0.89 0.93 0.96 0.98 1.10 1.38 1.84 1.96 2.02 2.11 2.15 2.12 2.02 1.88 1.81 1.70 1.51 1.33 1.22 1.02 0.89 0.81 0.75 0.73 0.65 0.57 0.62 0.65 0.63 0.62 0.65 0.62 0.61
0.28 0.48 0.85 1.05 1.43 1.70 1.45 0.66 0.44 0.78 1.56 1.11 0.99 1.03 1.01 1.18 1.49 1.54 1.46 1.50 1.63 1.76 1.86 1.81 1.65 1.53 1.47 1.28 1.10 1.04 0.93 0.83 0.79 0.72 0.69 0.61 0.59 0.62 0.66 0.68 0.66 0.60 0.60 0.57
0.62 0.75 0.98 1.15 1.45 1.51 0.83 0.48 0.62 1.42 1.75 1.22 1.01 1.07 1.23 1.44 1.41 1.09 0.95 1.12 1.29 1.40 1.54 1.54 1.45 1.38 1.24 1.05 1.01 1.05 1.00 0.87 0.70 0.60 0.59 0.61 0.63 0.59 0.57 0.59 0.61 0.59 0.53 0.54
0.78 0.97 1.12 1.23 1.57 1.57 0.68 0.59 1.02 1.21 0.95 0.85 0.86 0.89 0.92 0.94 0.85 0.77 0.76 0.90 1.01 1.13 1.22 1.30 1.34 1.26 1.14 1.03 1.01 1.01 0.97 0.78 0.67 0.65 0.65 0.62 0.58 0.47 0.45 0.54 0.58 0.54 0.53 0.56
0.70 0.89 1.01 1.18 1.41 1.07 0.59 0.56 0.60 0.60 0.70 0.70 0.75 0.75 0.66 0.66 0.70 0.68 0.72 0.86 0.96 0.99 1.01 1.07 1.11 1.08 1.05 0.98 0.98 0.97 0.85 0.68 0.65 0.69 0.64 0.59 0.51 0.45 0.44 0.49 0.52 0.50 0.49 0.46
0.73 0.57 0.65 0.80 0.81 0.66 0.57 0.52 0.55 0.62 0.62 0.62 0.66 0.65 0.61 0.56 0.57 0.60 0.69 0.82 0.90 0.87 0.86 0.91 0.98 0.99 0.95 0.87 0.84 0.85 0.74 0.71 0.73 0.72 0.62 0.54 0.48 0.42 0.38 0.39 0.37 0.38 0.39 0.39
0.68 0.55 0.69 0.83 0.83 0.75 0.69 0.61 0.58 0.63 0.66 0.62 0.64 0.65 0.58 0.50 0.52 0.56 0.66 0.69 0.75 0.79 0.79 0.83 0.92 0.92 0.81 0.73 0.69 0.65 0.68 0.73 0.76 0.69 0.56 0.49 0.41 0.35 0.34 0.29 0.24 0.22 0.24 0.24
0.54 0.59 0.71 0.89 0.83 0.86 0.78 0.60 0.56 0.71 0.82 0.74 0.68 0.64 0.55 0.49 0.48 0.49 0.56 0.59 0.60 0.65 0.70 0.76 0.76 0.72 0.65 0.59 0.58 0.53 0.56 0.63 0.61 0.55 0.48 0.39 0.33 0.32 0.26 0.24 0.21 0.16 0.15 0.16

GEFSCGP_prec_meanprecacc_246.txt.gz
Total_Precipitation_Accumulation
0.03 0.05 0.08 0.12 0.14 0.16 0.19 0.24 0.26 0.28 0.28 0.33 0.42 0.57 0.81 0.96 1.15 1.14 1.18 1.32 1.46 1.76 1.96 2.29 2.63 2.93 3.42 3.42 3.29 3.38 3.54 3.74 3.85 4.10 4.19 4.42 4.77 5.01 5.14 5.15 5.02 4.99 4.88 5.00
0.06 0.08 0.08 0.12 0.12 0.14 0.20 0.32 0.35 0.32 0.29 0.37 0.52 0.69 0.88 1.02 1.12 1.08 1.17 1.36 1.49 1.92 2.30 2.46 2.66 3.07 3.52 3.66 3.64 3.66 3.85 4.16 4.38 4.60 5.05 5.34 5.61 5.86 6.04 6.05 5.61 5.40 5.29 5.19
0.07 0.08 0.06 0.09 0.10 0.12 0.15 0.23 0.28 0.30 0.29 0.39 0.59 0.88 1.03 1.13 1.27 1.44 1.63 1.80 1.91 2.14 2.50 2.57 2.65 3.00 3.33 3.51 3.60 3.71 3.96 4.41 4.93 5.31 5.77 6.18 6.33 6.36 6.22 5.95 5.82 5.67 5.50 5.34
0.06 0.05 0.05 0.08 0.11 0.13 0.15 0.17 0.25 0.25 0.31 0.43 0.56 1.00 1.33 1.42 1.55 1.83 2.02 2.00 2.10 2.26 2.45 2.54 2.69 2.94 3.23 3.46 3.59 3.91 4.42 5.03 5.58 6.05 6.60 7.07 7.14 6.97 6.67 6.21 5.78 5.55 5.29 4.97
0.07 0.07 0.08 0.09 0.11 0.14 0.15 0.13 0.21 0.24 0.28 0.38 0.54 0.93 1.72 1.84 1.88 2.10 2.28 2.06 2.05 2.05 2.11 2.36 2.52 2.70 3.09 3.29 3.51 3.86 4.43 5.12 5.81 6.61 7.29 7.72 7.61 7.27 6.85 6.16 5.58 5.11 4.72 4.37
0.08 0.07 0.07 0.08 0.09 0.12 0.12 0.13 0.18 0.23 0.30 0.46 0.47 0.80 1.57 1.99 2.13 2.22 2.14 1.96 1.92 1.84 1.85 1.99 2.13 2.38 2.68 2.98 3.25 3.66 4.29 4.99 5.62 6.24 6.76 6.99 6.89 6.69 6.17 5.48 4.85 4.45 4.12 3.77
0.11 0.10 0.09 0.07 0.07 0.11 0.12 0.17 0.40 0.56 0.62 0.63 0.50 0.81 1.49 1.80 1.93 1.85 1.79 1.83 1.71 1.77 1.74 1.75 1.84 2.04 2.37 2.54 2.88 3.32 3.77 4.41 4.81 5.13 5.55 5.73 5.76 5.54 5.22 4.74 4.27 3.83 3.34 2.99
0.23 0.18 0.11 0.08 0.07 0.11 0.12 0.15 0.44 0.72 0.71 0.71 0.69 1.13 1.65 1.68 1.63 1.55 1.49 1.53 1.57 1.62 1.64 1.65 1.77 1.95 2.21 2.31 2.49 2.71 3.03 3.41 3.57 3.60 3.85 4.11 4.14 4.08 3.94 3.64 3.30 3.01 2.65 2.28
0.35 0.25 0.13 0.08 0.07 0.09 0.11 0.14 0.21 0.41 0.49 0.82 1.10 1.52 1.95 1.80 1.72 1.64 1.61 1.46 1.41 1.40 1.45 1.57 1.67 1.69 1.75 1.83 1.93 2.03 2.21 2.38 2.47 2.55 2.62 2.77 2.79 2.78 2.69 2.50 2.25 2.06 1.90 1.67
0.33 0.27 0.14 0.08 0.07 0.09 0.11 0.17 0.26 0.44 0.79 1.06 1.34 1.90 2.45 2.34 1.98 1.69 1.50 1.31 1.21 1.25 1.33 1.42 1.51 1.52 1.54 1.54 1.63 1.69 1.76 1.84 1.88 1.95 1.92 1.90 1.93 1.94 1.91 1.75 1.66 1.57 1.45 1.35
0.29 0.32 0.19 0.13 0.16 0.17 0.18 0.23 0.33 0.48 0.60 0.98 1.48 2.21 2.35 2.54 2.42 1.95 1.62 1.45 1.34 1.26 1.23 1.30 1.30 1.30 1.31 1.32 1.39 1.47 1.48 1.47 1.48 1.47 1.45 1.43 1.39 1.39 1.45 1.44 1.38 1.30 1.22 1.11
0.30 0.40 0.37 0.25 0.19 0.18 0.19 0.25 0.36 0.67 0.74 0.74 1.36 2.39 2.32 2.56 2.63 2.32 2.01 1.83 1.71 1.42 1.31 1.31 1.24 1.19 1.13 1.14 1.19 1.26 1.26 1.25 1.30 1.22 1.12 1.13 1.12 1.12 1.17 1.19 1.09 1.03 1.02 0.95
0.30 0.48 0.80 0.77 0.57 0.33 0.26 0.27 0.32 0.42 0.61 0.81 1.41 2.52 2.60 2.45 2.48 2.42 2.14 2.03 2.08 1.91 1.67 1.54 1.35 1.26 1.21 1.16 1.10 1.04 1.06 1.07 1.08 1.05 1.01 1.00 1.00 1.01 1.02 1.03 0.99 0.91 0.89 0.87
0.24 0.50 1.02 1.34 0.98 0.59 0.42 0.32 0.32 0.40 0.73 0.92 1.30 2.00 2.35 2.38 2.43 2.48 2.51 2.48 2.48 2.19 1.87 1.66 1.43 1.34 1.31 1.21 1.11 1.05 1.06 0.98 0.92 0.92 0.90 0.91 0.92 0.94 0.93 0.96 1.00 0.94 0.83 0.76
0.35 0.73 0.73 0.63 0.55 0.50 0.42 0.40 0.39 0.40 0.52 0.86 1.27 1.68 2.09 2.24 2.38 2.63 2.77 2.66 2.41 2.04 1.79 1.70 1.58 1.49 1.43 1.32 1.25 1.13 1.05 0.96 0.91 0.87 0.86 0.83 0.80 0.78 0.79 0.84 0.87 0.86 0.80 0.69
0.40 0.69 0.67 0.59 0.47 0.52 0.51 0.53 0.56 0.54 0.60 0.88 1.29 1.91 2.22 2.42 2.54 2.55 2.51 2.53 2.49 2.15 1.90 1.81 1.72 1.62 1.57 1.45 1.39 1.30 1.18 1.12 1.01 0.94 0.93 0.87 0.82 0.76 0.75 0.75 0.78 0.77 0.70 0.64
0.40 0.65 0.92 0.84 0.53 0.72 1.06 0.87 0.73 0.76 0.80 1.00 1.38 1.75 1.90 2.05 2.18 2.38 2.51 2.43 2.43 2.21 1.98 1.86 1.85 1.83 1.76 1.70 1.59 1.45 1.29 1.20 1.01 0.89 0.86 0.85 0.82 0.76 0.72 0.66 0.63 0.66 0.70 0.67
0.34 0.65 0.87 0.85 0.97 1.45 1.22 0.77 0.69 0.82 0.88 0.89 1.08 1.20 1.44 1.62 1.82 2.07 2.29 2.40 2.43 2.28 2.15 2.02 1.92 1.88 1.80 1.71 1.58 1.40 1.21 1.04 0.88 0.81 0.79 0.74 0.70 0.70 0.71 0.64 0.61 0.63 0.66 0.64
0.24 0.55 0.88 0.99 1.27 1.43 1.18 0.74 0.66 0.95 1.16 0.90 0.94 0.97 1.00 1.11 1.39 1.85 1.97 2.03 2.13 2.16 2.14 2.03 1.90 1.83 1.73 1.54 1.36 1.25 1.04 0.92 0.85 0.78 0.76 0.68 0.60 0.65 0.66 0.64 0.63 0.66 0.63 0.62
0.29 0.49 0.86 1.06 1.44 1.71 1.46 0.67 0.45 0.79 1.57 1.12 1.00 1.05 1.03 1.20 1.52 1.56 1.47 1.51 1.64 1.77 1.87 1.83 1.67 1.55 1.50 1.32 1.14 1.07 0.95 0.85 0.82 0.75 0.72 0.65 0.63 0.64 0.67 0.69 0.67 0.61 0.60 0.58
0.63 0.76 0.99 1.17 1.47 1.53 0.84 0.49 0.64 1.44 1.77 1.24 1.02 1.09 1.25 1.47 1.43 1.10 0.96 1.13 1.30 1.41 1.55 1.55 1.47 1.40 1.26 1.09 1.05 1.08 1.03 0.89 0.72 0.63 0.62 0.64 0.66 0.61 0.58 0.60 0.62 0.60 0.54 0.55
0.80 0.99 1.13 1.24 1.59 1.59 0.69 0.61 1.06 1.26 0.98 0.87 0.87 0.91 0.94 0.95 0.86 0.78 0.78 0.92 1.03 1.15 1.24 1.33 1.38 1.30 1.18 1.07 1.05 1.05 1.01 0.81 0.69 0.67 0.68 0.65 0.60 0.49 0.47 0.56 0.59 0.55 0.53 0.56
0.73 0.92 1.03 1.20 1.43 1.09 0.62 0.60 0.63 0.63 0.73 0.72 0.77 0.78 0.69 0.69 0.72 0.69 0.74 0.88 0.99 1.02 1.04 1.10 1.18 1.16 1.11 1.03 1.03 1.02 0.90 0.72 0.67 0.72 0.67 0.61 0.53 0.47 0.45 0.50 0.52 0.50 0.49 0.46
0.74 0.59 0.68 0.82 0.82 0.67 0.59 0.55 0.58 0.64 0.65 0.65 0.70 0.69 0.64 0.59 0.60 0.62 0.70 0.83 0.92 0.90 0.89 0.94 1.03 1.04 1.00 0.92 0.90 0.90 0.80 0.75 0.76 0.74 0.65 0.56 0.49 0.43 0.39 0.40 0.38 0.38 0.39 0.39
0.69 0.58 0.71 0.86 0.85 0.77 0.71 0.63 0.61 0.67 0.69 0.65 0.67 0.68 0.61 0.53 0.54 0.58 0.68 0.71 0.77 0.81 0.83 0.86 0.96 0.95 0.84 0.76 0.72 0.69 0.73 0.77 0.80 0.72 0.59 0.50 0.43 0.36 0.35 0.30 0.24 0.23 0.24 0.24
0.56 0.62 0.75 0.92 0.85 0.88 0.80 0.62 0.59 0.74 0.86 0.79 0.73 0.68 0.58 0.52 0.51 0.51 0.59 0.62 0.64 0.69 0.74 0.80 0.80 0.76 0.68 0.62 0.61 0.57 0.61 0.66 0.64 0.59 0.51 0.42 0.35 0.33 0.27 0.25 0.22 0.16 0.15 0.16

GEFSCGP_prec_meanprecacc_252.txt.gz
Total_Precipitation_Accumulation
0.03 0.05 0.08 0.12 0.14 0.16 0.19 0.24 0.26 0.28 0.28 0.34 0.42 0.57 0.81 0.96 1.15 1.15 1.19 1.33 1.47 1.77 1.96 2.30 2.66 2.95 3.44 3.44 3.32 3.40 3.56 3.77 3.88 4.15 4.24 4.47 4.81 5.05 5.17 5.17 5.04 5.02 4.91 5.03
0.06 0.08 0.08 0.12 0.12 0.14 0.20 0.32 0.35 0.32 0.29 0.37 0.53 0.69 0.88 1.02 1.12 1.08 1.18 1.36 1.50 1.93 2.30 2.46 2.67 3.08 3.53 3.67 3.66 3.68 3.86 4.18 4.40 4.66 5.12 5.40 5.65 5.91 6.08 6.07 5.63 5.43 5.31 5.21
0.07 0.08 0.06 0.09 0.10 0.12 0.15 0.23 0.28 0.30 0.29 0.39 0.60 0.88 1.03 1.13 1.27 1.44 1.64 1.80 1.91 2.15 2.51 2.57 2.65 3.01 3.34 3.52 3.61 3.73 3.98 4.43 4.97 5.40 5.88 6.25 6.37 6.40 6.26 5.98 5.84 5.69 5.52 5.36
0.06 0.05 0.05 0.08 0.11 0.13 0.16 0.17 0.25 0.25 0.32 0.43 0.56 1.01 1.34 1.43 1.55 1.83 2.02 2.01 2.11 2.27 2.46 2.55 2.69 2.95 3.24 3.46 3.60 3.93 4.45 5.10 5.65 6.11 6.68 7.16 7.22 7.00 6.69 6.23 5.81 5.57 5.31 4.99
0.07 0.07 0.08 0.09 0.11 0.14 0.15 0.13 0.21 0.24 0.28 0.39 0.55 0.94 1.73 1.84 1.88 2.10 2.29 2.07 2.05 2.05 2.12 2.36 2.52 2.71 3.10 3.31 3.53 3.90 4.49 5.20 5.89 6.68 7.36 7.79 7.67 7.30 6.86 6.17 5.60 5.14 4.75 4.40
0.08 0.07 0.07 0.08 0.09 0.12 0.12 0.13 0.18 0.24 0.30 0.47 0.47 0.81 1.57 2.00 2.14 2.23 2.14 1.97 1.93 1.84 1.85 1.99 2.14 2.39 2.71 3.02 3.30 3.72 4.37 5.10 5.72 6.32 6.82 7.04 6.92 6.71 6.18 5.49 4.87 4.46 4.14 3.80
0.11 0.10 0.09 0.07 0.07 0.11 0.12 0.17 0.41 0.57 0.63 0.64 0.50 0.81 1.50 1.81 1.93 1.85 1.79 1.84 1.72 1.77 1.74 1.75 1.85 2.06 2.41 2.60 2.98 3.44 3.88 4.51 4.90 5.20 5.59 5.76 5.78 5.55 5.24 4.76 4.29 3.85 3.35 3.01
0.24 0.19 0.12 0.08 0.07 0.12 0.13 0.16 0.46 0.73 0.72 0.72 0.70 1.13 1.66 1.69 1.64 1.55 1.50 1.54 1.58 1.62 1.64 1.65 1.79 1.97 2.25 2.39 2.59 2.80 3.09 3.45 3.61 3.64 3.87 4.13 4.16 4.09 3.95 3.65 3.32 3.03 2.67 2.30
0.35 0.25 0.13 0.08 0.07 0.09 0.12 0.14 0.21 0.43 0.51 0.84 1.11 1.53 1.95 1.80 1.73 1.65 1.61 1.47 1.42 1.41 1.46 1.58 1.69 1.72 1.79 1.88 1.98 2.07 2.25 2.41 2.49 2.57 2.64 2.78 2.80 2.79 2.71 2.51 2.26 2.07 1.93 1.70
0.33 0.28 0.14 0.08 0.07 0.09 0.11 0.17 0.26 0.46 0.82 1.08 1.35 1.92 2.47 2.35 1.99 1.70 1.51 1.31 1.22 1.26 1.34 1.44 1.53 1.55 1.57 1.58 1.67 1.74 1.81 1.87 1.90 1.97 1.95 1.92 1.94 1.95 1.92 1.76 1.68 1.58 1.46 1.37
0.29 0.33 0.20 0.13 0.16 0.18 0.19 0.24 0.34 0.50 0.62 1.00 1.51 2.25 2.38 2.55 2.43 1.96 1.62 1.46 1.35 1.28 1.25 1.32 1.33 1.33 1.34 1.36 1.43 1.50 1.50 1.49 1.50 1.50 1.48 1.45 1.41 1.42 1.48 1.47 1.39 1.32 1.24 1.14
0.30 0.41 0.38 0.25 0.19 0.18 0.20 0.26 0.37 0.71 0.77 0.77 1.40 2.43 2.34 2.58 2.64 2.33 2.01 1.83 1.72 1.43 1.32 1.32 1.26 1.21 1.15 1.17 1.21 1.27 1.28 1.27 1.31 1.24 1.15 1.17 1.15 1.16 1.20 1.22 1.11 1.06 1.05 0.98
0.30 0.49 0.81 0.79 0.58 0.34 0.26 0.28 0.33 0.44 0.65 0.84 1.45 2.57 2.63 2.46 2.49 2.43 2.15 2.04 2.09 1.91 1.68 1.55 1.36 1.27 1.21 1.17 1.12 1.06 1.08 1.08 1.10 1.07 1.03 1.02 1.03 1.04 1.05 1.05 1.02 0.96 0.94 0.91
0.25 0.50 1.03 1.35 0.99 0.60 0.43 0.33 0.33 0.42 0.76 0.95 1.33 2.03 2.37 2.39 2.45 2.49 2.53 2.49 2.49 2.20 1.88 1.68 1.44 1.35 1.32 1.22 1.13 1.06 1.08 1.01 0.95 0.95 0.93 0.94 0.95 0.97 0.97 1.00 1.05 1.01 0.90 0.82
0.37 0.75 0.75 0.64 0.56 0.51 0.43 0.41 0.40 0.41 0.53 0.88 1.28 1.69 2.11 2.25 2.39 2.64 2.78 2.67 2.42 2.05 1.81 1.72 1.60 1.51 1.44 1.33 1.26 1.14 1.07 0.97 0.93 0.89 0.88 0.86 0.82 0.81 0.82 0.89 0.93 0.94 0.88 0.77
0.42 0.72 0.70 0.61 0.48 0.53 0.52 0.54 0.57 0.54 0.61 0.89 1.30 1.92 2.23 2.43 2.55 2.56 2.52 2.53 2.50 2.16 1.92 1.83 1.73 1.63 1.58 1.46 1.40 1.31 1.20 1.13 1.03 0.96 0.95 0.90 0.85 0.79 0.79 0.78 0.81 0.80 0.74 0.69
0.42 0.68 0.96 0.89 0.56 0.74 1.07 0.88 0.74 0.77 0.80 1.00 1.38 1.75 1.91 2.06 2.19 2.40 2.52 2.45 2.44 2.23 2.00 1.88 1.87 1.85 1.78 1.72 1.61 1.46 1.30 1.21 1.02 0.91 0.88 0.87 0.83 0.78 0.74 0.69 0.67 0.69 0.73 0.69
0.36 0.67 0.89 0.89 1.02 1.49 1.24 0.78 0.70 0.83 0.89 0.90 1.08 1.21 1.44 1.63 1.83 2.08 2.30 2.41 2.44 2.30 2.17 2.05 1.94 1.89 1.81 1.72 1.60 1.41 1.22 1.06 0.89 0.82 0.80 0.76 0.71 0.71 0.72 0.67 0.65 0.66 0.69 0.67
0.26 0.57 0.90 1.01 1.31 1.46 1.21 0.76 0.68 0.97 1.17 0.90 0.94 0.97 1.00 1.12 1.40 1.87 1.99 2.04 2.14 2.17 2.15 2.04 1.91 1.84 1.74 1.54 1.37 1.26 1.06 0.94 0.87 0.79 0.77 0.69 0.62 0.66 0.68 0.66 0.65 0.68 0.65 0.64
0.30 0.51 0.88 1.08 1.46 1.73 1.48 0.68 0.46 0.80 1.58 1.12 1.00 1.05 1.03 1.21 1.53 1.57 1.48 1.53 1.66 1.78 1.87 1.83 1.67 1.55 1.51 1.33 1.15 1.09 0.97 0.87 0.83 0.77 0.73 0.66 0.64 0.66 0.69 0.71 0.69 0.63 0.63 0.60
0.65 0.78 1.01 1.18 1.49 1.54 0.84 0.51 0.65 1.45 1.79 1.25 1.03 1.10 1.26 1.48 1.45 1.12 0.97 1.15 1.32 1.42 1.56 1.56 1.47 1.41 1.27 1.10 1.06 1.10 1.05 0.92 0.75 0.65 0.64 0.66 0.67 0.63 0.60 0.62 0.64 0.61 0.56 0.57
0.82 1.01 1.15 1.26 1.61 1.61 0.70 0.62 1.09 1.29 1.00 0.90 0.91 0.94 0.97 0.98 0.88 0.80 0.80 0.94 1.04 1.15 1.25 1.33 1.39 1.31 1.19 1.08 1.07 1.08 1.04 0.85 0.73 0.70 0.70 0.66 0.62 0.51 0.48 0.57 0.61 0.56 0.55 0.59
0.75 0.93 1.05 1.22 1.45 1.11 0.63 0.61 0.66 0.66 0.76 0.78 0.83 0.82 0.72 0.72 0.74 0.71 0.76 0.90 1.00 1.03 1.05 1.11 1.18 1.17 1.11 1.04 1.04 1.04 0.92 0.74 0.70 0.74 0.69 0.63 0.55 0.48 0.47 0.52 0.54 0.52 0.52 0.49
0.75 0.61 0.69 0.84 0.84 0.68 0.60 0.56 0.60 0.66 0.67 0.68 0.74 0.73 0.67 0.61 0.62 0.64 0.72 0.85 0.93 0.91 0.90 0.95 1.03 1.04 1.00 0.92 0.90 0.91 0.81 0.77 0.79 0.77 0.68 0.59 0.52 0.46 0.42 0.42 0.40 0.40 0.41 0.41
0.71 0.61 0.73 0.87 0.86 0.78 0.72 0.64 0.63 0.68 0.71 0.67 0.70 0.72 0.64 0.56 0.58 0.61 0.71 0.74 0.79 0.83 0.84 0.87 0.96 0.96 0.85 0.77 0.73 0.70 0.74 0.80 0.83 0.76 0.63 0.55 0.47 0.40 0.38 0.32 0.26 0.24 0.26 0.26
0.57 0.64 0.76 0.93 0.86 0.89 0.82 0.62 0.59 0.75 0.87 0.81 0.77 0.71 0.62 0.56 0.57 0.57 0.63 0.65 0.66 0.71 0.75 0.81 0.81 0.77 0.69 0.63 0.62 0.58 0.63 0.69 0.68 0.63 0.56 0.48 0.42 0.38 0.30 0.28 0.24 0.17 0.16 0.17

GEFSCGP_prec_meanprecacc_258.txt.gz
Total_Precipitation_Accumulation
0.03 0.05 0.08 0.13 0.14 0.16 0.19 0.25 0.26 0.28 0.28 0.35 0.43 0.58 0.81 0.96 1.16 1.17 1.21 1.35 1.49 1.77 1.96 2.30 2.67 2.98 3.45 3.46 3.34 3.43 3.59 3.79 3.90 4.17 4.27 4.50 4.85 5.11 5.23 5.23 5.12 5.11 4.99 5.09
0.06 0.08 0.09 0.12 0.12 0.14 0.20 0.32 0.35 0.32 0.29 0.38 0.54 0.69 0.88 1.03 1.12 1.10 1.21 1.38 1.50 1.93 2.30 2.47 2.68 3.11 3.55 3.69 3.68 3.71 3.91 4.23 4.44 4.69 5.15 5.43 5.70 5.97 6.15 6.14 5.69 5.48 5.35 5.25
0.07 0.08 0.07 0.09 0.10 0.12 0.15 0.23 0.28 0.30 0.30 0.41 0.61 0.90 1.05 1.15 1.28 1.45 1.65 1.81 1.92 2.15 2.52 2.58 2.66 3.04 3.36 3.54 3.64 3.77 4.04 4.48 5.02 5.43 5.90 6.28 6.42 6.45 6.32 6.04 5.90 5.74 5.55 5.39
0.06 0.05 0.05 0.08 0.11 0.13 0.16 0.17 0.25 0.25 0.32 0.46 0.58 1.05 1.36 1.45 1.58 1.85 2.03 2.01 2.11 2.27 2.47 2.56 2.70 2.96 3.27 3.49 3.63 3.99 4.53 5.17 5.71 6.16 6.73 7.22 7.28 7.07 6.76 6.32 5.89 5.62 5.36 5.03
0.07 0.07 0.08 0.09 0.11 0.14 0.15 0.13 0.21 0.25 0.29 0.41 0.57 0.98 1.77 1.89 1.92 2.14 2.31 2.07 2.05 2.05 2.13 2.37 2.53 2.72 3.14 3.35 3.58 3.95 4.57 5.29 5.96 6.74 7.42 7.86 7.73 7.37 6.93 6.26 5.67 5.20 4.81 4.44
0.08 0.07 0.08 0.08 0.09 0.12 0.12 0.14 0.19 0.24 0.31 0.51 0.52 0.86 1.64 2.05 2.18 2.29 2.20 2.00 1.93 1.84 1.86 2.00 2.15 2.41 2.73 3.04 3.35 3.79 4.46 5.19 5.82 6.41 6.91 7.13 7.01 6.78 6.25 5.56 4.93 4.52 4.19 3.84
0.12 0.11 0.09 0.07 0.08 0.12 0.14 0.18 0.43 0.61 0.68 0.69 0.54 0.85 1.56 1.84 1.96 1.89 1.83 1.86 1.73 1.78 1.75 1.76 1.86 2.09 2.44 2.63 3.02 3.47 3.92 4.57 4.99 5.30 5.67 5.83 5.87 5.64 5.31 4.82 4.35 3.89 3.40 3.05
0.26 0.20 0.12 0.08 0.08 0.13 0.15 0.17 0.50 0.81 0.78 0.76 0.73 1.18 1.70 1.72 1.66 1.56 1.50 1.55 1.58 1.63 1.66 1.68 1.81 2.00 2.29 2.43 2.62 2.82 3.11 3.49 3.65 3.69 3.94 4.19 4.21 4.15 4.00 3.71 3.37 3.07 2.71 2.35
0.37 0.26 0.13 0.08 0.07 0.10 0.15 0.16 0.23 0.46 0.54 0.88 1.15 1.57 2.00 1.82 1.74 1.66 1.62 1.48 1.44 1.42 1.48 1.63 1.73 1.75 1.82 1.90 2.00 2.09 2.28 2.44 2.51 2.60 2.68 2.83 2.85 2.84 2.75 2.57 2.31 2.11 1.96 1.73
0.34 0.29 0.15 0.09 0.08 0.10 0.13 0.18 0.28 0.50 0.89 1.15 1.40 1.98 2.55 2.39 2.00 1.72 1.53 1.34 1.25 1.30 1.38 1.52 1.62 1.60 1.61 1.60 1.69 1.76 1.83 1.89 1.92 1.99 1.97 1.94 1.97 1.98 1.96 1.81 1.72 1.63 1.50 1.41
0.29 0.34 0.20 0.14 0.17 0.18 0.19 0.25 0.36 0.54 0.68 1.11 1.61 2.35 2.44 2.59 2.44 1.98 1.65 1.49 1.39 1.32 1.31 1.41 1.39 1.39 1.38 1.39 1.45 1.52 1.52 1.50 1.52 1.51 1.51 1.48 1.44 1.45 1.51 1.51 1.42 1.36 1.29 1.18
0.30 0.42 0.40 0.26 0.20 0.19 0.20 0.26 0.39 0.76 0.84 0.85 1.51 2.53 2.38 2.61 2.66 2.35 2.04 1.86 1.74 1.46 1.36 1.36 1.29 1.25 1.20 1.21 1.24 1.31 1.30 1.29 1.34 1.27 1.20 1.21 1.20 1.20 1.24 1.25 1.15 1.10 1.11 1.03
0.31 0.50 0.85 0.82 0.61 0.35 0.27 0.29 0.35 0.47 0.72 0.94 1.57 2.70 2.69 2.52 2.53 2.46 2.18 2.06 2.12 1.94 1.71 1.58 1.39 1.30 1.25 1.21 1.16 1.10 1.11 1.11 1.13 1.11 1.08 1.07 1.08 1.10 1.09 1.09 1.07 1.02 1.01 0.98
0.25 0.52 1.06 1.42 1.04 0.63 0.45 0.34 0.34 0.44 0.81 1.03 1.42 2.13 2.43 2.45 2.49 2.51 2.55 2.52 2.55 2.26 1.94 1.74 1.50 1.40 1.36 1.26 1.18 1.12 1.13 1.07 1.00 0.99 0.98 1.00 1.01 1.03 1.01 1.04 1.10 1.08 0.99 0.91
0.38 0.77 0.77 0.69 0.61 0.53 0.45 0.43 0.42 0.43 0.56 0.92 1.34 1.75 2.17 2.29 2.42 2.66 2.80 2.70 2.48 2.12 1.87 1.78 1.64 1.54 1.48 1.37 1.31 1.19 1.12 1.03 0.98 0.93 0.92 0.91 0.89 0.89 0.88 0.94 0.98 1.01 0.98 0.91
0.43 0.73 0.74 0.67 0.53 0.57 0.54 0.55 0.57 0.55 0.61 0.90 1.32 1.94 2.26 2.45 2.57 2.59 2.54 2.56 2.54 2.20 1.94 1.84 1.74 1.64 1.60 1.49 1.43 1.34 1.24 1.17 1.07 0.99 1.00 0.94 0.91 0.87 0.86 0.85 0.87 0.86 0.80 0.78
0.43 0.70 1.01 0.98 0.60 0.77 1.09 0.89 0.75 0.78 0.81 1.01 1.39 1.77 1.92 2.08 2.20 2.42 2.55 2.46 2.46 2.24 2.01 1.89 1.88 1.86 1.79 1.73 1.63 1.49 1.33 1.25 1.05 0.94 0.92 0.91 0.89 0.84 0.80 0.75 0.74 0.75 0.79 0.76
0.37 0.70 0.94 0.95 1.08 1.53 1.27 0.79 0.71 0.84 0.90 0.91 1.10 1.24 1.46 1.64 1.84 2.09 2.32 2.43 2.46 2.30 2.17 2.05 1.95 1.90 1.83 1.74 1.62 1.44 1.24 1.09 0.93 0.85 0.84 0.80 0.77 0.76 0.78 0.72 0.70 0.73 0.77 0.74
0.28 0.61 0.93 1.07 1.37 1.51 1.24 0.78 0.69 0.99 1.19 0.91 0.96 0.99 1.02 1.13 1.41 1.88 1.99 2.05 2.15 2.18 2.15 2.05 1.92 1.85 1.75 1.55 1.38 1.27 1.08 0.96 0.89 0.82 0.80 0.72 0.65 0.71 0.73 0.70 0.70 0.74 0.71 0.70
0.34 0.55 0.93 1.14 1.55 1.82 1.53 0.72 0.49 0.83 1.61 1.13 1.01 1.07 1.05 1.22 1.55 1.60 1.49 1.54 1.67 1.80 1.89 1.85 1.69 1.57 1.52 1.34 1.17 1.11 1.00 0.89 0.86 0.79 0.76 0.69 0.68 0.71 0.75 0.76 0.74 0.67 0.68 0.65
0.70 0.83 1.06 1.26 1.58 1.61 0.88 0.54 0.69 1.51 1.85 1.28 1.04 1.12 1.29 1.52 1.48 1.14 0.99 1.16 1.33 1.44 1.58 1.57 1.49 1.42 1.29 1.12 1.08 1.13 1.09 0.95 0.79 0.68 0.67 0.70 0.72 0.68 0.65 0.66 0.68 0.66 0.59 0.61
0.85 1.06 1.21 1.34 1.71 1.69 0.73 0.65 1.15 1.36 1.06 0.93 0.93 0.97 1.01 1.02 0.92 0.82 0.82 0.96 1.06 1.17 1.26 1.35 1.40 1.33 1.21 1.11 1.10 1.12 1.10 0.90 0.77 0.74 0.73 0.70 0.66 0.56 0.52 0.61 0.64 0.60 0.60 0.62
0.78 0.97 1.12 1.30 1.53 1.18 0.67 0.64 0.70 0.71 0.81 0.81 0.86 0.85 0.76 0.74 0.77 0.74 0.80 0.93 1.03 1.05 1.06 1.12 1.19 1.18 1.13 1.07 1.08 1.09 1.00 0.82 0.77 0.82 0.74 0.68 0.59 0.53 0.52 0.57 0.58 0.56 0.56 0.54
0.80 0.65 0.77 0.92 0.90 0.76 0.66 0.60 0.62 0.69 0.70 0.71 0.77 0.76 0.69 0.64 0.65 0.69 0.80 0.90 0.96 0.93 0.92 0.98 1.05 1.07 1.04 0.96 0.94 0.96 0.87 0.83 0.85 0.84 0.75 0.66 0.57 0.50 0.47 0.47 0.45 0.45 0.46 0.47
0.77 0.65 0.79 0.95 0.91 0.84 0.78 0.68 0.66 0.71 0.74 0.69 0.73 0.75 0.67 0.59 0.62 0.66 0.78 0.80 0.82 0.84 0.85 0.89 0.99 0.99 0.89 0.80 0.76 0.73 0.78 0.84 0.88 0.80 0.68 0.62 0.54 0.46 0.43 0.38 0.32 0.30 0.31 0.30
0.60 0.67 0.80 0.98 0.89 0.91 0.84 0.64 0.61 0.77 0.90 0.83 0.80 0.74 0.66 0.61 0.63 0.64 0.67 0.70 0.70 0.74 0.77 0.82 0.82 0.80 0.72 0.65 0.63 0.60 0.66 0.72 0.72 0.67 0.59 0.51 0.45 0.42 0.33 0.31 0.30 0.24 0.21 0.20

GEFSCGP_prec_meanprecacc_264.txt.gz
Total_Precipitation_Accumulation
0.03 0.05 0.08 0.13 0.15 0.17 0.20 0.27 0.27 0.30 0.30 0.35 0.44 0.59 0.83 0.98 1.18 1.23 1.28 1.39 1.58 1.85 2.04 2.37 2.71 3.00 3.48 3.48 3.36 3.46 3.63 3.82 3.93 4.20 4.29 4.52 4.88 5.14 5.27 5.28 5.17 5.18 5.06 5.15
0.06 0.08 0.09 0.13 0.13 0.14 0.21 0.34 0.37 0.34 0.30 0.39 0.56 0.72 0.91 1.07 1.15 1.13 1.26 1.43 1.59 2.01 2.40 2.60 2.75 3.14 3.59 3.73 3.73 3.76 3.95 4.28 4.53 4.78 5.20 5.49 5.76 6.03 6.24 6.27 5.82 5.57 5.43 5.31
0.07 0.08 0.07 0.10 0.11 0.13 0.17 0.24 0.30 0.32 0.31 0.43 0.64 0.93 1.07 1.19 1.32 1.48 1.70 1.88 1.99 2.21 2.59 2.65 2.71 3.07 3.40 3.60 3.72 3.87 4.14 4.59 5.14 5.53 5.97 6.37 6.54 6.59 6.45 6.17 6.02 5.81 5.62 5.44
0.07 0.05 0.05 0.09 0.11 0.14 0.17 0.18 0.25 0.26 0.33 0.49 0.61 1.09 1.42 1.50 1.64 1.88 2.09 2.12 2.21 2.33 2.51 2.61 2.74 3.00 3.32 3.57 3.75 4.10 4.62 5.26 5.80 6.25 6.81 7.31 7.40 7.15 6.81 6.35 5.92 5.66 5.40 5.07
0.08 0.07 0.09 0.09 0.12 0.15 0.16 0.14 0.22 0.25 0.30 0.44 0.60 1.04 1.83 1.95 1.99 2.19 2.38 2.16 2.19 2.11 2.16 2.40 2.55 2.74 3.17 3.42 3.71 4.09 4.66 5.40 6.10 6.86 7.50 7.91 7.77 7.40 6.96 6.28 5.69 5.22 4.83 4.47
0.09 0.07 0.08 0.08 0.09 0.12 0.13 0.14 0.20 0.25 0.32 0.54 0.55 0.92 1.71 2.12 2.28 2.39 2.29 2.06 1.99 1.88 1.89 2.03 2.19 2.46 2.79 3.11 3.42 3.86 4.53 5.29 5.92 6.47 6.95 7.17 7.04 6.81 6.28 5.58 4.96 4.56 4.25 3.90
0.13 0.11 0.10 0.07 0.08 0.12 0.14 0.19 0.45 0.63 0.73 0.74 0.60 0.93 1.65 1.89 2.02 1.95 1.89 1.91 1.77 1.82 1.79 1.81 1.92 2.14 2.49 2.68 3.07 3.50 3.95 4.61 5.02 5.33 5.70 5.86 5.90 5.67 5.34 4.86 4.42 3.99 3.50 3.13
0.26 0.21 0.13 0.08 0.08 0.14 0.15 0.18 0.53 0.84 0.83 0.81 0.79 1.28 1.83 1.79 1.72 1.62 1.57 1.61 1.64 1.68 1.71 1.74 1.87 2.05 2.34 2.47 2.66 2.85 3.13 3.51 3.67 3.71 3.96 4.21 4.23 4.18 4.02 3.73 3.41 3.12 2.79 2.40
0.38 0.27 0.14 0.09 0.08 0.11 0.16 0.17 0.26 0.50 0.58 0.94 1.23 1.69 2.13 1.90 1.81 1.75 1.70 1.54 1.49 1.47 1.54 1.70 1.81 1.83 1.89 1.96 2.04 2.13 2.31 2.46 2.53 2.62 2.70 2.85 2.87 2.85 2.77 2.59 2.33 2.13 1.98 1.75
0.34 0.29 0.15 0.10 0.09 0.11 0.14 0.21 0.31 0.55 0.96 1.22 1.49 2.11 2.67 2.48 2.08 1.79 1.58 1.38 1.30 1.35 1.44 1.59 1.72 1.73 1.72 1.67 1.74 1.82 1.88 1.93 1.96 2.03 2.00 1.97 2.00 2.02 2.00 1.83 1.73 1.65 1.53 1.44
0.30 0.35 0.21 0.15 0.18 0.20 0.22 0.28 0.40 0.60 0.76 1.19 1.71 2.45 2.53 2.72 2.55 2.05 1.68 1.51 1.42 1.35 1.36 1.49 1.50 1.52 1.51 1.49 1.54 1.60 1.59 1.58 1.58 1.56 1.55 1.53 1.49 1.50 1.56 1.55 1.45 1.38 1.32 1.20
0.31 0.44 0.41 0.27 0.21 0.20 0.22 0.29 0.43 0.81 0.89 0.92 1.60 2.64 2.47 2.70 2.75 2.41 2.08 1.90 1.77 1.49 1.41 1.42 1.38 1.35 1.32 1.34 1.36 1.42 1.39 1.35 1.40 1.33 1.27 1.27 1.25 1.26 1.30 1.30 1.19 1.14 1.16 1.07
0.32 0.52 0.87 0.84 0.63 0.36 0.28 0.30 0.37 0.50 0.76 1.01 1.68 2.83 2.77 2.59 2.60 2.52 2.25 2.13 2.16 1.99 1.78 1.63 1.46 1.42 1.40 1.35 1.28 1.19 1.17 1.16 1.18 1.17 1.15 1.14 1.14 1.15 1.16 1.15 1.12 1.07 1.07 1.04
0.26 0.53 1.08 1.45 1.06 0.64 0.46 0.35 0.37 0.49 0.86 1.08 1.50 2.24 2.53 2.52 2.57 2.59 2.62 2.59 2.59 2.30 2.00 1.78 1.55 1.48 1.47 1.37 1.30 1.22 1.19 1.10 1.05 1.05 1.05 1.07 1.07 1.08 1.06 1.08 1.15 1.12 1.02 0.95
0.39 0.78 0.79 0.70 0.62 0.55 0.46 0.44 0.44 0.46 0.60 0.96 1.39 1.82 2.27 2.41 2.53 2.75 2.86 2.74 2.53 2.17 1.94 1.83 1.70 1.61 1.53 1.41 1.35 1.24 1.16 1.05 1.00 0.96 0.96 0.96 0.96 0.96 0.94 0.99 1.02 1.04 1.02 0.94
0.45 0.75 0.77 0.69 0.54 0.59 0.56 0.58 0.60 0.57 0.63 0.92 1.35 1.99 2.32 2.53 2.67 2.70 2.63 2.63 2.61 2.28 2.05 1.93 1.79 1.68 1.63 1.51 1.44 1.36 1.27 1.20 1.10 1.01 1.03 0.98 0.97 0.93 0.92 0.92 0.94 0.91 0.86 0.85
0.45 0.73 1.04 1.01 0.62 0.81 1.14 0.93 0.79 0.80 0.83 1.03 1.41 1.80 1.97 2.14 2.28 2.50 2.64 2.55 2.55 2.33 2.11 1.98 1.93 1.89 1.81 1.75 1.64 1.50 1.35 1.28 1.08 0.96 0.95 0.94 0.92 0.88 0.85 0.80 0.80 0.81 0.87 0.85
0.40 0.74 0.98 1.00 1.13 1.57 1.30 0.82 0.73 0.87 0.93 0.94 1.12 1.26 1.49 1.68 1.90 2.16 2.38 2.53 2.60 2.42 2.26 2.12 2.00 1.94 1.85 1.75 1.62 1.45 1.26 1.11 0.94 0.87 0.87 0.83 0.80 0.80 0.82 0.76 0.74 0.77 0.82 0.80
0.30 0.65 0.99 1.15 1.46 1.56 1.27 0.80 0.72 1.01 1.22 0.94 0.99 1.03 1.06 1.16 1.44 1.93 2.03 2.13 2.29 2.33 2.26 2.11 1.95 1.87 1.76 1.56 1.39 1.29 1.10 0.98 0.90 0.83 0.82 0.75 0.68 0.75 0.78 0.74 0.73 0.78 0.75 0.74
0.35 0.57 0.97 1.21 1.62 1.90 1.57 0.75 0.51 0.85 1.66 1.17 1.06 1.11 1.08 1.25 1.59 1.67 1.54 1.58 1.74 1.90 1.99 1.90 1.71 1.59 1.53 1.35 1.18 1.13 1.02 0.91 0.87 0.80 0.77 0.71 0.70 0.74 0.78 0.79 0.77 0.71 0.71 0.68
0.73 0.87 1.10 1.32 1.66 1.69 0.93 0.56 0.71 1.54 1.90 1.33 1.08 1.15 1.31 1.54 1.52 1.21 1.05 1.21 1.38 1.49 1.63 1.61 1.50 1.44 1.31 1.13 1.09 1.14 1.11 0.97 0.80 0.70 0.69 0.72 0.74 0.71 0.68 0.71 0.72 0.70 0.63 0.64
0.89 1.10 1.25 1.41 1.79 1.76 0.76 0.68 1.17 1.38 1.09 0.98 0.99 1.04 1.05 1.06 0.96 0.89 0.89 1.01 1.10 1.21 1.29 1.37 1.42 1.34 1.22 1.12 1.12 1.14 1.12 0.92 0.79 0.76 0.77 0.74 0.70 0.58 0.56 0.66 0.68 0.64 0.64 0.66
0.82 1.02 1.17 1.38 1.61 1.23 0.70 0.67 0.72 0.73 0.84 0.84 0.90 0.90 0.81 0.80 0.82 0.80 0.86 0.99 1.08 1.10 1.11 1.15 1.21 1.20 1.15 1.08 1.10 1.11 1.02 0.84 0.79 0.86 0.82 0.77 0.67 0.59 0.58 0.63 0.63 0.60 0.61 0.58
0.86 0.70 0.84 1.02 1.03 0.89 0.78 0.68 0.66 0.72 0.75 0.77 0.81 0.80 0.74 0.69 0.70 0.74 0.85 0.97 1.03 0.99 0.97 1.02 1.09 1.09 1.05 0.97 0.96 0.97 0.88 0.84 0.87 0.86 0.80 0.75 0.69 0.61 0.56 0.54 0.51 0.51 0.51 0.50
0.84 0.73 0.89 1.08 1.06 0.99 0.95 0.83 0.75 0.79 0.80 0.75 0.78 0.81 0.73 0.64 0.67 0.72 0.84 0.87 0.89 0.90 0.90 0.94 1.03 1.03 0.91 0.82 0.78 0.74 0.78 0.85 0.90 0.82 0.71 0.65 0.60 0.57 0.56 0.50 0.43 0.40 0.39 0.36
0.65 0.74 0.90 1.10 1.01 1.02 0.97 0.80 0.74 0.88 0.97 0.87 0.83 0.78 0.71 0.68 0.70 0.69 0.72 0.75 0.76 0.79 0.81 0.86 0.87 0.84 0.75 0.67 0.66 0.62 0.68 0.74 0.74 0.68 0.60 0.52 0.47 0.46 0.41 0.40 0.38 0.32 0.29 0.27

GEFSCGP_prec_meanprecacc_270.txt.gz
Total_Precipitation_Accumulation
0.03 0.05 0.08 0.13 0.15 0.17 0.20 0.27 0.28 0.30 0.30 0.36 0.44 0.60 0.84 0.99 1.19 1.24 1.29 1.43 1.63 1.88 2.08 2.41 2.76 3.06 3.54 3.57 3.43 3.50 3.66 3.88 3.99 4.26 4.35 4.60 4.98 5.24 5.35 5.35 5.24 5.26 5.13 5.19
0.06 0.08 0.09 0.13 0.13 0.15 0.21 0.35 0.37 0.35 0.31 0.40 0.56 0.73 0.92 1.08 1.17 1.14 1.28 1.45 1.62 2.04 2.43 2.65 2.79 3.19 3.65 3.81 3.81 3.82 4.00 4.32 4.57 4.83 5.25 5.55 5.88 6.18 6.34 6.34 5.91 5.66 5.50 5.37
0.07 0.08 0.07 0.10 0.11 0.13 0.17 0.24 0.30 0.32 0.31 0.43 0.65 0.94 1.08 1.20 1.34 1.51 1.73 1.91 2.01 2.23 2.62 2.72 2.77 3.12 3.46 3.68 3.80 3.95 4.20 4.65 5.21 5.59 6.03 6.42 6.60 6.66 6.49 6.19 6.07 5.88 5.71 5.54
0.07 0.05 0.06 0.09 0.11 0.14 0.17 0.18 0.26 0.26 0.34 0.50 0.61 1.10 1.43 1.52 1.65 1.90 2.12 2.15 2.22 2.35 2.53 2.64 2.76 3.02 3.37 3.65 3.81 4.16 4.68 5.30 5.84 6.30 6.88 7.38 7.46 7.19 6.83 6.38 5.95 5.70 5.45 5.14
0.08 0.08 0.09 0.09 0.12 0.15 0.16 0.15 0.23 0.26 0.30 0.44 0.61 1.05 1.84 1.97 2.01 2.21 2.40 2.19 2.21 2.13 2.18 2.43 2.58 2.78 3.24 3.51 3.76 4.14 4.72 5.45 6.16 6.93 7.58 7.99 7.82 7.43 6.99 6.31 5.71 5.23 4.84 4.50
0.09 0.08 0.08 0.08 0.10 0.13 0.13 0.16 0.22 0.26 0.33 0.54 0.56 0.92 1.73 2.13 2.29 2.42 2.32 2.09 2.03 1.92 1.93 2.06 2.23 2.52 2.92 3.23 3.49 3.93 4.60 5.38 6.01 6.56 7.02 7.23 7.08 6.84 6.30 5.60 4.97 4.57 4.26 3.92
0.13 0.11 0.10 0.08 0.08 0.13 0.15 0.21 0.47 0.64 0.74 0.74 0.61 0.94 1.67 1.91 2.03 1.97 1.91 1.94 1.80 1.85 1.81 1.84 1.97 2.21 2.58 2.77 3.15 3.58 4.03 4.71 5.13 5.42 5.76 5.92 5.94 5.70 5.35 4.88 4.44 4.01 3.51 3.15
0.26 0.22 0.13 0.08 0.08 0.14 0.16 0.19 0.54 0.85 0.83 0.81 0.80 1.30 1.86 1.81 1.74 1.63 1.59 1.64 1.67 1.70 1.73 1.78 1.92 2.11 2.39 2.55 2.74 2.92 3.20 3.59 3.76 3.77 4.00 4.25 4.26 4.20 4.04 3.74 3.42 3.14 2.81 2.42
0.38 0.27 0.14 0.09 0.08 0.11 0.16 0.18 0.27 0.51 0.59 0.94 1.23 1.70 2.15 1.93 1.83 1.77 1.72 1.56 1.51 1.48 1.55 1.73 1.85 1.88 1.94 2.02 2.11 2.20 2.38 2.53 2.60 2.67 2.74 2.89 2.90 2.88 2.79 2.61 2.35 2.15 2.00 1.77
0.34 0.30 0.16 0.10 0.09 0.12 0.14 0.21 0.33 0.56 0.98 1.23 1.50 2.12 2.69 2.49 2.10 1.82 1.61 1.40 1.32 1.37 1.45 1.61 1.74 1.76 1.76 1.71 1.79 1.87 1.95 2.00 2.03 2.09 2.06 2.03 2.07 2.07 2.04 1.87 1.77 1.68 1.55 1.46
0.31 0.35 0.21 0.15 0.19 0.21 0.23 0.29 0.42 0.61 0.77 1.21 1.73 2.47 2.55 2.74 2.58 2.08 1.73 1.54 1.44 1.37 1.38 1.51 1.52 1.54 1.54 1.52 1.57 1.64 1.64 1.63 1.64 1.63 1.61 1.58 1.54 1.56 1.62 1.61 1.52 1.45 1.35 1.22
0.32 0.44 0.42 0.28 0.22 0.21 0.23 0.30 0.44 0.82 0.89 0.93 1.62 2.65 2.48 2.72 2.78 2.46 2.12 1.93 1.80 1.52 1.44 1.45 1.40 1.37 1.35 1.37 1.39 1.45 1.42 1.39 1.43 1.37 1.32 1.32 1.30 1.30 1.34 1.34 1.23 1.18 1.19 1.10
0.33 0.53 0.88 0.85 0.64 0.37 0.29 0.31 0.38 0.51 0.77 1.02 1.69 2.84 2.78 2.60 2.61 2.54 2.28 2.16 2.18 2.01 1.81 1.66 1.49 1.45 1.42 1.37 1.30 1.21 1.21 1.21 1.24 1.22 1.19 1.17 1.17 1.18 1.19 1.18 1.15 1.10 1.11 1.08
0.27 0.54 1.09 1.46 1.07 0.65 0.46 0.36 0.38 0.50 0.87 1.09 1.52 2.25 2.54 2.54 2.58 2.60 2.63 2.61 2.62 2.33 2.02 1.80 1.58 1.51 1.49 1.39 1.32 1.25 1.23 1.15 1.10 1.12 1.12 1.12 1.11 1.11 1.09 1.12 1.18 1.14 1.05 0.97
0.40 0.80 0.80 0.71 0.64 0.56 0.47 0.45 0.45 0.47 0.60 0.97 1.41 1.84 2.28 2.42 2.54 2.77 2.88 2.76 2.55 2.19 1.96 1.84 1.72 1.63 1.55 1.43 1.37 1.26 1.20 1.09 1.04 1.01 1.02 1.03 1.01 0.99 0.97 1.02 1.06 1.08 1.05 0.97
0.46 0.77 0.78 0.70 0.56 0.60 0.58 0.59 0.61 0.58 0.64 0.94 1.37 2.01 2.34 2.54 2.68 2.71 2.65 2.66 2.64 2.31 2.08 1.96 1.82 1.70 1.66 1.54 1.47 1.38 1.30 1.23 1.12 1.04 1.05 1.02 1.02 0.98 0.95 0.95 0.98 0.95 0.91 0.90
0.48 0.75 1.07 1.03 0.63 0.82 1.15 0.94 0.81 0.83 0.86 1.05 1.44 1.82 1.99 2.16 2.29 2.52 2.66 2.59 2.60 2.37 2.15 2.01 1.95 1.91 1.84 1.77 1.67 1.52 1.37 1.30 1.10 0.98 0.96 0.96 0.95 0.91 0.88 0.83 0.83 0.84 0.90 0.90
0.43 0.77 1.01 1.02 1.15 1.59 1.32 0.83 0.74 0.89 0.96 0.96 1.14 1.28 1.51 1.70 1.92 2.18 2.41 2.58 2.65 2.47 2.31 2.17 2.03 1.97 1.89 1.78 1.65 1.47 1.28 1.12 0.96 0.88 0.88 0.85 0.83 0.82 0.85 0.78 0.76 0.80 0.85 0.84
0.33 0.68 1.03 1.17 1.47 1.57 1.28 0.81 0.73 1.04 1.25 0.96 1.00 1.05 1.07 1.17 1.46 1.95 2.07 2.21 2.35 2.38 2.32 2.19 2.02 1.92 1.81 1.58 1.41 1.30 1.11 1.00 0.92 0.85 0.83 0.76 0.70 0.77 0.79 0.75 0.75 0.80 0.78 0.78
0.37 0.60 1.01 1.24 1.64 1.92 1.59 0.76 0.52 0.88 1.69 1.18 1.07 1.12 1.10 1.27 1.61 1.69 1.59 1.67 1.80 1.94 2.04 1.98 1.79 1.66 1.59 1.39 1.20 1.14 1.04 0.93 0.89 0.82 0.79 0.73 0.72 0.75 0.79 0.80 0.79 0.73 0.74 0.72
0.74 0.89 1.13 1.35 1.69 1.73 0.95 0.58 0.73 1.57 1.92 1.34 1.09 1.16 1.33 1.56 1.54 1.23 1.10 1.27 1.43 1.54 1.68 1.67 1.58 1.52 1.38 1.18 1.12 1.16 1.13 0.99 0.82 0.73 0.71 0.74 0.76 0.72 0.69 0.73 0.75 0.73 0.66 0.68
0.91 1.12 1.27 1.44 1.84 1.84 0.78 0.69 1.20 1.40 1.10 0.99 1.00 1.06 1.06 1.08 0.98 0.91 0.93 1.06 1.15 1.26 1.34 1.43 1.50 1.42 1.29 1.17 1.15 1.16 1.13 0.94 0.81 0.79 0.80 0.76 0.71 0.59 0.56 0.67 0.70 0.68 0.67 0.70
0.86 1.04 1.20 1.42 1.67 1.28 0.72 0.69 0.74 0.74 0.86 0.86 0.91 0.92 0.84 0.83 0.85 0.83 0.89 1.03 1.13 1.15 1.17 1.21 1.28 1.27 1.21 1.12 1.13 1.13 1.03 0.85 0.81 0.88 0.85 0.79 0.68 0.60 0.59 0.64 0.66 0.64 0.64 0.61
0.90 0.74 0.87 1.05 1.07 0.94 0.81 0.71 0.69 0.75 0.77 0.78 0.83 0.82 0.76 0.74 0.75 0.80 0.91 1.03 1.10 1.05 1.03 1.08 1.14 1.14 1.10 1.00 0.98 0.99 0.89 0.86 0.89 0.88 0.81 0.77 0.71 0.62 0.57 0.56 0.53 0.56 0.59 0.58
0.87 0.78 0.93 1.12 1.11 1.03 1.00 0.87 0.79 0.84 0.85 0.79 0.82 0.85 0.77 0.70 0.73 0.78 0.90 0.93 0.97 0.97 0.96 0.99 1.08 1.09 0.96 0.85 0.80 0.77 0.80 0.86 0.91 0.84 0.72 0.66 0.62 0.58 0.57 0.52 0.46 0.47 0.49 0.49
0.70 0.79 0.95 1.16 1.07 1.07 1.03 0.86 0.80 0.94 1.03 0.92 0.87 0.82 0.75 0.72 0.74 0.73 0.76 0.79 0.80 0.83 0.87 0.93 0.93 0.89 0.79 0.71 0.70 0.65 0.70 0.76 0.75 0.70 0.61 0.53 0.48 0.47 0.42 0.42 0.42 0.38 0.37 0.37